Date StartTime U_cm/s V_cm/s W_cm/s Ustd_cm/s Vstd_cm/s Wstd_cm/s Uvar_(cm/s)^2 Vvar_(cm/s)^2 Wvar_(cm/s)^2 KE_(m/s)^2 TurbulentKE_(m/s)^2 HorizWindSpeed_cm/s FrictionSpeec_cm/s DragCoef SpeedOfSound_m/s SonicTemperature_C Pressure_mb 
11/19/2014  00:00:00       -1.017       -7.133        1.043        7.862       10.053        7.838       61.817      101.062       61.438        0.014        0.011        7.205        7.292        1.024      334.490        4.497      864.858
11/19/2014  00:01:00      -14.273       32.829      -10.263       22.704       30.921       11.748      515.473      956.119      138.018        0.150        0.080       35.797       10.990        0.094      334.602        4.682      864.830
11/19/2014  00:02:00      -33.132       23.833       -9.242       19.422       21.845       13.781      377.220      477.216      189.906        0.140        0.052       40.814       13.487        0.109      334.499        4.512      864.811
11/19/2014  00:03:00      -26.607      -24.555        0.626       21.729       21.550       15.813      472.151      464.412      250.046        0.125        0.059       36.206       17.469        0.233      334.354        4.273      864.816
11/19/2014  00:04:00       -9.714      -47.383       -3.371       12.055       14.522       10.164      145.318      210.901      103.313        0.141        0.023       48.368        6.402        0.018      334.253        4.103      864.827
11/19/2014  00:05:00      -20.572      -47.418       -8.179        8.983       13.260        7.606       80.697      175.840       57.847        0.153        0.016       51.688        3.343        0.004      334.194        4.006      864.827
11/19/2014  00:06:00      -28.776      -12.370       -1.176        7.911        8.048        5.361       62.580       64.773       28.736        0.057        0.008       31.323        3.084        0.010      334.208        4.027      864.812
11/19/2014  00:07:00       -4.686       28.281       -6.531       26.796       24.202        4.692      718.032      585.747       22.016        0.109        0.066       28.667        7.465        0.068      334.495        4.505      864.775
11/19/2014  00:08:00       22.066       53.638       -7.569       14.154       10.990       11.302      200.347      120.771      127.734        0.193        0.022       57.999        8.012        0.019      334.641        4.748      864.740
11/19/2014  00:09:00       16.554       62.260      -11.287       10.855       12.979        7.842      117.822      168.448       61.499        0.231        0.017       64.424        5.192        0.006      334.693        4.835      864.729
11/19/2014  00:10:00        3.836       35.556       -2.163        8.085       19.054        6.314       65.375      363.041       39.862        0.088        0.023       35.762        7.591        0.045      334.731        4.898      864.752
11/19/2014  00:11:00      -44.062      -19.128       -5.118       28.787       13.452        7.571      828.688      180.950       57.314        0.170        0.053       48.035       11.255        0.055      334.309        4.198      864.774
11/19/2014  00:12:00      -88.302      -27.672       -9.202       12.644       13.634        8.138      159.863      185.883       66.232        0.453        0.021       92.537        6.053        0.004      334.058        3.781      864.770
11/19/2014  00:13:00      -80.021      -10.772      -14.842       13.986       14.726       13.594      195.595      216.867      184.790        0.367        0.030       80.743       10.008        0.015      334.110        3.867      864.739
11/19/2014  00:14:00      -81.722       -3.072      -14.964        9.955        8.896        7.727       99.093       79.139       59.709        0.357        0.012       81.779        5.715        0.005      334.133        3.904      864.707
11/19/2014  00:15:00      -51.056       -8.215      -10.790       25.827       11.355        9.642      667.039      128.947       92.972        0.184        0.044       51.713       11.588        0.050      334.318        4.212      864.688
11/19/2014  00:16:00      -25.024      -17.384       -3.472       13.984       13.799        7.541      195.547      190.420       56.868        0.069        0.022       30.470        4.342        0.020      334.357        4.278      864.667
11/19/2014  00:17:00       -5.477      -15.910        9.825       15.208        9.771       10.742      231.273       95.468      115.400        0.041        0.022       16.826        8.002        0.226      334.417        4.378      864.656
11/19/2014  00:18:00      -39.640      -22.360       -9.989        9.561       11.065        8.220       91.411      122.433       67.570        0.123        0.014       45.511        4.342        0.009      334.176        3.975      864.643
11/19/2014  00:19:00      -63.437      -36.022       -7.587       18.952       16.173        8.144      359.180      261.570       66.328        0.303        0.034       72.951        8.674        0.014      334.066        3.792      864.649
11/19/2014  00:20:00      -80.759      -21.751       -9.854       21.787       20.078       10.553      474.661      403.140      111.371        0.404        0.049       83.637        6.158        0.005      333.989        3.669      864.653
11/19/2014  00:21:00      -89.998      -21.717       -6.995       14.324       18.264       14.126      205.173      333.575      199.544        0.468        0.037       92.581       12.124        0.017      333.955        3.611      864.664
11/19/2014  00:22:00      -73.102      -34.262      -14.414       15.083       12.362        9.421      227.483      152.827       88.757        0.360        0.023       80.733        4.775        0.003      333.978        3.649      864.667
11/19/2014  00:23:00      -82.302      -48.418      -15.273       14.094       13.132       10.584      198.632      172.459      112.019        0.492        0.024       95.488        7.456        0.006      334.027        3.729      864.664
11/19/2014  00:24:00     -103.260      -53.909       -9.115       24.883       18.116       15.364      619.169      328.201      236.050        0.742        0.059      116.485       12.319        0.011      333.981        3.654      864.671
11/19/2014  00:25:00     -100.527      -55.276       -7.986       16.081       17.754       14.174      258.609      315.209      200.907        0.700        0.039      114.722       10.560        0.008      334.009        3.698      864.673
11/19/2014  00:26:00      -77.266      -31.687       -6.626       20.175       16.007       12.111      407.023      256.230      146.668        0.391        0.040       83.511        9.765        0.014      333.998        3.682      864.666
11/19/2014  00:27:00      -85.855       -1.955      -16.531       15.148        9.662       11.393      229.474       93.362      129.797        0.405        0.023       85.878        8.405        0.010      334.064        3.789      864.639
11/19/2014  00:28:00      -68.209      -12.332       -9.663       13.698        9.463        9.665      187.643       89.551       93.414        0.263        0.019       69.315        8.679        0.016      334.076        3.807      864.616
11/19/2014  00:29:00      -80.667      -21.130       -9.775       12.693       10.497        6.716      161.112      110.178       45.108        0.368        0.016       83.389        4.987        0.004      334.128        3.893      864.598
11/19/2014  00:30:00      -80.388      -28.477       -2.466       15.360       15.567        8.550      235.931      242.320       73.104        0.392        0.028       85.283        7.907        0.009      334.087        3.827      864.595
11/19/2014  00:31:00      -98.694      -24.426      -14.144       12.065       13.800       10.592      145.572      190.446      112.197        0.549        0.022      101.671        8.141        0.006      334.047        3.763      864.577
11/19/2014  00:32:00      -70.869      -43.964      -16.752       23.951       19.830       13.216      573.638      393.221      174.669        0.419        0.057       83.398        8.471        0.010      334.073        3.805      864.574
11/19/2014  00:33:00      -65.372      -42.499       -3.813       36.502       21.955       19.643     1332.426      482.043      385.838        0.415        0.110       77.973       19.161        0.060      334.048        3.762      864.581
11/19/2014  00:34:00     -100.110      -37.576       -6.778       22.991       22.870       11.241      528.597      523.049      126.360        0.633        0.059      106.930       12.109        0.013      334.053        3.771      864.583
11/19/2014  00:35:00      -98.142      -13.542      -11.171       13.278       17.811       12.183      176.310      317.239      148.421        0.529        0.032       99.072        7.606        0.006      334.126        3.892      864.554
11/19/2014  00:36:00      -79.039      -11.412      -12.113       15.400       12.016        8.011      237.146      144.395       64.183        0.348        0.022       79.859        4.181        0.003      334.136        3.908      864.528
11/19/2014  00:37:00      -59.620      -22.674       -7.819       15.417        8.479       10.001      237.670       71.894      100.017        0.227        0.020       63.786        6.987        0.012      334.147        3.929      864.511
11/19/2014  00:38:00      -56.830      -26.383       -2.202       14.456        7.074        7.729      208.973       50.046       59.742        0.212        0.016       62.656        3.682        0.003      334.110        3.865      864.503
11/19/2014  00:39:00      -77.258      -22.203      -12.334       13.075       11.761        9.086      170.943      138.320       82.546        0.350        0.020       80.385        6.424        0.006      334.065        3.791      864.491
11/19/2014  00:40:00      -86.702      -20.986      -12.399       22.675       17.414       14.286      514.173      303.239      204.083        0.457        0.051       89.206       10.272        0.013      334.025        3.727      864.480
11/19/2014  00:41:00      -92.073      -25.855       -7.260       21.771       25.046       16.597      473.973      627.313      275.450        0.529        0.069       95.635       12.529        0.017      333.965        3.627      864.471
11/19/2014  00:42:00      -93.219      -11.441       -7.684       29.201       18.936       14.397      852.674      358.578      207.282        0.515        0.071       93.918       12.220        0.017      333.957        3.614      864.466
11/19/2014  00:43:00      -46.690      -18.925       -0.548       10.248       10.715        8.249      105.013      114.806       68.043        0.141        0.014       50.380        3.785        0.006      333.899        3.517      864.456
11/19/2014  00:44:00      -34.032      -23.725       -1.572       16.264       11.425        9.479      264.504      130.528       89.858        0.110        0.024       41.485        9.101        0.048      333.953        3.609      864.458
11/19/2014  00:45:00      -47.768      -24.743       -9.869        8.324        9.758        9.395       69.293       95.225       88.266        0.162        0.013       53.796        7.156        0.018      333.965        3.629      864.482
11/19/2014  00:46:00      -84.679      -25.097      -11.472       17.129        9.513        7.882      293.397       90.496       62.125        0.419        0.022       88.320        5.449        0.004      334.002        3.688      864.496
11/19/2014  00:47:00      -80.398      -34.191      -13.253        9.825        9.979        8.972       96.534       99.582       80.493        0.404        0.014       87.366        4.906        0.003      334.064        3.788      864.501
11/19/2014  00:48:00      -76.047      -10.577       -7.594        8.165       11.482        6.307       66.673      131.846       39.778        0.310        0.012       76.779        4.184        0.003      334.065        3.789      864.476
11/19/2014  00:49:00      -58.391        2.070       -8.817       14.113       10.794        8.077      199.169      116.515       65.234        0.194        0.019       58.428        5.617        0.009      334.077        3.809      864.428
11/19/2014  00:50:00      -26.066       -9.353       -4.639       12.837       12.278        8.082      164.800      150.744       65.321        0.058        0.019       27.693        9.788        0.125      334.124        3.891      864.387
11/19/2014  00:51:00      -21.488      -17.406       -4.649       13.893       11.270        5.934      193.022      127.003       35.217        0.057        0.018       27.654        4.319        0.024      334.124        3.889      864.365
11/19/2014  00:52:00      -13.790      -18.744       -5.732       18.316       10.288        9.043      335.459      105.841       81.770        0.055        0.026       23.271        4.734        0.041      334.131        3.900      864.352
11/19/2014  00:53:00      -42.050      -25.921       -9.309        9.088       10.444        6.259       82.596      109.072       39.177        0.138        0.012       49.397        3.485        0.005      334.035        3.742      864.352
11/19/2014  00:54:00      -39.637      -17.295      -12.016        7.105        7.864        4.134       50.475       61.837       17.089        0.107        0.006       43.246        3.536        0.007      333.968        3.633      864.350
11/19/2014  00:55:00      -17.412      -15.295        0.166        6.479        8.400        6.907       41.974       70.556       47.704        0.035        0.008       23.175        4.715        0.041      334.109        3.864      864.345
11/19/2014  00:56:00      -15.068      -15.982       -0.366       10.243        8.192        6.602      104.917       67.103       43.582        0.035        0.011       21.965        5.806        0.070      334.181        3.984      864.347
11/19/2014  00:57:00      -67.073      -14.959       -3.520       13.016       12.310        7.406      169.425      151.539       54.846        0.256        0.019       68.721        6.439        0.009      334.004        3.692      864.370
11/19/2014  00:58:00      -99.106      -20.576      -15.944       13.139       13.357       10.667      172.631      178.399      113.780        0.548        0.023      101.220        8.946        0.008      333.868        3.465      864.396
11/19/2014  00:59:00      -67.969      -34.643       -9.191       21.427       24.126       14.177      459.112      582.063      200.985        0.357        0.062       76.288       12.271        0.026      333.838        3.417      864.407
11/19/2014  01:00:00      -63.702      -33.342       -0.755       14.403       13.619       11.978      207.444      185.464      143.473        0.285        0.027       71.900        6.436        0.008      333.841        3.422      864.402
11/19/2014  01:01:00      -63.787      -29.181       -7.727       12.285       15.642        9.227      150.926      244.664       85.146        0.273        0.024       70.145        5.498        0.006      333.859        3.450      864.392
11/19/2014  01:02:00      -59.431      -23.954       -4.420       10.432       11.592        9.314      108.826      134.370       86.751        0.223        0.016       64.077        8.191        0.016      333.915        3.544      864.371
11/19/2014  01:03:00      -65.426       -6.301      -10.272        7.163        8.718        6.691       51.310       75.996       44.773        0.230        0.009       65.729        4.074        0.004      333.993        3.673      864.347
11/19/2014  01:04:00      -62.356      -16.513      -11.113       11.563        9.820       10.505      133.699       96.427      110.359        0.231        0.017       64.505        8.698        0.018      334.105        3.858      864.326
11/19/2014  01:05:00      -57.772      -24.167      -13.496       13.767       11.662        6.761      189.525      136.004       45.708        0.224        0.019       62.624        4.150        0.004      334.049        3.765      864.326
11/19/2014  01:06:00      -72.365      -37.803       -3.770       13.809       10.700        8.378      190.688      114.492       70.188        0.353        0.019       81.644        7.656        0.009      334.001        3.687      864.328
11/19/2014  01:07:00      -59.269      -24.157       -6.394       11.616       13.411        7.476      134.920      179.853       55.885        0.225        0.019       64.003        2.888        0.002      334.018        3.714      864.320
11/19/2014  01:08:00      -50.142       -9.738       -7.375        9.464        7.970        5.042       89.569       63.518       25.418        0.142        0.009       51.079        2.262        0.002      334.107        3.859      864.306
11/19/2014  01:09:00      -49.098      -20.444       -7.967       12.196        6.980        4.965      148.747       48.714       24.646        0.156        0.011       53.184        2.982        0.003      334.181        3.984      864.301
11/19/2014  01:10:00      -56.876      -35.373       -2.518       23.882       12.504       12.100      570.345      156.338      146.414        0.268        0.044       66.978       10.390        0.024      334.097        3.845      864.317
11/19/2014  01:11:00      -13.206      -24.046       10.301       36.138       25.035       19.265     1305.971      626.771      371.159        0.158        0.115       27.434       20.604        0.564      334.028        3.731      864.337
11/19/2014  01:12:00      -63.733      -56.286        5.360       36.077       29.062       22.801     1301.540      844.585      519.901        0.496        0.133       85.029       16.140        0.036      334.036        3.745      864.339
11/19/2014  01:13:00      -45.414      -19.192        1.911       28.064       25.467       16.935      787.576      648.584      286.801        0.208        0.086       49.303       15.512        0.099      334.007        3.697      864.326
11/19/2014  01:14:00      -10.896        2.362        2.287       27.238       17.825        9.995      741.933      317.716       99.895        0.064        0.058       11.149        8.660        0.603      334.081        3.818      864.304
11/19/2014  01:15:00      -61.752       -3.841       -1.654       15.954       14.414       15.458      254.541      207.778      238.952        0.227        0.035       61.872       12.021        0.038      334.039        3.749      864.283
11/19/2014  01:16:00      -80.369      -64.685       -1.965       22.754       22.055       13.259      517.730      486.425      175.811        0.591        0.059      103.167        7.883        0.006      334.008        3.698      864.271
11/19/2014  01:17:00      -36.376      -34.701        5.578       39.587       35.590       18.805     1567.150     1266.668      353.647        0.287        0.159       50.274       22.506        0.200      333.999        3.683      864.265
11/19/2014  01:18:00      -51.452      -41.873        0.057       27.645       23.954       15.710      764.255      573.793      246.813        0.299        0.079       66.337       11.538        0.030      333.950        3.603      864.250
11/19/2014  01:19:00      -42.735      -18.282        1.605       23.188       16.304       11.086      537.694      265.824      122.908        0.154        0.046       46.481        8.287        0.032      333.926        3.562      864.204
11/19/2014  01:20:00      -67.882      -17.310       -5.521       11.787       12.302        8.287      138.945      151.333       68.679        0.265        0.018       70.054        4.628        0.004      333.931        3.571      864.152
11/19/2014  01:21:00     -103.051      -32.554      -14.012       17.018       12.035        9.444      289.626      144.842       89.181        0.620        0.026      108.071        6.082        0.003      333.846        3.431      864.144
11/19/2014  01:22:00     -129.937      -61.946       -7.743       23.601       22.691       23.632      556.998      514.868      558.452        1.121        0.082      143.948       15.643        0.012      333.773        3.307      864.173
11/19/2014  01:23:00     -106.561      -57.419       -2.062       35.035       28.594       20.279     1227.425      817.598      411.237        0.856        0.123      121.046       15.052        0.015      333.865        3.460      864.206
11/19/2014  01:24:00      -93.113      -39.998       -4.831       28.918       21.404       16.011      836.260      458.112      256.351        0.592        0.078      101.340        7.722        0.006      333.901        3.521      864.200
11/19/2014  01:25:00      -75.121      -11.106       -4.690       27.664       26.318       14.707      765.290      692.624      216.301        0.373        0.084       75.938       13.182        0.030      333.883        3.490      864.187
11/19/2014  01:26:00     -108.827      -51.331       -4.005       22.690       22.222       17.314      514.829      493.799      299.769        0.790        0.065      120.325       13.903        0.013      333.857        3.447      864.201
11/19/2014  01:27:00     -116.532      -72.838        0.577       41.103       26.749       23.129     1689.488      715.517      534.966        1.091        0.147      137.423       20.549        0.022      333.902        3.522      864.209
11/19/2014  01:28:00     -116.657      -46.453       -2.357       38.793       23.061       17.942     1504.893      531.793      321.920        0.906        0.118      125.566       15.870        0.016      333.859        3.449      864.203
11/19/2014  01:29:00     -110.357      -33.035        1.493       50.094       28.518       23.053     2509.433      813.268      531.456        0.856        0.193      115.195       27.221        0.056      333.825        3.394      864.218
11/19/2014  01:30:00      -90.169      -24.701       -6.174       22.610       25.555       13.550      511.201      653.041      183.603        0.506        0.067       93.491       12.141        0.017      333.904        3.526      864.227
11/19/2014  01:31:00      -37.133      -18.263        3.944       26.412       15.225       13.891      697.616      231.808      192.966        0.142        0.056       41.382       15.267        0.136      333.884        3.491      864.227
11/19/2014  01:32:00      -61.410      -16.184       -7.054       12.340       10.919        9.124      152.269      119.229       83.250        0.222        0.018       63.507        6.909        0.012      333.878        3.481      864.221
11/19/2014  01:33:00      -13.334      -32.240        4.870       20.878       19.315       12.343      435.906      373.085      152.348        0.110        0.048       34.888        9.925        0.081      333.946        3.595      864.209
11/19/2014  01:34:00      -61.519      -50.071       -3.108       23.137       19.667       12.975      535.318      386.792      168.348        0.370        0.055       79.321       11.760        0.022      333.952        3.607      864.185
11/19/2014  01:35:00      -93.988      -30.490      -10.003       20.118       12.260        9.115      404.729      150.316       83.087        0.525        0.032       98.810        5.406        0.003      333.888        3.498      864.162
11/19/2014  01:36:00      -94.585      -48.651        7.774       38.479       26.391       17.951     1480.646      696.493      322.237        0.694        0.125      106.364       17.210        0.026      333.820        3.385      864.192
11/19/2014  01:37:00      -85.758      -47.165        2.002       40.695       26.819       19.011     1656.055      719.258      361.432        0.616        0.137       97.872       12.685        0.017      333.793        3.342      864.243
11/19/2014  01:38:00     -104.177      -42.147        1.467       31.386       24.872       15.404      985.088      618.598      237.294        0.724        0.092      112.379       11.012        0.010      333.856        3.444      864.242
11/19/2014  01:39:00      -91.788       -0.089      -12.032       29.004       26.109       15.560      841.218      681.656      242.124        0.517        0.088       91.788       13.956        0.023      333.946        3.594      864.180
11/19/2014  01:40:00      -84.040       -6.049       -7.372       35.348       30.909       21.787     1249.506      955.370      474.668        0.492        0.134       84.258       21.019        0.062      334.140        3.915      864.132
11/19/2014  01:41:00      -88.363      -33.197       -2.165       31.342       23.420       14.819      982.341      548.493      219.595        0.533        0.088       94.393        9.641        0.010      333.911        3.536      864.113
11/19/2014  01:42:00      -68.584      -34.816        1.251       26.952       25.537       12.774      726.387      652.134      163.167        0.373        0.077       76.915       11.948        0.024      333.889        3.500      864.095
11/19/2014  01:43:00       -9.524        2.116        5.970       15.193        9.084        8.739      230.817       82.511       76.376        0.026        0.019        9.756        8.134        0.695      333.851        3.439      864.040
11/19/2014  01:44:00       16.559       42.375       11.061       16.451       20.336       15.749      270.641      413.549      248.027        0.156        0.047       45.495       15.184        0.111      333.900        3.519      863.995
11/19/2014  01:45:00       10.185       35.503        1.291       13.751       10.871       11.027      189.101      118.171      121.585        0.090        0.021       36.935        8.747        0.056      333.897        3.513      863.998
11/19/2014  01:46:00       -6.496       21.984       -8.674        8.578       18.249        4.829       73.579      333.036       23.323        0.052        0.021       22.923        5.666        0.061      333.938        3.582      864.043
11/19/2014  01:47:00      -79.691       -8.810      -11.844       37.840       12.523        9.726     1431.877      156.824       94.596        0.413        0.084       80.177       13.380        0.028      333.828        3.398      864.109
11/19/2014  01:48:00     -130.127      -49.123       -8.533       18.581       26.327       11.458      345.247      693.091      131.287        1.029        0.058      139.090       11.652        0.007      333.800        3.353      864.173
11/19/2014  01:49:00     -168.506      -60.725       -7.690       36.632       32.045       23.839     1341.919     1026.905      568.316        1.754        0.147      179.114       20.008        0.012      333.704        3.192      864.218
11/19/2014  01:50:00     -148.901      -51.164       -5.111       43.987       32.446       25.890     1934.870     1052.724      670.278        1.424        0.183      157.446       23.985        0.023      333.656        3.113      864.256
11/19/2014  01:51:00     -160.527      -45.684       -2.817       31.727       34.576       21.502     1006.581     1195.511      462.349        1.526        0.133      166.901       15.665        0.009      333.760        3.286      864.284
11/19/2014  01:52:00     -131.692      -19.203       -7.616       35.056       35.379       21.656     1228.928     1251.667      468.975        1.036        0.147      133.085       17.274        0.017      333.748        3.267      864.298
11/19/2014  01:53:00     -106.479      -34.902       -6.524       27.271       40.558       20.957      743.697     1644.933      439.177        0.771        0.141      112.053       15.234        0.018      333.757        3.281      864.307
11/19/2014  01:54:00     -111.610      -18.034       -7.186       28.010       23.432       17.811      784.559      549.070      317.229        0.724        0.083      113.058       11.041        0.010      333.693        3.175      864.319
11/19/2014  01:55:00     -135.266       -3.821       -8.655       30.484       21.422       20.796      929.266      458.892      432.479        1.010        0.091      135.320       15.210        0.013      333.784        3.326      864.323
11/19/2014  01:56:00      -93.185      -18.648       -8.203       18.770       26.879       15.391      352.323      722.475      236.887        0.520        0.066       95.033       11.280        0.014      333.729        3.235      864.304
11/19/2014  01:57:00      -81.823       20.127       -4.790       27.995       20.933       18.239      783.717      438.210      332.665        0.434        0.078       84.262       14.926        0.031      333.853        3.439      864.275
11/19/2014  01:58:00      -61.308       29.807        3.023       29.275       26.194       19.054      857.019      686.151      363.047        0.328        0.095       68.170        9.532        0.020      334.019        3.716      864.242
11/19/2014  01:59:00      -57.560      -12.318       -4.852       20.896       31.729       15.117      436.661     1006.736      228.515        0.258        0.084       58.863       13.250        0.051      333.939        3.583      864.216
11/19/2014  02:00:00      -61.574      -32.030      -10.124       45.059       17.152       18.467     2030.327      294.199      341.037        0.379        0.133       69.407       20.652        0.089      333.801        3.353      864.211
11/19/2014  02:01:00       -0.378       -8.995        0.671       23.735       17.158       13.910      563.366      294.389      193.493        0.057        0.053        9.003        6.776        0.566      333.744        3.259      864.212
11/19/2014  02:02:00       12.981       -5.716        4.843       18.893       17.646       20.281      356.937      311.376      411.316        0.065        0.054       14.184       12.623        0.792      333.743        3.258      864.207
11/19/2014  02:03:00      -20.646      -13.584        1.360       16.164       11.512       10.429      261.289      132.522      108.773        0.056        0.025       24.714        7.920        0.103      333.707        3.198      864.189
11/19/2014  02:04:00      -56.198      -14.647       -6.207       28.199       13.330        8.954      795.167      177.691       80.174        0.223        0.053       58.075        4.473        0.006      333.750        3.270      864.160
11/19/2014  02:05:00      -62.292       -6.083      -13.276       18.061       14.140        8.589      326.193      199.930       73.773        0.235        0.030       62.588        3.054        0.002      333.738        3.252      864.132
11/19/2014  02:06:00      -64.656      -22.194      -17.251       20.470       23.023       11.296      419.034      530.080      127.610        0.302        0.054       68.360        8.762        0.016      333.737        3.248      864.105
11/19/2014  02:07:00      -19.866       -7.947       -9.027       22.268       19.226       11.554      495.861      369.646      133.494        0.077        0.050       21.396        9.334        0.190      333.664        3.128      864.087
11/19/2014  02:08:00       16.643        6.845        9.085       16.971       12.858        9.755      288.029      165.321       95.168        0.048        0.027       17.996        3.851        0.046      333.734        3.245      864.069
11/19/2014  02:09:00       46.559       25.254        6.762        9.108        9.654        9.086       82.957       93.203       82.552        0.155        0.013       52.967        2.940        0.003      333.847        3.430      864.077
11/19/2014  02:10:00       51.898       32.022       17.317       17.780       18.712       20.649      316.122      350.120      426.380        0.256        0.055       60.983       16.920        0.077      333.815        3.377      864.094
11/19/2014  02:11:00       13.329       16.379        1.504       20.314        8.734        4.963      412.654       76.287       24.628        0.048        0.026       21.117        5.370        0.065      333.877        3.479      864.096
11/19/2014  02:12:00       -8.122       23.406       -3.543        8.988        7.668        6.761       80.787       58.799       45.713        0.041        0.009       24.775        5.576        0.051      334.017        3.713      864.075
11/19/2014  02:13:00      -73.522       15.598       -6.432       24.486       22.227       12.350      599.560      494.025      152.516        0.347        0.062       75.158        8.642        0.013      333.904        3.525      864.047
11/19/2014  02:14:00      -45.586       -6.982       -2.523       37.779       25.548       16.163     1427.224      652.689      261.247        0.224        0.117       46.118       17.696        0.147      333.761        3.287      864.025
11/19/2014  02:15:00      -59.780       -2.267      -11.607       20.402       25.332       11.263      416.260      641.693      126.847        0.245        0.059       59.823        6.669        0.012      333.702        3.192      864.025
11/19/2014  02:16:00      -44.781       -6.389       -5.114       22.869       19.757       15.261      522.971      390.350      232.901        0.161        0.057       45.234       12.937        0.082      333.624        3.062      864.043
11/19/2014  02:17:00      -42.923      -15.957       -6.421       14.710       16.948       10.740      216.373      287.225      115.352        0.138        0.031       45.793        5.573        0.015      333.601        3.022      864.056
11/19/2014  02:18:00      -36.133      -21.073       -2.792       14.334       13.215       12.969      205.451      174.645      168.202        0.115        0.027       41.829        8.340        0.040      333.621        3.055      864.060
11/19/2014  02:19:00      -77.465      -27.415      -11.800       25.509       16.983       11.046      650.684      288.406      122.018        0.398        0.053       82.173       10.938        0.018      333.538        2.917      864.062
11/19/2014  02:20:00      -82.553      -20.661       -7.437       32.059       25.383       16.614     1027.752      644.296      276.036        0.462        0.097       85.099       14.514        0.029      333.476        2.814      864.047
11/19/2014  02:21:00      -80.230        4.444       -3.936       33.109       26.221       17.034     1096.210      687.560      290.152        0.427        0.104       80.353       14.663        0.033      333.483        2.826      864.002
11/19/2014  02:22:00      -59.620       26.554      -11.624       25.175       26.472       18.138      633.770      700.780      328.987        0.303        0.083       65.266       13.355        0.042      333.764        3.292      863.940
11/19/2014  02:23:00      -50.322       58.527      -12.902       28.262       19.870       14.662      798.752      394.828      214.961        0.377        0.070       77.186       11.561        0.022      334.157        3.946      863.890
11/19/2014  02:24:00       -3.035       51.955       -7.030       14.588       10.450        6.388      212.819      109.210       40.805        0.156        0.018       52.044        6.098        0.014      334.240        4.084      863.877
11/19/2014  02:25:00        6.647       49.158       -3.607       12.637       12.014        5.687      159.682      144.324       32.346        0.140        0.017       49.605        6.217        0.016      334.411        4.366      863.888
11/19/2014  02:26:00      -19.120        9.859       -5.040       15.950       18.489        8.357      254.397      341.842       69.834        0.058        0.033       21.512       10.773        0.251      334.181        3.984      863.890
11/19/2014  02:27:00      -56.774      -19.090       -9.959        6.377        7.247        5.715       40.670       52.513       32.661        0.191        0.006       59.897        2.341        0.002      333.698        3.183      863.889
11/19/2014  02:28:00      -45.870      -34.373       -5.329       15.055       18.595       10.142      226.650      345.786      102.856        0.199        0.034       57.319        6.273        0.012      333.601        3.022      863.876
11/19/2014  02:29:00      -37.442      -12.407       -1.583       19.404       10.322       11.723      376.520      106.541      137.429        0.109        0.031       39.444       11.525        0.085      333.568        2.968      863.853
11/19/2014  02:30:00      -17.785      -23.461       -9.329       18.432        8.786        6.008      339.740       77.188       36.092        0.070        0.023       29.440        4.779        0.026      333.730        3.237      863.831
11/19/2014  02:31:00        6.069       -5.839       -0.618        9.718        9.393       10.597       94.444       88.227      112.288        0.018        0.015        8.422        5.088        0.365      333.993        3.672      863.831
11/19/2014  02:32:00        2.462       17.339        0.130        5.666        8.583        4.561       32.104       73.664       20.800        0.022        0.006       17.513        2.979        0.029      334.159        3.951      863.835
11/19/2014  02:33:00        2.933        7.882       -0.370        3.535        5.231        4.257       12.495       27.366       18.126        0.006        0.003        8.410        2.965        0.124      334.195        4.006      863.841
11/19/2014  02:34:00      -14.958        8.960       -0.528       14.227       11.118        3.928      202.414      123.610       15.428        0.032        0.017       17.436        3.975        0.052      334.122        3.887      863.846
11/19/2014  02:35:00      -66.947      -18.460      -10.016       14.827        8.479        5.983      219.854       71.893       35.791        0.263        0.016       69.445        5.083        0.005      333.612        3.042      863.868
11/19/2014  02:36:00     -142.065      -35.898      -18.123       20.893       23.731       14.920      436.521      563.143      222.617        1.151        0.061      146.530        9.993        0.005      333.448        2.769      863.886
11/19/2014  02:37:00     -140.453      -34.528      -11.144       43.525       32.453       24.275     1894.398     1053.203      589.258        1.229        0.177      144.635       24.956        0.030      333.416        2.716      863.893
11/19/2014  02:38:00     -128.486       -5.627      -10.534       40.483       31.081       19.127     1638.852      966.046      365.858        0.981        0.149      128.609       17.981        0.020      333.446        2.765      863.882
11/19/2014  02:39:00      -97.399       -8.686       -7.390       35.653       29.506       21.430     1271.123      870.621      459.238        0.611        0.130       97.786       20.239        0.043      333.589        3.001      863.848
11/19/2014  02:40:00      -57.094       15.798        0.837       35.059       26.074       19.027     1229.117      679.836      362.034        0.289        0.114       59.240        6.447        0.012      333.863        3.459      863.814
11/19/2014  02:41:00     -105.800       24.654       -8.590       33.924       28.019       20.063     1150.831      785.037      402.511        0.711        0.117      108.635       17.052        0.025      333.949        3.599      863.809
11/19/2014  02:42:00      -62.262      -39.544       -8.862       27.062       21.803       18.101      732.356      475.389      327.641        0.353        0.077       73.758       14.329        0.038      333.620        3.054      863.831
11/19/2014  02:43:00      -31.482      -35.126       -8.524       41.631       21.222       16.862     1733.160      450.386      284.329        0.238        0.123       47.170       11.980        0.065      333.633        3.076      863.858
11/19/2014  02:44:00      -94.272      -23.003       -4.799       30.978       26.173       16.958      959.611      685.043      287.570        0.569        0.097       97.038       17.141        0.031      333.520        2.889      863.877
11/19/2014  02:45:00     -104.196       -3.586      -13.981       21.581       13.600       13.496      465.749      184.967      182.132        0.595        0.042      104.258        9.898        0.009      333.521        2.890      863.884
11/19/2014  02:46:00      -91.999      -26.422      -10.787        8.558        7.912        7.840       73.247       62.599       61.458        0.474        0.010       95.718        4.234        0.002      333.508        2.867      863.870
11/19/2014  02:47:00      -76.683      -35.472       -7.484       21.019       11.601        9.014      441.812      134.574       81.256        0.393        0.033       84.490       10.035        0.014      333.587        2.999      863.874
11/19/2014  02:48:00      -59.848      -35.666       -0.346       18.647       20.727       12.803      347.722      429.596      163.930        0.290        0.047       69.669       10.408        0.022      333.619        3.051      863.902
11/19/2014  02:49:00      -74.646      -58.109       -4.887       23.496       23.332       16.373      552.082      544.364      268.079        0.517        0.068       94.598       12.237        0.017      333.669        3.136      863.941
11/19/2014  02:50:00     -105.994      -44.181       -3.002       20.205       23.083       12.097      408.239      532.805      146.332        0.714        0.054      114.834        9.952        0.008      333.695        3.178      863.945
11/19/2014  02:51:00      -70.769      -53.093        1.556       42.687       29.546       23.911     1822.138      872.977      571.744        0.555        0.163       88.471       18.103        0.042      333.633        3.074      863.908
11/19/2014  02:52:00     -127.110      -58.150       -2.975       26.394       23.171       12.810      696.662      536.907      164.090        1.047        0.070      139.780        4.216        0.001      333.567        2.967      863.873
11/19/2014  02:53:00     -107.700      -46.296       -2.924       22.785       21.025       13.089      519.172      442.053      171.327        0.744        0.057      117.229       12.569        0.011      333.560        2.954      863.847
11/19/2014  02:54:00      -83.016      -20.016       -9.950       14.225       10.473        5.766      202.338      109.690       33.241        0.387        0.017       85.395        4.674        0.003      333.583        2.991      863.816
11/19/2014  02:55:00      -99.224       12.513       -7.762       31.820       21.867       12.277     1012.502      478.151      150.720        0.585        0.082      100.010       14.329        0.021      333.712        3.205      863.796
11/19/2014  02:56:00      -91.888       24.390      -10.287       23.481       23.845       13.953      551.343      568.585      194.686        0.523        0.066       95.069       10.255        0.012      333.781        3.322      863.795
11/19/2014  02:57:00      -12.071      -24.025        3.716       35.931       17.718       12.801     1291.041      313.924      163.856        0.125        0.088       26.886       10.941        0.166      333.755        3.278      863.804
11/19/2014  02:58:00      -10.470      -12.473       10.001       30.322       15.019       15.073      919.418      225.578      227.186        0.087        0.069       16.285       16.968        1.086      333.731        3.237      863.810
11/19/2014  02:59:00      -11.783       -4.480        5.046       17.536       11.620        8.428      307.508      135.033       71.024        0.035        0.026       12.606       10.912        0.749      333.645        3.096      863.820
11/19/2014  03:00:00        5.886       -0.778        2.551        6.013        5.553        8.281       36.161       30.836       68.574        0.009        0.007        5.937        3.707        0.390      333.673        3.143      863.833
11/19/2014  03:01:00      -17.395        0.739       -4.900       12.446        6.672        4.182      154.892       44.515       17.492        0.027        0.011       17.411        3.697        0.045      333.700        3.187      863.838
11/19/2014  03:02:00      -60.170       -1.297       -9.154        9.962        5.667        5.632       99.251       32.116       31.722        0.193        0.008       60.184        4.030        0.004      333.783        3.325      863.808
11/19/2014  03:03:00      -71.092      -14.659       -8.350       12.513       14.283        9.455      156.566      204.018       89.406        0.289        0.022       72.588        3.438        0.002      333.749        3.268      863.754
11/19/2014  03:04:00      -63.217       25.499        0.031       28.584       16.037       18.892      817.049      257.172      356.907        0.304        0.072       68.166       13.218        0.038      334.109        3.865      863.702
11/19/2014  03:05:00      -60.031       27.856        0.078       22.880       20.582       19.877      523.489      423.618      395.078        0.286        0.067       66.179       13.360        0.041      334.224        4.056      863.673
11/19/2014  03:06:00      -50.136       12.330       -7.904       18.818       18.899       14.126      354.101      357.182      199.550        0.182        0.046       51.630        9.694        0.035      334.220        4.049      863.666
11/19/2014  03:07:00      -20.620       10.862        3.603       16.749       18.283       10.118      280.525      334.274      102.381        0.064        0.036       23.306        6.943        0.089      333.997        3.679      863.643
11/19/2014  03:08:00      -20.519      -21.886       -4.880       19.561       21.040       11.675      382.629      442.700      136.305        0.094        0.048       30.001       11.399        0.144      333.957        3.613      863.618
11/19/2014  03:09:00      -47.555      -24.002       -8.132       22.476       13.255        8.035      505.190      175.694       64.568        0.182        0.037       53.269        5.998        0.013      333.687        3.166      863.592
11/19/2014  03:10:00      -94.966      -28.377      -17.847       19.151       17.187       12.359      366.756      295.389      152.733        0.548        0.041       99.115        6.934        0.005      333.539        2.919      863.599
11/19/2014  03:11:00      -62.893      -28.637       -6.315       24.600       22.565       18.705      605.171      509.175      349.858        0.314        0.073       69.105       13.530        0.038      333.442        2.758      863.632
11/19/2014  03:12:00      -22.458      -24.115       -1.076       14.065       25.478       15.323      197.820      649.153      234.803        0.108        0.054       32.953       11.163        0.115      333.536        2.916      863.667
11/19/2014  03:13:00       -1.008       14.225       26.812       14.608       23.376       26.799      213.397      546.440      718.161        0.120        0.074       14.261       21.008        2.170      333.694        3.177      863.677
11/19/2014  03:14:00        2.968       23.528       41.098       18.146       16.149       13.560      329.282      260.803      183.868        0.151        0.039       23.715        4.794        0.041      333.830        3.403      863.655
11/19/2014  03:15:00       -4.677       17.839       31.224       10.395       14.779       15.546      108.061      218.424      241.676        0.094        0.028       18.442        7.101        0.148      333.861        3.453      863.608
11/19/2014  03:16:00        5.291        6.239       11.433        9.580        8.229        9.817       91.779       67.718       96.364        0.023        0.013        8.180        8.302        1.030      333.879        3.486      863.573
11/19/2014  03:17:00       33.170       20.494        6.692       12.596       12.629       10.557      158.658      159.494      111.448        0.100        0.021       38.991        7.127        0.033      333.918        3.549      863.561
11/19/2014  03:18:00       52.708       50.814       28.145       14.216       19.152       19.418      202.081      366.800      377.063        0.355        0.047       73.213       12.746        0.030      333.860        3.452      863.556
11/19/2014  03:19:00       38.414       84.272       62.554       37.796       29.315       25.409     1428.555      859.366      645.634        0.771        0.147       92.614       16.412        0.031      333.829        3.401      863.562
11/19/2014  03:20:00       50.912       74.788       63.914       44.306       27.516       27.535     1963.017      757.118      758.203        0.787        0.174       90.473       24.027        0.071      333.799        3.351      863.565
11/19/2014  03:21:00       67.939       71.620       60.810       30.469       21.262       25.612      928.390      452.076      655.978        0.774        0.102       98.717       16.789        0.029      333.763        3.292      863.571
11/19/2014  03:22:00       38.723       47.940       49.650       39.325       36.109       20.593     1546.419     1303.827      424.068        0.477        0.164       61.625       13.927        0.051      333.777        3.314      863.571
11/19/2014  03:23:00       -0.787       -7.103       29.326       11.292       25.243       16.581      127.512      637.203      274.932        0.098        0.052        7.147       12.926        3.272      333.845        3.428      863.572
11/19/2014  03:24:00      -18.180      -19.923       -3.589       19.429       12.487       10.943      377.468      155.933      119.749        0.070        0.033       26.971        5.826        0.047      333.866        3.462      863.580
11/19/2014  03:25:00      -56.123       -8.860       -8.288       17.610       15.687        7.782      310.124      246.082       60.564        0.196        0.031       56.818        5.984        0.011      333.868        3.467      863.568
11/19/2014  03:26:00      -40.339        3.754        1.318       28.531       23.160       15.351      814.001      536.375      235.649        0.161        0.079       40.513       13.136        0.105      334.139        3.915      863.540
11/19/2014  03:27:00      -41.099       -7.120        4.104       34.190       31.192       18.705     1168.978      972.925      349.869        0.212        0.125       41.711       16.644        0.159      333.997        3.679      863.532
11/19/2014  03:28:00      -63.213      -18.549       -2.194       22.994       18.701       13.188      528.711      349.740      173.920        0.270        0.053       65.878       10.296        0.024      333.844        3.424      863.544
11/19/2014  03:29:00      -51.161      -40.377        0.489       29.792       22.875       17.780      887.581      523.268      316.143        0.299        0.086       65.175       15.751        0.058      333.896        3.512      863.545
11/19/2014  03:30:00      -39.628       -0.404       -0.787       43.064       21.449       17.093     1854.484      460.068      292.178        0.209        0.130       39.630       20.567        0.269      334.004        3.692      863.533
11/19/2014  03:31:00      -24.797      -19.283        4.070       22.779       20.317       13.954      518.890      412.799      194.701        0.106        0.056       31.412       13.380        0.181      333.875        3.477      863.538
11/19/2014  03:32:00      -21.410      -28.857       -5.009       23.044       12.115       13.744      531.046      146.781      188.897        0.109        0.043       35.932       13.292        0.137      333.839        3.416      863.552
11/19/2014  03:33:00      -38.217      -13.231       -2.996       27.920       11.921       11.128      779.525      142.118      123.833        0.134        0.052       40.443        5.590        0.019      333.817        3.382      863.575
11/19/2014  03:34:00      -79.335      -48.228        4.314       40.206       33.446       20.707     1616.501     1118.654      428.778        0.590        0.158       92.844       22.671        0.060      333.783        3.325      863.565
11/19/2014  03:35:00     -124.707      -73.895       -2.213       51.310       33.750       24.179     2632.767     1139.035      584.636        1.269        0.218      144.956       24.558        0.029      333.766        3.295      863.521
11/19/2014  03:36:00      -95.546      -33.689        1.254       48.944       38.944       24.386     2395.512     1516.649      594.689        0.739        0.225      101.311       24.701        0.059      333.688        3.166      863.474
11/19/2014  03:37:00     -145.410      -58.835      -13.376       29.037       32.439       18.938      843.143     1052.293      358.632        1.352        0.113      156.862       14.563        0.009      333.603        3.026      863.457
11/19/2014  03:38:00      -89.129       -6.696       -5.156       29.689       31.362       23.728      881.429      983.558      563.023        0.522        0.121       89.380       18.511        0.043      333.640        3.087      863.476
11/19/2014  03:39:00     -104.398        9.253       -8.781       29.317       21.521       16.407      859.512      463.161      269.177        0.633        0.080      104.807       13.992        0.018      333.641        3.090      863.513
11/19/2014  03:40:00      -78.519       -2.567       -6.401       35.666       36.659       23.640     1272.057     1343.869      558.848        0.469        0.159       78.561       19.502        0.062      333.662        3.124      863.561
11/19/2014  03:41:00      -41.739      -23.129        6.595       45.446       33.595       26.734     2065.298     1128.626      714.701        0.311        0.195       47.719       30.639        0.412      333.670        3.139      863.609
11/19/2014  03:42:00      -58.695      -34.133       -0.902       41.726       21.230       20.206     1741.044      450.701      408.277        0.360        0.130       67.898       18.966        0.078      333.661        3.124      863.630
11/19/2014  03:43:00      -66.665        6.743       -2.395       41.166       20.926       17.405     1694.668      437.903      302.947        0.346        0.122       67.005       22.381        0.112      333.784        3.326      863.608
11/19/2014  03:44:00      -99.005      -19.247       -8.754       22.045       16.322       12.030      485.973      266.423      144.731        0.557        0.045      100.859       11.828        0.014      333.737        3.247      863.605
11/19/2014  03:45:00      -73.804      -47.906        0.098       35.709       23.404       17.044     1275.156      547.757      290.507        0.493        0.106       87.989       16.704        0.036      333.726        3.231      863.633
11/19/2014  03:46:00      -47.910      -31.384        1.333       30.912       16.146       15.217      955.552      260.700      231.556        0.236        0.072       57.274       12.634        0.049      333.758        3.282      863.668
11/19/2014  03:47:00      -69.139      -23.038       -4.670       30.261       13.622       11.861      915.749      185.553      140.685        0.329        0.062       72.876       14.234        0.038      333.756        3.279      863.666
11/19/2014  03:48:00      -67.581       -5.394       -7.465       17.651       17.494       10.480      311.572      306.045      109.825        0.269        0.036       67.796        7.857        0.013      333.760        3.288      863.636
11/19/2014  03:49:00      -47.187        6.972        0.720       20.197       15.948        9.877      407.935      254.353       97.546        0.152        0.038       47.699        5.909        0.015      334.032        3.739      863.587
11/19/2014  03:50:00      -56.638       44.305        0.042       27.519       42.309       20.386      757.284     1790.070      415.602        0.407        0.148       71.909       19.640        0.075      334.388        4.328      863.535
11/19/2014  03:51:00      -70.923       88.731      -22.164       14.846       22.467       13.953      220.400      504.748      194.682        0.716        0.046      113.593        6.377        0.003      334.014        3.708      863.470
11/19/2014  03:52:00      -38.356       85.801       -5.010       34.070       39.030       23.524     1160.739     1523.344      553.371        0.605        0.162       93.984       22.383        0.057      334.083        3.822      863.418
11/19/2014  03:53:00       51.872       73.866      -14.900       30.153       38.831       21.269      909.197     1507.828      452.371        0.562        0.143       90.261       22.876        0.064      333.813        3.375      863.423
11/19/2014  03:54:00       66.211       33.961       -1.759       27.748       21.674       23.940      769.948      469.772      573.130        0.368        0.091       74.413       15.313        0.042      333.767        3.298      863.440
11/19/2014  03:55:00       60.140       24.667       -4.962       24.792       16.254       15.785      614.625      264.178      249.172        0.269        0.056       65.002        4.678        0.005      333.731        3.237      863.442
11/19/2014  03:56:00       34.469       46.005       -7.009       25.544       20.600       15.670      652.488      424.345      245.544        0.234        0.066       57.486       10.620        0.034      333.723        3.225      863.391
11/19/2014  03:57:00       37.459      114.838      -21.207       18.843       31.402       12.382      355.043      986.086      153.314        0.827        0.075      120.793        8.079        0.004      333.717        3.213      863.304
11/19/2014  03:58:00       25.014      151.978      -23.178       21.575       25.637       19.089      465.476      657.266      364.408        1.287        0.074      154.022       13.918        0.008      333.749        3.267      863.233
11/19/2014  03:59:00       20.746      164.326      -18.285       24.449       30.788       27.197      597.729      947.884      739.687        1.503        0.114      165.631       22.844        0.019      333.674        3.143      863.199
11/19/2014  04:00:00       37.517      147.649      -17.564       34.910       42.916       29.158     1218.731     1841.780      850.199        1.371        0.196      152.341       30.533        0.040      333.642        3.092      863.171
11/19/2014  04:01:00       43.313      118.175      -13.085       36.257       56.768       33.881     1314.584     3222.571     1147.916        1.085        0.284      125.862       33.005        0.069      333.735        3.244      863.126
11/19/2014  04:02:00       23.957      126.932      -14.928       28.811       33.255       24.574      830.080     1105.926      603.858        0.972        0.127      129.173       20.570        0.025      333.790        3.336      863.073
11/19/2014  04:03:00       26.875      158.933      -28.173       33.585       23.976       17.828     1127.975      574.867      317.829        1.440        0.101      161.189       14.324        0.008      333.899        3.517      863.036
11/19/2014  04:04:00       32.318      111.949      -12.483       26.300       45.237       25.844      691.674     2046.358      667.930        0.857        0.170      116.521       26.645        0.052      333.915        3.543      863.017
11/19/2014  04:05:00       58.010       44.382        3.132       27.507       25.165       20.715      756.632      633.252      429.127        0.358        0.091       73.041        9.064        0.015      333.898        3.513      863.021
11/19/2014  04:06:00      109.101       54.309        0.737       29.068       25.572       17.362      844.946      653.919      301.447        0.833        0.090      121.871       10.263        0.007      333.924        3.558      863.032
11/19/2014  04:07:00       92.939       65.633       34.912       36.382       27.709       36.379     1323.661      767.768     1323.460        0.879        0.171      113.778       20.195        0.032      333.928        3.564      863.042
11/19/2014  04:08:00       46.804       59.781       61.141       45.245       35.466       35.126     2047.084     1257.870     1233.856        0.702        0.227       75.923       22.811        0.090      333.918        3.549      863.056
11/19/2014  04:09:00       72.441       42.849       60.039       50.400       43.523       31.491     2540.113     1894.208      991.680        0.806        0.271       84.165       30.945        0.135      333.930        3.569      863.091
11/19/2014  04:10:00       34.347       41.337       58.297       39.809       35.731       27.224     1584.729     1276.698      741.129        0.494        0.180       53.745       22.768        0.179      333.966        3.627      863.134
11/19/2014  04:11:00        4.665       34.093       74.837       31.048       67.388       30.932      963.962     4541.189      956.769        0.662        0.323       34.411       32.956        0.917      333.977        3.648      863.193
11/19/2014  04:12:00       40.216      -27.840       25.750       60.973       78.374       47.358     3717.704     6142.555     2242.737        0.758        0.605       48.912       62.644        1.640      333.959        3.617      863.247
11/19/2014  04:13:00       64.409     -106.887       -6.568       52.686       37.980       26.195     2775.810     1442.514      686.161        1.026        0.245      124.793       22.505        0.033      334.015        3.709      863.276
11/19/2014  04:14:00       10.535      -38.924        8.983       46.964       22.504       20.493     2205.631      506.439      419.964        0.242        0.157       40.324       18.357        0.207      334.150        3.932      863.297
11/19/2014  04:15:00       17.000      -20.502       13.611       36.005       39.299       27.924     1296.359     1544.426      779.773        0.226        0.181       26.633       12.629        0.225      334.089        3.832      863.303
11/19/2014  04:16:00       29.131      -28.763       15.444       41.064       35.286       34.940     1686.273     1245.068     1220.796        0.303        0.208       40.938       31.724        0.600      334.021        3.719      863.305
11/19/2014  04:17:00       34.182       13.052       46.575       33.465       33.750       26.747     1119.888     1139.054      715.401        0.324        0.149       36.589       17.058        0.217      333.972        3.640      863.306
11/19/2014  04:18:00       69.641      -12.081       27.901       55.210       93.048       47.336     3048.123     8657.935     2240.743        0.986        0.697       70.681       62.501        0.782      333.961        3.619      863.315
11/19/2014  04:19:00       33.555      -26.762       52.470       52.614       71.950       42.930     2768.248     5176.791     1842.978        0.719        0.489       42.920       49.790        1.346      333.931        3.570      863.323
11/19/2014  04:20:00       71.902     -152.417      -25.505       44.030       38.564       26.991     1938.646     1487.171      728.514        1.660        0.208      168.526       21.560        0.016      334.059        3.781      863.307
11/19/2014  04:21:00        3.308      -87.971       -6.482       48.557       44.717       29.756     2357.793     1999.641      885.418        0.652        0.262       88.033       25.089        0.081      334.076        3.809      863.282
11/19/2014  04:22:00       -5.050      -38.550        2.538       27.732       53.442       29.516      769.048     2856.005      871.199        0.301        0.225       38.879       23.383        0.362      334.013        3.706      863.268
11/19/2014  04:23:00       30.884      -48.783        7.361       55.173       54.269       34.135     3044.077     2945.114     1165.186        0.527        0.358       57.738       36.090        0.391      333.956        3.612      863.273
11/19/2014  04:24:00       28.885       22.695       55.341       60.905       36.793       31.297     3709.472     1353.714      979.510        0.523        0.302       36.734       35.578        0.938      333.869        3.468      863.278
11/19/2014  04:25:00       23.215      -22.708       18.417       33.733       31.122       29.024     1137.906      968.581      842.401        0.217        0.147       32.474       25.065        0.596      333.872        3.474      863.273
11/19/2014  04:26:00      -34.731        2.628        9.979       24.587       24.393       20.441      604.525      595.028      417.845        0.146        0.081       34.830       17.142        0.242      333.967        3.631      863.266
11/19/2014  04:27:00      -24.895      -15.229        6.023       33.136       25.139       12.949     1097.985      631.992      167.678        0.139        0.095       29.184        8.079        0.077      333.962        3.622      863.299
11/19/2014  04:28:00       -6.701       14.529       14.458       18.677       16.409       15.232      348.815      269.268      232.028        0.066        0.043       16.000       11.613        0.527      333.933        3.573      863.336
11/19/2014  04:29:00       21.715      -23.988       19.030       51.199       62.594       35.528     2621.312     3917.995     1262.265        0.460        0.390       32.357       37.769        1.363      333.952        3.605      863.357
11/19/2014  04:30:00       35.704      -57.709       14.617       38.147       42.834       33.849     1455.178     1834.748     1145.728        0.463        0.222       67.860       32.632        0.231      333.957        3.613      863.356
11/19/2014  04:31:00       -9.224      -23.626        1.844       20.767       33.681       31.447      431.275     1134.406      988.935        0.160        0.128       25.363       15.421        0.370      333.938        3.580      863.340
11/19/2014  04:32:00       -3.142       22.112       -3.474       21.223       39.715       21.845      450.434     1577.268      477.215        0.151        0.125       22.334       12.938        0.336      333.937        3.579      863.335
11/19/2014  04:33:00      -29.863       13.075        4.883       16.484       25.786       20.973      271.714      664.939      439.887        0.123        0.069       32.600       14.542        0.199      333.965        3.627      863.342
11/19/2014  04:34:00       -8.298       10.778        8.907       16.652       10.303        9.776      277.285      106.160       95.578        0.037        0.024       13.602        3.282        0.058      333.935        3.578      863.353
11/19/2014  04:35:00       -3.662        9.819        8.837       11.654       11.484        6.271      135.816      131.876       39.331        0.025        0.015       10.480        4.476        0.182      333.920        3.553      863.363
11/19/2014  04:36:00       16.422       21.249        1.287       11.440       11.679       12.148      130.876      136.392      147.581        0.057        0.021       26.855        9.612        0.128      333.935        3.577      863.365
11/19/2014  04:37:00       20.738       55.155       -6.974       14.082       22.605       14.713      198.300      510.972      216.482        0.222        0.046       58.925       14.573        0.061      333.835        3.411      863.353
11/19/2014  04:38:00       25.977       42.035       -4.067       31.691       28.203       19.822     1004.305      795.434      392.910        0.233        0.110       49.414       18.941        0.147      333.773        3.309      863.329
11/19/2014  04:39:00       60.307       38.879       -2.688       34.947       26.413       20.700     1221.324      697.651      428.505        0.375        0.117       71.753       13.274        0.034      333.713        3.206      863.317
11/19/2014  04:40:00       47.577       28.072       -0.015       21.271       23.897       17.033      452.435      571.080      290.128        0.218        0.066       55.241        5.948        0.012      333.674        3.144      863.306
11/19/2014  04:41:00       47.989       36.345        1.191       27.468       23.329       23.186      754.517      544.260      537.571        0.273        0.092       60.199       13.978        0.054      333.642        3.092      863.299
11/19/2014  04:42:00       20.937       41.594       -3.649       26.122       25.130       18.333      682.378      631.497      336.115        0.192        0.082       46.567       14.447        0.096      333.590        3.006      863.294
11/19/2014  04:43:00       13.200       82.255       -8.464       17.121       41.666       17.479      293.125     1736.037      305.519        0.467        0.117       83.307       22.293        0.072      333.570        2.971      863.289
11/19/2014  04:44:00        3.916       92.810      -14.839       12.600       12.486        8.119      158.751      155.908       65.913        0.461        0.019       92.893        5.961        0.004      333.603        3.025      863.295
11/19/2014  04:45:00        2.995       84.876      -14.396        6.634       13.421        5.992       44.009      180.117       35.904        0.384        0.013       84.929        5.405        0.004      333.614        3.045      863.290
11/19/2014  04:46:00        3.685       75.615      -11.407        6.213       13.044        5.828       38.602      170.156       33.968        0.305        0.012       75.705        3.000        0.002      333.683        3.158      863.275
11/19/2014  04:47:00      -41.891       77.478      -15.632       36.795       19.592       16.118     1353.850      383.846      259.792        0.500        0.100       88.078       18.732        0.045      333.811        3.372      863.254
11/19/2014  04:48:00      -88.131       64.669      -22.767       16.190       26.352       15.629      262.107      694.408      244.281        0.683        0.060      109.312       14.461        0.017      333.817        3.382      863.241
11/19/2014  04:49:00      -99.786       17.917       -7.912       25.629       25.468       17.352      656.839      648.602      301.081        0.597        0.080      101.382       11.578        0.013      333.845        3.427      863.250
11/19/2014  04:50:00      -93.500      -20.558       -6.717       38.983       25.573       19.904     1519.677      653.963      396.154        0.589        0.128       95.734       22.697        0.056      333.676        3.148      863.272
11/19/2014  04:51:00     -104.096       -5.433      -11.210       25.620       16.836       13.439      656.370      283.465      180.615        0.606        0.056      104.237       11.718        0.013      333.602        3.026      863.302
11/19/2014  04:52:00      -81.652        9.408       -8.422       21.168       17.569       15.166      448.068      308.672      230.005        0.391        0.049       82.192       12.196        0.022      333.708        3.199      863.308
11/19/2014  04:53:00      -98.708       -2.715      -15.866       18.378       14.329       12.808      337.759      205.320      164.056        0.535        0.035       98.746       10.489        0.011      333.664        3.126      863.290
11/19/2014  04:54:00      -80.970        0.304       -4.479       30.689       13.543       15.255      941.817      183.409      232.705        0.397        0.068       80.971       18.328        0.051      333.670        3.138      863.268
11/19/2014  04:55:00      -80.664        3.332       -9.320       14.936       18.820       12.692      223.069      354.186      161.087        0.367        0.037       80.733        9.301        0.013      333.752        3.273      863.254
11/19/2014  04:56:00      -64.982      -16.787       -8.133       14.187       12.477        6.479      201.282      155.679       41.979        0.248        0.020       67.115        6.555        0.010      333.774        3.309      863.249
11/19/2014  04:57:00      -20.620      -37.269       12.427       20.676       12.907       12.880      427.486      166.584      165.901        0.136        0.038       42.593       14.057        0.109      333.830        3.404      863.246
11/19/2014  04:58:00      -54.468      -19.988       -0.068       17.698       12.231       10.109      313.204      149.608      102.197        0.197        0.028       58.020        7.967        0.019      333.817        3.382      863.249
11/19/2014  04:59:00      -79.118      -15.755       -3.824       21.775       17.086       13.085      474.171      291.946      171.216        0.373        0.047       80.671       11.233        0.019      333.760        3.286      863.238
11/19/2014  05:00:00      -17.801      -16.203       -4.298       17.996        5.406        5.887      323.869       29.221       34.659        0.049        0.019       24.071        2.407        0.010      333.783        3.328      863.245
11/19/2014  05:01:00        5.351      -10.959       -7.537       16.660       11.595       10.260      277.571      134.437      105.275        0.036        0.026       12.195       11.505        0.890      333.822        3.390      863.251
11/19/2014  05:02:00        0.127       11.541        7.918        7.653       11.234       13.820       58.567      126.196      190.996        0.029        0.019       11.542        8.799        0.581      333.767        3.298      863.262
11/19/2014  05:03:00       14.770       23.235       16.483       23.667       12.495       10.089      560.140      156.114      101.785        0.092        0.041       27.532        3.256        0.014      333.770        3.301      863.263
11/19/2014  05:04:00       16.604       17.306       13.150       18.310       19.733       11.620      335.248      389.374      135.016        0.080        0.043       23.983        7.851        0.107      333.759        3.284      863.266
11/19/2014  05:05:00        6.401       11.099       29.545       14.750       30.462       18.648      217.572      927.922      347.741        0.126        0.075       12.813       17.707        1.910      333.810        3.370      863.286
11/19/2014  05:06:00       21.231      -14.140       16.964       33.767       42.527       25.238     1140.205     1808.549      636.941        0.226        0.179       25.509       32.519        1.625      333.763        3.292      863.300
11/19/2014  05:07:00       -9.394      -31.992        8.465       33.710       22.416       24.143     1136.386      502.479      582.888        0.170        0.111       33.342        5.205        0.024      333.806        3.362      863.303
11/19/2014  05:08:00      -12.398       -4.245       12.210       20.852       19.203       14.111      434.803      368.736      199.130        0.066        0.050       13.105       10.468        0.638      333.892        3.507      863.298
11/19/2014  05:09:00       -3.138        3.439        5.027       19.846       13.760        9.992      393.851      189.336       99.833        0.036        0.034        4.656        8.969        3.712      333.879        3.482      863.276
11/19/2014  05:10:00      -59.815        7.301       -4.137       23.647       22.922       14.940      559.168      525.429      223.196        0.248        0.065       60.259        8.396        0.019      333.730        3.237      863.252
11/19/2014  05:11:00      -53.921       -7.900        2.029       29.118       18.361       17.442      847.843      337.124      304.208        0.223        0.074       54.497       19.551        0.129      333.589        3.002      863.248
11/19/2014  05:12:00      -62.001       -7.438       -0.811       24.194       13.928       11.684      585.340      193.979      136.526        0.241        0.046       62.446       11.091        0.032      333.586        2.998      863.260
11/19/2014  05:13:00      -74.727        9.651       -6.487       22.741       20.795       10.855      517.153      432.423      117.833        0.339        0.053       75.347        8.378        0.012      333.811        3.371      863.260
11/19/2014  05:14:00      -41.116       50.091       -0.821       19.548       21.051       14.209      382.117      443.137      201.906        0.261        0.051       64.805        6.779        0.011      333.905        3.527      863.260
11/19/2014  05:15:00        2.366       14.262       14.130       12.313       25.168       12.413      151.618      633.426      154.094        0.067        0.047       14.457       13.407        0.860      333.756        3.279      863.261
11/19/2014  05:16:00        2.064       33.394       -6.372       14.662       13.666        5.629      214.986      186.748       31.687        0.080        0.022       33.458        3.895        0.014      333.747        3.264      863.280
11/19/2014  05:17:00      -42.125       -9.937       -2.975       24.864       21.985        8.516      618.232      483.321       72.529        0.153        0.059       43.281        5.924        0.019      333.745        3.261      863.288
11/19/2014  05:18:00      -86.648      -29.137       -6.968       16.617       18.163       10.278      276.134      329.901      105.647        0.456        0.036       91.416        6.124        0.004      333.692        3.174      863.275
11/19/2014  05:19:00      -51.709      -40.873       -3.344       31.435       18.146       11.539      988.144      329.274      133.145        0.290        0.073       65.912       11.691        0.031      333.743        3.257      863.254
11/19/2014  05:20:00        3.821      -26.316        0.751       12.286        9.461        9.609      150.949       89.507       92.338        0.052        0.017       26.592        4.976        0.035      333.763        3.291      863.243
11/19/2014  05:21:00      -10.105      -18.073       -8.692        6.568        8.280        5.831       43.142       68.558       34.006        0.032        0.007       20.707        4.258        0.042      333.747        3.267      863.237
11/19/2014  05:22:00      -37.511      -10.144       -4.272        8.683        8.596        5.633       75.390       73.894       31.732        0.085        0.009       38.858        4.915        0.016      333.756        3.281      863.222
11/19/2014  05:23:00      -59.402      -25.704        1.433       16.200       11.233       13.094      262.428      126.180      171.456        0.238        0.028       64.725        6.410        0.010      333.732        3.238      863.216
11/19/2014  05:24:00      -33.026      -23.436       -0.052       20.172       13.842       13.118      406.919      191.597      172.070        0.121        0.039       40.497        7.392        0.033      333.684        3.161      863.227
11/19/2014  05:25:00      -51.914      -18.285        1.917       22.297       19.078       11.249      497.166      363.958      126.541        0.201        0.049       55.040       11.633        0.045      333.646        3.097      863.226
11/19/2014  05:26:00      -43.835       -1.708       -4.207       19.342       14.420        7.935      374.113      207.948       62.970        0.129        0.032       43.868        9.480        0.047      333.693        3.174      863.235
11/19/2014  05:27:00      -45.737       -4.480       -2.948       12.870        8.195       11.062      165.633       67.162      122.364        0.124        0.018       45.956        9.767        0.045      333.707        3.198      863.232
11/19/2014  05:28:00      -48.177        2.684       -8.550        5.946        7.114        5.417       35.358       50.611       29.339        0.126        0.006       48.251        2.101        0.002      333.703        3.191      863.225
11/19/2014  05:29:00      -25.013        3.855       -3.479       15.847        5.770        5.921      251.138       33.287       35.054        0.049        0.016       25.308        5.684        0.050      333.703        3.192      863.223
11/19/2014  05:30:00       -4.577        4.013        2.941        8.178       11.809        4.659       66.880      139.454       21.703        0.014        0.011        6.087        2.405        0.156      333.728        3.234      863.223
11/19/2014  05:31:00      -24.079        1.642        2.000       14.136       12.985       10.580      199.825      168.619      111.929        0.053        0.024       24.135        9.057        0.141      333.691        3.172      863.232
11/19/2014  05:32:00      -56.381       15.255        0.398       21.429       14.671        8.395      459.195      215.251       70.479        0.208        0.037       58.408        8.551        0.021      333.709        3.202      863.233
11/19/2014  05:33:00      -51.148       -2.527       -0.520       21.377       15.539        9.867      456.961      241.451       97.358        0.171        0.040       51.210        9.435        0.034      333.699        3.185      863.235
11/19/2014  05:34:00      -30.712      -32.288       -0.692       16.891       15.359        7.037      285.297      235.884       49.521        0.128        0.029       44.562        4.999        0.013      333.613        3.044      863.265
11/19/2014  05:35:00      -61.751      -34.250       -7.716       15.013       17.646        8.550      225.389      311.364       73.096        0.283        0.030       70.613        5.472        0.006      333.554        2.944      863.284
11/19/2014  05:36:00      -83.471        8.437      -10.397       30.315       19.847       17.106      918.971      393.899      292.631        0.438        0.080       83.896       19.122        0.052      333.543        2.926      863.290
11/19/2014  05:37:00      -81.274        9.728       -7.503       27.521       20.792       16.788      757.407      432.296      281.840        0.411        0.074       81.854       14.564        0.032      333.699        3.184      863.292
11/19/2014  05:38:00      -57.506      -15.126        1.482       27.137       24.638       17.266      736.430      607.018      298.108        0.259        0.082       59.462       16.990        0.082      333.609        3.035      863.307
11/19/2014  05:39:00      -59.438      -10.373       -4.256       19.507       16.534       12.597      380.507      273.375      158.697        0.224        0.041       60.336       10.790        0.032      333.547        2.933      863.332
11/19/2014  05:40:00      -62.129      -25.192       -8.910       16.067       14.048       12.932      258.158      197.337      167.231        0.260        0.031       67.042        6.831        0.010      333.500        2.855      863.355
11/19/2014  05:41:00      -54.294       -7.516       -6.938       31.736       22.840       14.780     1007.197      521.687      218.448        0.240        0.087       54.812       14.570        0.071      333.410        2.705      863.375
11/19/2014  05:42:00      -56.501        5.466       -4.173       25.200       21.225       18.906      635.023      450.503      357.424        0.234        0.072       56.765       15.151        0.071      333.463        2.794      863.389
11/19/2014  05:43:00      -67.351       -0.543       -6.499       26.847       21.283       12.363      720.772      452.986      152.843        0.295        0.066       67.354       12.781        0.036      333.464        2.794      863.401
11/19/2014  05:44:00      -43.021      -27.990       -6.652       11.727       13.541        7.447      137.525      183.370       55.459        0.153        0.019       51.325        4.587        0.008      333.406        2.699      863.424
11/19/2014  05:45:00       -2.024      -19.334       -3.147       16.657        9.608        7.329      277.445       92.308       53.708        0.041        0.021       19.440        5.840        0.090      333.488        2.834      863.450
11/19/2014  05:46:00      -31.050       -9.354       -2.760       14.763        8.430        7.970      217.953       71.061       63.523        0.071        0.018       32.428        5.422        0.028      333.464        2.795      863.457
11/19/2014  05:47:00      -47.360       -1.693       -8.514        8.543        6.902        7.445       72.986       47.633       55.424        0.125        0.009       47.390        5.401        0.013      333.436        2.749      863.462
11/19/2014  05:48:00      -51.436       -9.267       -2.121       16.765       10.945        8.661      281.053      119.804       75.013        0.161        0.024       52.264        8.646        0.027      333.339        2.589      863.466
11/19/2014  05:49:00      -47.654      -14.485       -5.861       20.094       14.602        9.921      403.782      213.212       98.419        0.162        0.036       49.807       11.413        0.053      333.372        2.643      863.453
11/19/2014  05:50:00      -23.332       -6.164       -2.640       30.994       11.999       11.902      960.600      143.974      141.650        0.092        0.062       24.132       16.093        0.445      333.423        2.728      863.445
11/19/2014  05:51:00      -41.269      -22.795       -7.349        9.053       14.128        8.021       81.964      199.601       64.329        0.131        0.017       47.146        5.055        0.011      333.490        2.839      863.437
11/19/2014  05:52:00      -36.045      -21.093       -5.443        6.711        5.796        5.166       45.031       33.591       26.691        0.094        0.005       41.763        1.594        0.001      333.551        2.939      863.430
11/19/2014  05:53:00      -30.358       -7.327       -4.468       11.837        9.979        5.113      140.111       99.578       26.139        0.063        0.013       31.229        6.118        0.038      333.558        2.952      863.424
11/19/2014  05:54:00        2.761        5.668        0.462        9.194        3.754        2.974       84.528       14.092        8.844        0.007        0.005        6.305        3.716        0.347      333.604        3.028      863.412
11/19/2014  05:55:00       17.888       19.644        2.964        6.961        8.487        6.557       48.450       72.029       42.995        0.044        0.008       26.568        3.111        0.014      333.593        3.008      863.389
11/19/2014  05:56:00       26.524       21.366        3.203       15.769       14.452       13.358      248.647      208.847      178.439        0.090        0.032       34.059       10.795        0.100      333.549        2.935      863.369
11/19/2014  05:57:00       29.068       21.181        0.177       14.669       11.257        8.208      215.180      126.715       67.375        0.085        0.020       35.966        6.224        0.030      333.571        2.973      863.357
11/19/2014  05:58:00       20.048       52.252       -7.717       14.422       18.141        8.852      207.991      329.092       78.354        0.190        0.031       55.966        9.920        0.031      333.496        2.849      863.346
11/19/2014  05:59:00       11.961       65.328      -13.711       10.668        7.247        5.031      113.815       52.513       25.309        0.240        0.010       66.414        3.585        0.003      333.546        2.930      863.342
11/19/2014  06:00:00        5.457       35.566       -8.994        5.016        9.309        3.734       25.156       86.658       13.940        0.075        0.006       35.982        3.034        0.007      333.581        2.990      863.346
11/19/2014  06:01:00       -7.221       24.039       -2.993        8.543       12.552        6.880       72.987      157.559       47.332        0.046        0.014       25.100        4.459        0.032      333.626        3.064      863.363
11/19/2014  06:02:00      -17.143        0.479        4.293       18.031        7.000        9.237      325.109       48.999       85.328        0.039        0.023       17.149        7.479        0.190      333.507        2.867      863.359
11/19/2014  06:03:00      -40.828      -16.160       -1.428       24.203       10.996        9.955      585.762      120.903       99.107        0.137        0.040       43.910       11.472        0.068      333.380        2.657      863.355
11/19/2014  06:04:00      -78.928      -30.082        0.348       23.248       16.051       13.750      540.482      257.639      189.069        0.406        0.049       84.466       10.752        0.016      333.348        2.602      863.361
11/19/2014  06:05:00      -41.416       -6.570       -2.398       18.183       13.920       12.115      330.630      193.770      146.781        0.122        0.034       41.934       10.979        0.069      333.328        2.571      863.353
11/19/2014  06:06:00      -23.964        0.161        3.358       13.071       10.453        8.005      170.856      109.265       64.077        0.046        0.017       23.965        7.640        0.102      333.278        2.488      863.334
11/19/2014  06:07:00        1.257       -2.388        0.825        7.450        5.275        5.465       55.506       27.824       29.866        0.006        0.006        2.699        2.704        1.004      333.382        2.660      863.340
11/19/2014  06:08:00       -8.468      -12.956        0.300        9.386       10.749        9.287       88.101      115.532       86.256        0.026        0.014       15.478        6.235        0.162      333.499        2.853      863.373
11/19/2014  06:09:00      -30.333      -13.533       -3.794       28.455       18.073       12.199      809.703      326.644      148.819        0.120        0.064       33.214       13.805        0.173      333.374        2.649      863.386
11/19/2014  06:10:00      -80.402       -8.928       -5.308       24.926       17.782       12.311      621.281      316.203      151.559        0.383        0.054       80.896        9.296        0.013      333.401        2.691      863.366
11/19/2014  06:11:00     -102.276       -8.895       -9.421       18.107       11.911       12.233      327.878      141.865      149.637        0.562        0.031      102.662       10.217        0.010      333.317        2.554      863.336
11/19/2014  06:12:00      -76.717       -8.452       -8.896       17.719       12.963       11.012      313.963      168.029      121.274        0.332        0.030       77.181        9.160        0.014      333.326        2.566      863.306
11/19/2014  06:13:00      -66.691       -9.900      -11.251       25.537        9.594       12.080      652.141       92.045      145.938        0.278        0.045       67.422       13.506        0.040      333.418        2.719      863.288
11/19/2014  06:14:00      -36.269      -22.338       -4.159       15.036       15.704        9.058      226.084      246.620       82.053        0.119        0.028       42.596        6.127        0.021      333.456        2.781      863.277
11/19/2014  06:15:00      -26.768       -8.421        0.266       14.660       13.731        8.905      214.910      188.529       79.299        0.064        0.024       28.061        7.740        0.076      333.482        2.825      863.287
11/19/2014  06:16:00      -45.064      -19.902       -0.417        9.650       10.868        6.871       93.114      118.120       47.215        0.134        0.013       49.263        4.154        0.007      333.489        2.836      863.294
11/19/2014  06:17:00      -71.825      -45.406       -4.967       13.699       12.500        9.571      187.657      156.250       91.608        0.384        0.022       84.973        8.105        0.009      333.448        2.769      863.300
11/19/2014  06:18:00     -101.768      -38.375       -5.359       22.862       18.748       15.497      522.651      351.503      240.162        0.649        0.056      108.763       12.588        0.013      333.319        2.555      863.318
11/19/2014  06:19:00      -93.745      -20.871       -5.549       24.686       23.453       14.168      609.374      550.021      200.733        0.531        0.068       96.040        8.778        0.008      333.287        2.502      863.332
11/19/2014  06:20:00     -109.349       -4.658      -11.637       28.034       20.776       16.435      785.911      431.659      270.114        0.680        0.074      109.449       15.500        0.020      333.276        2.485      863.328
11/19/2014  06:21:00     -110.973       14.382      -11.482       27.768       22.277       21.305      771.052      496.267      453.915        0.719        0.086      111.902       13.643        0.015      333.407        2.702      863.321
11/19/2014  06:22:00     -106.171       23.355      -10.557       18.807       19.490       13.330      353.685      379.877      177.693        0.642        0.046      108.710        4.571        0.002      333.467        2.802      863.318
11/19/2014  06:23:00     -113.292       12.375      -15.338       11.752       17.691        9.593      138.119      312.961       92.030        0.688        0.027      113.965        4.555        0.002      333.374        2.647      863.315
11/19/2014  06:24:00     -101.998       -9.711      -11.588       35.109       25.895       18.075     1232.609      670.542      326.714        0.643        0.111      102.459       18.778        0.034      333.414        2.712      863.314
11/19/2014  06:25:00     -109.154       29.804       -7.436       51.410       31.719       21.340     2643.033     1006.070      455.415        0.848        0.205      113.150       19.808        0.031      333.458        2.785      863.320
11/19/2014  06:26:00     -193.159       32.535      -23.224       33.286       47.313       17.891     1107.953     2238.517      320.081        2.129        0.183      195.880       18.068        0.009      333.214        2.380      863.337
11/19/2014  06:27:00     -134.874        3.103      -19.052       36.747       42.623       22.508     1350.329     1816.751      506.604        1.112        0.184      134.909       15.513        0.013      333.214        2.382      863.343
11/19/2014  06:28:00     -141.252       13.238      -15.351       34.599       34.632       26.331     1197.091     1199.368      693.318        1.173        0.154      141.871       23.205        0.027      333.242        2.426      863.353
11/19/2014  06:29:00      -64.622      -22.439       -1.692       36.523       33.645       16.293     1333.965     1131.961      265.467        0.371        0.137       68.407       14.810        0.047      333.196        2.352      863.362
11/19/2014  06:30:00      -78.874        8.427        0.180       24.489       32.766       13.877      599.727     1073.639      192.583        0.408        0.093       79.323       10.197        0.017      333.425        2.730      863.354
11/19/2014  06:31:00     -107.987       -9.164      -14.296       21.132       16.052       16.828      446.568      257.659      283.191        0.647        0.049      108.375       13.159        0.015      333.247        2.436      863.350
11/19/2014  06:32:00      -94.325      -17.018      -18.423       17.384       18.847       14.388      302.187      355.203      207.029        0.520        0.043       95.848       10.046        0.011      333.270        2.473      863.355
11/19/2014  06:33:00     -104.743       10.934      -13.753       12.090       16.411       12.900      146.162      269.316      166.404        0.593        0.029      105.313        5.090        0.002      333.321        2.559      863.372
11/19/2014  06:34:00      -87.853       -8.093      -12.324       20.216       18.622       11.297      408.674      346.762      127.626        0.441        0.044       88.225        6.815        0.006      333.272        2.476      863.396
11/19/2014  06:35:00      -73.748       -4.890       -9.095       13.355       17.013       13.928      178.365      289.449      193.990        0.310        0.033       73.910        7.254        0.010      333.263        2.463      863.420
11/19/2014  06:36:00      -51.698      -24.248       -6.731       15.423       10.195        7.838      237.873      103.938       61.434        0.185        0.020       57.102        7.081        0.015      333.304        2.530      863.423
11/19/2014  06:37:00      -28.220       -8.844       -3.331       10.193       10.511        6.663      103.892      110.478       44.390        0.057        0.013       29.573        5.210        0.031      333.337        2.586      863.422
11/19/2014  06:38:00      -34.101       -3.246       -5.260        5.930        8.609        5.873       35.170       74.118       34.488        0.067        0.007       34.255        4.347        0.016      333.410        2.705      863.411
11/19/2014  06:39:00      -37.479       -4.615       -4.094        6.686        8.451        8.677       44.707       71.413       75.290        0.082        0.010       37.762        5.790        0.024      333.461        2.790      863.411
11/19/2014  06:40:00      -26.263      -15.471       -6.200        8.735        9.555        4.995       76.297       91.289       24.953        0.058        0.010       30.481        2.473        0.007      333.504        2.863      863.409
11/19/2014  06:41:00       -8.412      -10.899        0.995        5.940        5.549        3.951       35.281       30.795       15.612        0.014        0.004       13.768        1.749        0.016      333.526        2.904      863.406
11/19/2014  06:42:00      -16.500      -12.497       -2.485        5.617        6.065        3.773       31.547       36.783       14.234        0.026        0.004       20.698        2.306        0.012      333.539        2.918      863.404
11/19/2014  06:43:00      -12.261       -7.469       -2.879        5.931        5.038        2.751       35.178       25.381        7.569        0.014        0.003       14.357        2.672        0.035      333.490        2.836      863.413
11/19/2014  06:44:00       -3.046       -5.552        0.110        3.694        3.839        3.131       13.646       14.737        9.804        0.004        0.002        6.332        2.219        0.123      333.475        2.813      863.439
11/19/2014  06:45:00       -0.259       -8.849        6.069        4.993        6.790        5.367       24.932       46.106       28.805        0.011        0.005        8.853        3.734        0.178      333.513        2.876      863.465
11/19/2014  06:46:00       -5.968      -12.854        3.004       11.960        9.867        9.273      143.032       97.363       85.980        0.027        0.016       14.172        7.173        0.256      333.492        2.841      863.487
11/19/2014  06:47:00      -16.309      -21.066        5.940       25.283       16.577       16.537      639.216      274.809      273.463        0.097        0.059       26.642       18.467        0.480      333.239        2.423      863.494
11/19/2014  06:48:00      -32.313      -24.878        7.185       39.681       21.130       13.926     1574.590      446.481      193.944        0.196        0.111       40.780       18.709        0.210      333.258        2.455      863.491
11/19/2014  06:49:00      -32.537      -17.034       -0.574       18.564       14.456        9.339      344.633      208.963       87.216        0.099        0.032       36.727        8.235        0.050      333.254        2.446      863.474
11/19/2014  06:50:00      -16.194        0.345        1.796       17.205        9.425       10.180      296.023       88.835      103.636        0.038        0.024       16.197        9.485        0.343      333.306        2.533      863.453
11/19/2014  06:51:00        8.157        5.187        3.051        9.802        8.719        6.159       96.078       76.028       37.935        0.016        0.011        9.667        4.518        0.218      333.324        2.564      863.431
11/19/2014  06:52:00       20.868       16.656        6.663       10.340        6.331        9.874      106.920       40.087       97.501        0.050        0.012       26.700        6.947        0.068      333.411        2.707      863.425
11/19/2014  06:53:00       28.738       31.113        4.715       11.478       15.802        8.882      131.740      249.696       78.891        0.114        0.023       42.355        9.290        0.048      333.407        2.702      863.421
11/19/2014  06:54:00       32.983       41.318       -4.083       16.584       22.211       15.249      275.018      493.321      232.538        0.191        0.050       52.869       12.961        0.060      333.281        2.492      863.405
11/19/2014  06:55:00       33.087       31.518       -3.433       23.682       16.152       13.106      560.834      260.873      171.775        0.155        0.050       45.696       11.672        0.065      333.249        2.439      863.373
11/19/2014  06:56:00       47.828       45.735       -0.815       17.593       11.915       12.014      309.527      141.958      144.344        0.249        0.030       66.176        9.970        0.023      333.240        2.423      863.366
11/19/2014  06:57:00       65.055       42.150       -1.210       21.020       13.607       12.377      441.820      185.145      153.189        0.340        0.039       77.516        7.258        0.009      333.274        2.480      863.373
11/19/2014  06:58:00       64.834       54.094        1.501       18.124       15.442       12.551      328.468      238.456      157.535        0.393        0.036       84.437        3.324        0.002      333.320        2.557      863.385
11/19/2014  06:59:00       71.452       40.682       16.864       17.697       15.603       14.070      313.173      243.467      197.955        0.390        0.038       82.221       10.518        0.016      333.284        2.497      863.381
11/19/2014  07:00:00       79.274       55.433       11.067       16.296       10.400       11.651      265.553      108.164      135.741        0.499        0.025       96.732        5.961        0.004      333.286        2.500      863.377
11/19/2014  07:01:00       29.166       17.168        8.008       23.598       15.753       13.803      556.859      248.171      190.535        0.110        0.050       33.844        7.099        0.044      333.261        2.459      863.398
11/19/2014  07:02:00        5.846       39.061       -8.367        8.903       12.775        5.525       79.266      163.213       30.528        0.095        0.014       39.496        4.386        0.012      333.235        2.415      863.432
11/19/2014  07:03:00        2.585       14.554       -2.079        6.460        5.012        5.107       41.737       25.119       26.085        0.016        0.005       14.781        4.424        0.090      333.338        2.589      863.464
11/19/2014  07:04:00       15.756       28.524       -0.562        9.914        9.632        7.544       98.296       92.778       56.919        0.066        0.012       32.586        6.691        0.042      333.377        2.651      863.472
11/19/2014  07:05:00       33.179       68.919       -7.074       12.147       17.324       11.221      147.551      300.126      125.908        0.324        0.029       76.489        7.909        0.011      333.348        2.604      863.479
11/19/2014  07:06:00       31.796       73.308       -8.033       22.304       30.052       22.576      497.485      903.100      509.660        0.418        0.096       79.906       20.637        0.067      333.297        2.518      863.489
11/19/2014  07:07:00       32.167       72.348      -10.875       14.578       20.033       14.199      212.528      401.316      201.616        0.360        0.041       79.177        8.662        0.012      333.320        2.557      863.498
11/19/2014  07:08:00       25.731       43.763       -5.999       11.897       12.763        7.007      141.545      162.896       49.101        0.148        0.018       50.767        4.969        0.010      333.332        2.577      863.500
11/19/2014  07:09:00       27.284       39.568       -4.931       12.168        7.397        5.286      148.064       54.711       27.943        0.128        0.012       48.063        5.571        0.013      333.401        2.691      863.499
11/19/2014  07:10:00       23.382       12.228        0.179       14.514        6.689        6.698      210.645       44.749       44.868        0.050        0.015       26.386        5.316        0.041      333.428        2.736      863.495
11/19/2014  07:11:00       10.894       21.930       -5.635        9.233        5.715        6.054       85.250       32.665       36.653        0.039        0.008       24.487        5.825        0.057      333.463        2.795      863.496
11/19/2014  07:12:00       -7.559       18.910       -3.745        5.418        3.986        2.997       29.353       15.891        8.983        0.024        0.003       20.365        2.738        0.018      333.482        2.822      863.499
11/19/2014  07:13:00       -3.934       14.854       -1.521        5.783        8.417        6.149       33.441       70.841       37.807        0.019        0.007       15.366        5.087        0.110      333.488        2.836      863.494
11/19/2014  07:14:00       -3.807        7.957       -0.721        7.927        9.888        5.477       62.836       97.775       29.992        0.013        0.010        8.821        3.480        0.156      333.424        2.729      863.493
11/19/2014  07:15:00        5.697        0.954        3.610        6.674        5.109        6.793       44.538       26.101       46.144        0.008        0.006        5.776        5.106        0.781      333.493        2.844      863.489
11/19/2014  07:16:00       18.614       20.706        9.199       10.015       15.978        7.675      100.306      255.312       58.900        0.064        0.021       27.843        7.876        0.080      333.540        2.921      863.485
11/19/2014  07:17:00       24.341       33.291       -0.317       14.854       14.639       13.994      220.638      214.309      195.836        0.117        0.032       41.240       10.967        0.071      333.421        2.722      863.483
11/19/2014  07:18:00       50.803       48.593        4.551       31.334       17.808       13.356      981.823      317.134      178.386        0.322        0.074       70.301       10.161        0.021      333.352        2.611      863.487
11/19/2014  07:19:00       74.812       48.681        2.201       17.037       16.380       17.250      290.248      268.315      297.557        0.441        0.043       89.257       10.553        0.014      333.332        2.579      863.505
11/19/2014  07:20:00       71.086       42.756       10.274       20.311       13.801       15.987      412.544      190.478      255.577        0.392        0.043       82.954        9.611        0.013      333.341        2.593      863.529
11/19/2014  07:21:00       86.769       46.937       11.932       17.566       16.818       16.715      308.555      282.839      279.393        0.537        0.044       98.650       10.313        0.011      333.300        2.524      863.534
11/19/2014  07:22:00       72.105       48.526       17.735       16.092       13.139        9.956      258.962      172.643       99.130        0.420        0.027       86.913        6.546        0.006      333.272        2.477      863.532
11/19/2014  07:23:00       73.146       39.443       10.352       15.509       12.282       13.621      240.526      150.858      185.529        0.379        0.029       83.103        1.705        0.000      333.318        2.555      863.530
11/19/2014  07:24:00       54.091       22.225        3.567       20.355       19.935       17.256      414.339      397.399      297.767        0.227        0.055       58.479       12.587        0.046      333.315        2.551      863.527
11/19/2014  07:25:00       52.095       20.598       13.412       18.655       12.367       14.676      348.011      152.951      215.370        0.202        0.036       56.019        8.899        0.025      333.295        2.514      863.513
11/19/2014  07:26:00       48.957       28.796        3.508       15.431       13.341       12.567      238.118      177.971      157.933        0.191        0.029       56.798        7.271        0.016      333.262        2.458      863.508
11/19/2014  07:27:00       45.400       41.296       21.242       12.769       10.528       19.926      163.041      110.832      397.056        0.244        0.034       61.372       11.512        0.035      333.295        2.514      863.512
11/19/2014  07:28:00       46.314       40.492       29.093       18.553       17.339       18.307      344.208      300.647      335.138        0.281        0.049       61.519       14.561        0.056      333.352        2.611      863.517
11/19/2014  07:29:00       26.464       39.630       37.881       24.264       17.898       18.225      588.744      320.356      332.144        0.247        0.062       47.654       13.767        0.083      333.379        2.655      863.505
11/19/2014  07:30:00       29.782       13.622       23.555       22.330       51.123       17.123      498.623     2613.533      293.211        0.252        0.170       32.749       20.623        0.397      333.422        2.727      863.484
11/19/2014  07:31:00        4.876      -14.202       15.081       16.012       32.842       16.832      256.373     1078.589      283.318        0.104        0.081       15.016       19.550        1.695      333.455        2.780      863.481
11/19/2014  07:32:00       -1.361      -23.048       16.013       16.639       31.148       15.022      276.865      970.226      225.658        0.113        0.074       23.088       10.109        0.192      333.492        2.840      863.481
11/19/2014  07:33:00       11.088      -16.231        2.778       19.756       19.864       23.499      390.289      394.598      552.187        0.087        0.067       19.657       11.456        0.340      333.506        2.866      863.492
11/19/2014  07:34:00       13.580      -23.655       12.010       17.556       28.707       21.525      308.203      824.111      463.311        0.124        0.080       27.276        7.472        0.075      333.531        2.905      863.495
11/19/2014  07:35:00        3.290        6.125        7.199       14.499       10.225       10.601      210.209      104.545      112.381        0.026        0.021        6.953        9.632        1.919      333.473        2.811      863.467
11/19/2014  07:36:00       10.207       21.088        3.440        9.615        7.692        9.892       92.451       59.174       97.858        0.041        0.012       23.428        2.398        0.010      333.438        2.752      863.437
11/19/2014  07:37:00       12.155       20.212        0.527        9.770        8.198        5.771       95.456       67.213       33.300        0.038        0.010       23.585        2.876        0.015      333.430        2.737      863.414
11/19/2014  07:38:00       28.834       24.766       16.393        6.982        6.395       10.642       48.754       40.890      113.260        0.096        0.010       38.009        6.387        0.028      333.406        2.698      863.392
11/19/2014  07:39:00        7.375       10.437       17.545       14.507       10.094        7.255      210.454      101.882       52.642        0.042        0.018       12.780        5.882        0.212      333.565        2.963      863.394
11/19/2014  07:40:00       -4.378        2.406        8.229        5.402        3.399        4.105       29.178       11.555       16.853        0.008        0.003        4.996        3.210        0.413      333.583        2.993      863.408
11/19/2014  07:41:00       17.908       11.663        8.985       14.702        9.474        8.484      216.161       89.755       71.983        0.046        0.019       21.371        5.192        0.059      333.566        2.965      863.425
11/19/2014  07:42:00       28.215       25.850        8.558       14.414       10.005       11.542      207.755      100.099      133.211        0.099        0.022       38.266        8.106        0.045      333.497        2.850      863.437
11/19/2014  07:43:00       39.643       32.609        7.285       12.408       11.383       10.684      153.953      129.566      114.148        0.154        0.020       51.332        9.321        0.033      333.485        2.831      863.441
11/19/2014  07:44:00       56.395       40.504        0.184       17.566       12.060       11.575      308.580      145.451      133.986        0.270        0.029       69.433       10.516        0.023      333.476        2.816      863.454
11/19/2014  07:45:00       51.177       34.980       16.557       18.221       13.093       15.992      332.018      171.416      255.739        0.244        0.038       61.989        8.986        0.021      333.464        2.796      863.455
11/19/2014  07:46:00       50.077       30.096       -1.229       20.991       16.411       17.201      440.629      269.306      295.865        0.221        0.050       58.425       10.340        0.031      333.458        2.783      863.466
11/19/2014  07:47:00       20.143       26.309        8.118       27.336       19.007       14.515      747.259      361.266      210.700        0.124        0.066       33.135       13.690        0.171      333.465        2.796      863.482
11/19/2014  07:48:00       45.265       27.367        0.108       12.854       15.071       10.907      165.223      227.132      118.960        0.165        0.026       52.895        9.817        0.034      333.445        2.763      863.497
11/19/2014  07:49:00       63.297       47.015        3.593       23.204       24.768       13.687      538.416      613.465      187.346        0.378        0.067       78.848        7.579        0.009      333.493        2.842      863.522
11/19/2014  07:50:00       94.549       57.158       18.887       21.862       20.385       23.543      477.943      415.542      554.263        0.701        0.072      110.484       13.578        0.015      333.502        2.858      863.541
11/19/2014  07:51:00       82.340       43.305       11.432       23.703       14.567       25.283      561.824      212.191      639.239        0.510        0.071       93.034       16.566        0.032      333.456        2.783      863.542
11/19/2014  07:52:00       68.606       42.596        2.087       23.004       22.377       16.381      529.166      500.736      268.349        0.391        0.065       80.754        8.108        0.010      333.463        2.792      863.539
11/19/2014  07:53:00       47.858       35.471        3.343       19.312       15.614       14.422      372.953      243.787      207.993        0.219        0.041       59.570       11.936        0.040      333.457        2.780      863.558
11/19/2014  07:54:00       25.041       30.451        0.533       20.795       16.419       12.685      432.443      269.583      160.909        0.121        0.043       39.425       10.480        0.071      333.451        2.771      863.581
11/19/2014  07:55:00        7.580       27.774       -6.543       22.835        9.736        7.252      521.429       94.794       52.594        0.077        0.033       28.790        4.606        0.026      333.480        2.822      863.601
11/19/2014  07:56:00      -14.105       20.714       -2.138        7.763        8.683        8.627       60.267       75.401       74.431        0.042        0.011       25.060        5.703        0.052      333.538        2.920      863.605
11/19/2014  07:57:00        6.931       40.088       -5.158        7.785       11.557        9.733       60.609      133.559       94.740        0.099        0.014       40.683        6.168        0.023      333.515        2.877      863.610
11/19/2014  07:58:00        6.648       39.583       -4.380        5.915        5.230        6.775       34.983       27.350       45.898        0.087        0.005       40.137        2.090        0.003      333.526        2.899      863.628
11/19/2014  07:59:00        5.271       33.824       -7.058        6.617        9.697        4.194       43.789       94.037       17.591        0.069        0.008       34.233        2.570        0.006      333.565        2.962      863.635
11/19/2014  08:00:00      -13.597       27.258       -1.545        9.825       15.537       11.001       96.532      241.392      121.030        0.069        0.023       30.461        9.243        0.092      333.707        3.199      863.640
11/19/2014  08:01:00      -23.015       35.804        0.606       12.809       16.580       12.328      164.067      274.883      151.982        0.120        0.030       42.563        6.357        0.022      333.735        3.244      863.665
11/19/2014  08:02:00      -23.587       36.055       -7.951       12.763       13.764       12.631      162.905      189.438      159.535        0.122        0.026       43.085        6.773        0.025      333.719        3.218      863.675
11/19/2014  08:03:00        2.844       42.640       -1.346       30.785       23.088       10.229      947.690      533.048      104.626        0.171        0.079       42.735       11.967        0.078      333.725        3.227      863.665
11/19/2014  08:04:00      -14.823       68.122      -12.779       30.445       15.934       15.627      926.869      253.891      244.190        0.322        0.071       69.716       10.657        0.023      333.784        3.325      863.646
11/19/2014  08:05:00      -40.221       31.072       -5.187       18.489       25.939       10.918      341.857      672.843      119.197        0.187        0.057       50.825        7.718        0.023      333.854        3.443      863.649
11/19/2014  08:06:00      -38.147        0.285       -1.541       17.053       17.811       10.743      290.819      317.216      115.403        0.109        0.036       38.148        7.694        0.041      333.808        3.366      863.667
11/19/2014  08:07:00      -66.708      -12.970       -9.399       23.999       13.565       15.096      575.958      184.002      227.876        0.285        0.049       67.957       13.452        0.039      333.719        3.219      863.696
11/19/2014  08:08:00      -33.952       -0.179       -0.067       29.357       20.412       14.568      861.847      416.633      212.234        0.132        0.075       33.953       13.239        0.152      333.736        3.246      863.710
11/19/2014  08:09:00      -63.391      -13.881       -2.998       18.961       17.508       12.801      359.528      306.529      163.861        0.252        0.041       64.893        7.640        0.014      333.749        3.266      863.705
11/19/2014  08:10:00      -82.962       -0.260       -8.700       19.679       18.153       14.419      387.271      329.534      207.907        0.394        0.046       82.962       13.794        0.028      333.690        3.170      863.695
11/19/2014  08:11:00      -94.614       16.395      -10.058       19.352       15.407       15.849      374.485      237.376      251.206        0.509        0.043       96.024       10.278        0.011      333.700        3.186      863.682
11/19/2014  08:12:00      -97.792       -4.827      -13.637       22.922       28.429       13.931      525.407      808.226      194.085        0.565        0.076       97.911       10.781        0.012      333.809        3.369      863.671
11/19/2014  08:13:00     -101.284       26.723      -17.251       26.764       21.541       17.395      716.322      464.023      302.575        0.638        0.074      104.750       10.513        0.010      333.921        3.553      863.667
11/19/2014  08:14:00     -103.342        2.486      -15.521       21.703       12.641        9.608      471.027      159.796       92.320        0.582        0.036      103.372        8.987        0.008      333.732        3.239      863.679
11/19/2014  08:15:00      -77.155       -5.930       -8.244       19.621       15.849       16.243      384.990      251.199      263.828        0.348        0.045       77.383       12.887        0.028      333.771        3.303      863.709
11/19/2014  08:16:00      -52.972      -18.352       -8.379       11.192       10.848        5.291      125.252      117.688       27.991        0.174        0.014       56.061        3.809        0.005      333.761        3.288      863.719
11/19/2014  08:17:00       -1.944      -12.307        8.854       21.725       16.626       16.090      471.991      276.427      258.888        0.062        0.050       12.460       12.138        0.949      333.921        3.553      863.718
11/19/2014  08:18:00      -12.402       27.430        2.631        9.933       14.739        7.797       98.670      217.240       60.796        0.064        0.019       30.104        6.193        0.042      333.881        3.488      863.725
11/19/2014  08:19:00       -0.333       24.693        7.977        8.842       15.026       10.308       78.183      225.773      106.248        0.054        0.021       24.695        9.185        0.138      333.899        3.517      863.716
11/19/2014  08:20:00      -15.467       28.846        5.812       15.789       22.557       13.158      249.306      508.806      173.145        0.102        0.047       32.731       11.101        0.115      333.975        3.641      863.675
11/19/2014  08:21:00      -42.419       32.873        4.107       31.404       28.661       18.668      986.208      821.445      348.484        0.253        0.108       53.665       16.202        0.091      334.131        3.901      863.640
11/19/2014  08:22:00      -27.703       38.038        8.677       24.263       25.143       17.291      588.697      632.159      298.977        0.190        0.076       47.057       16.046        0.116      334.120        3.884      863.609
11/19/2014  08:23:00        8.145        4.761       31.910       14.795       10.733       13.546      218.879      115.203      183.481        0.081        0.026        9.434       10.797        1.310      334.124        3.891      863.570
11/19/2014  08:24:00        6.576       16.183        5.743       13.013       20.304       15.381      169.347      412.234      236.571        0.058        0.041       17.468       11.832        0.459      334.062        3.789      863.531
11/19/2014  08:25:00       15.002       21.377       -8.479       16.361       17.204        6.971      267.692      295.984       48.591        0.068        0.031       26.116        5.430        0.043      334.018        3.714      863.508
11/19/2014  08:26:00       27.261       34.783       -2.819       15.107       11.789       13.543      228.211      138.992      183.416        0.126        0.028       44.193        9.860        0.050      333.963        3.622      863.500
11/19/2014  08:27:00       19.712       -6.239       12.126       34.054       28.168       12.305     1159.697      793.428      151.404        0.134        0.105       20.675       11.753        0.323      334.065        3.792      863.522
11/19/2014  08:28:00      -17.761      -31.444       -0.758       27.080       14.835       13.772      733.337      220.083      189.663        0.122        0.057       36.113       10.200        0.080      334.114        3.873      863.555
11/19/2014  08:29:00      -56.773      -36.242        0.855       24.745       15.189       16.564      612.335      230.717      274.355        0.283        0.056       67.355       11.447        0.029      334.101        3.853      863.567
11/19/2014  08:30:00      -38.212      -30.520       -1.080       25.743       18.782       16.779      662.676      352.758      281.535        0.184        0.065       48.904       11.324        0.054      334.136        3.910      863.572
11/19/2014  08:31:00      -61.773      -10.797       -1.472       14.116       14.300       12.165      199.248      204.499      147.986        0.224        0.028       62.710        6.359        0.010      334.118        3.880      863.558
11/19/2014  08:32:00      -63.487      -28.939       -0.561       22.953       14.406       13.715      526.838      207.527      188.102        0.290        0.046       69.771       10.734        0.024      334.150        3.934      863.545
11/19/2014  08:33:00      -33.309       -8.974        6.515       30.575       17.017       15.033      934.839      289.579      225.976        0.134        0.073       34.497       18.261        0.280      334.223        4.054      863.526
11/19/2014  08:34:00        8.697       -8.502       13.305       23.267       17.075       17.243      541.364      291.545      297.313        0.073        0.057       12.162       16.217        1.778      334.279        4.148      863.520
11/19/2014  08:35:00      -19.883      -11.094        8.079       18.257       17.816       11.954      333.326      317.407      142.904        0.069        0.040       22.768        9.187        0.163      334.310        4.200      863.525
11/19/2014  08:36:00      -51.480      -20.769      -10.820        8.413       10.830        7.031       70.776      117.285       49.432        0.172        0.012       55.511        3.954        0.005      334.145        3.923      863.530
11/19/2014  08:37:00      -90.028      -56.788      -10.807       14.954       20.263       11.287      223.610      410.592      127.388        0.610        0.038      106.441       11.709        0.012      334.150        3.929      863.538
11/19/2014  08:38:00      -57.793      -60.422       -8.175       17.508       14.469        9.494      306.524      209.352       90.129        0.383        0.030       83.612       10.275        0.015      334.152        3.935      863.536
11/19/2014  08:39:00      -58.636      -46.019        2.436       26.402       25.314       15.821      697.046      640.782      250.319        0.357        0.079       74.538       14.689        0.039      334.289        4.164      863.549
11/19/2014  08:40:00      -41.316      -12.565        3.575       29.317       16.342       14.454      859.509      267.065      208.905        0.161        0.067       43.184       13.250        0.094      334.307        4.193      863.563
11/19/2014  08:41:00       -3.414       -9.478        8.946        8.973       16.276        8.009       80.517      264.901       64.145        0.030        0.020       10.074        5.792        0.331      334.493        4.502      863.582
11/19/2014  08:42:00       15.601       22.273        9.645       34.387       19.732       10.271     1182.468      389.350      105.488        0.125        0.084       27.193       12.286        0.204      334.346        4.258      863.576
11/19/2014  08:43:00       52.203       57.875       40.907       43.974       27.123       34.268     1933.736      735.670     1174.308        0.580        0.192       77.940       21.374        0.075      334.360        4.281      863.579
11/19/2014  08:44:00       79.899       61.410       38.291       34.549       26.326       27.862     1193.649      693.078      776.301        0.714        0.133      100.772       18.262        0.033      334.316        4.208      863.569
11/19/2014  08:45:00        3.178       45.429       68.373       24.400       25.089       19.295      595.370      629.436      372.311        0.417        0.080       45.540       16.420        0.130      334.450        4.431      863.570
11/19/2014  08:46:00       -0.776       47.748       66.352       18.882       29.038       19.482      356.521      843.230      379.550        0.413        0.079       47.755       16.606        0.121      334.551        4.599      863.572
11/19/2014  08:47:00       72.391       34.095       -1.466       34.965       37.019       28.194     1222.539     1370.386      794.894        0.490        0.169       80.018       17.789        0.049      334.310        4.199      863.582
11/19/2014  08:48:00       13.400      -13.533        0.763       33.596       34.682       31.022     1128.695     1202.858      962.344        0.183        0.165       19.045       22.984        1.456      334.391        4.333      863.586
11/19/2014  08:49:00       55.024       20.826       11.758       26.929       21.261       19.430      725.144      452.042      377.528        0.258        0.078       58.833       12.252        0.043      334.351        4.269      863.580
11/19/2014  08:50:00       25.890        7.386       -9.935       17.895       26.613       12.610      320.235      708.264      159.010        0.101        0.059       26.923        6.967        0.067      334.339        4.248      863.575
11/19/2014  08:51:00       -3.769        6.826       11.684       15.984       12.585       10.264      255.483      158.379      105.342        0.036        0.026        7.797        7.566        0.942      334.523        4.553      863.575
11/19/2014  08:52:00       -2.898       34.872      -11.617       14.358       21.088        5.528      206.139      444.684       30.558        0.102        0.034       34.992        3.717        0.011      334.265        4.123      863.570
11/19/2014  08:53:00       12.013       25.042       -1.774       18.101       13.000       13.758      327.638      169.011      189.281        0.073        0.034       27.775       10.122        0.133      334.320        4.215      863.539
11/19/2014  08:54:00       34.637       57.803       -6.815       21.798       16.302       12.317      475.161      265.769      151.712        0.274        0.045       67.386        8.179        0.015      334.305        4.191      863.495
11/19/2014  08:55:00       86.127       48.555        4.048       13.041       15.148       18.432      170.055      229.472      339.729        0.527        0.037       98.870        9.060        0.008      334.298        4.176      863.467
11/19/2014  08:56:00       55.740       39.615        2.848       17.247       16.616       14.013      297.471      276.096      196.369        0.273        0.038       68.383       10.214        0.022      334.341        4.250      863.476
11/19/2014  08:57:00       42.582       36.926       -8.928       21.995       15.996       16.223      483.797      255.884      263.185        0.213        0.050       56.363        9.929        0.031      334.336        4.242      863.480
11/19/2014  08:58:00        7.173       18.372        0.440       16.701       15.767       10.689      278.926      248.584      114.253        0.052        0.032       19.722        8.011        0.165      334.464        4.455      863.469
11/19/2014  08:59:00       70.798       50.147        5.182       25.655       18.687       17.413      658.168      349.213      303.205        0.443        0.066       86.759       11.592        0.018      334.446        4.426      863.429
11/19/2014  09:00:00       91.355       41.967        8.335       34.868       26.037       25.300     1215.793      677.914      640.107        0.635        0.127      100.534       18.477        0.034      334.503        4.520      863.396
11/19/2014  09:01:00       69.298       69.635        3.043       43.509       35.153       35.492     1893.001     1235.745     1259.661        0.702        0.219       98.241       22.747        0.054      334.397        4.343      863.367
11/19/2014  09:02:00       44.392       44.475        8.076       32.725       31.998       26.935     1070.918     1023.856      725.485        0.342        0.141       62.838       17.899        0.081      334.445        4.423      863.352
11/19/2014  09:03:00       77.564       61.737       15.781       34.667       29.613       26.094     1201.825      876.936      680.891        0.642        0.138       99.134       20.422        0.042      334.426        4.391      863.342
11/19/2014  09:04:00       96.957       64.213       12.723       32.661       29.634       23.105     1066.746      878.151      533.845        0.808        0.124      116.293        8.536        0.005      334.361        4.283      863.339
11/19/2014  09:05:00       90.318       53.832       15.013       30.631       26.328       26.613      938.250      693.159      708.252        0.681        0.117      105.144       15.550        0.022      334.402        4.352      863.345
11/19/2014  09:06:00       33.185       -9.014       18.703       17.091       32.798       20.563      292.112     1075.705      422.827        0.166        0.090       34.388       22.221        0.418      334.466        4.457      863.385
11/19/2014  09:07:00        8.098      -48.718        7.109       16.514       42.183       20.137      272.701     1779.394      405.483        0.247        0.123       49.386       21.068        0.182      334.579        4.646      863.412
11/19/2014  09:08:00       54.310       57.220       21.486       30.052       18.759       23.972      903.101      351.906      574.657        0.426        0.091       78.890       13.086        0.028      334.497        4.509      863.423
11/19/2014  09:09:00       26.434       38.781        2.262       15.393       11.881       16.132      236.960      141.158      260.238        0.142        0.032       46.933       10.072        0.046      334.417        4.374      863.417
11/19/2014  09:10:00        5.758       63.058       -4.388       18.354       23.047       15.510      336.883      531.183      240.571        0.257        0.055       63.320       13.192        0.043      334.408        4.362      863.424
11/19/2014  09:11:00       24.311       46.960       -1.841       22.972       34.333       21.738      527.714     1178.743      472.554        0.249        0.109       52.880       23.347        0.195      334.445        4.422      863.434
11/19/2014  09:12:00       25.773       16.836        0.337       14.986       10.477       12.018      224.576      109.763      144.425        0.071        0.024       30.785        8.740        0.081      334.424        4.387      863.464
11/19/2014  09:13:00        4.880        1.454       12.528        9.473        6.931       12.774       89.733       48.040      163.173        0.024        0.015        5.092        3.577        0.493      334.650        4.763      863.494
11/19/2014  09:14:00       17.085       20.986       24.466       17.703       16.723       11.526      313.413      279.665      132.843        0.103        0.036       27.061       10.505        0.151      334.587        4.657      863.531
11/19/2014  09:15:00       47.221       24.841        1.109       16.681        8.689        9.378      278.258       75.497       87.955        0.164        0.022       53.356        9.969        0.035      334.446        4.424      863.534
11/19/2014  09:16:00       24.040       20.943       -8.500       12.013       11.930       11.471      144.301      142.315      131.586        0.075        0.021       31.883        6.099        0.037      334.452        4.432      863.511
11/19/2014  09:17:00       10.127       44.665       -7.894        9.192       10.949        5.156       84.484      119.876       26.586        0.120        0.012       45.798        2.543        0.003      334.448        4.429      863.472
11/19/2014  09:18:00        1.526       45.712       -8.262        9.076       13.289        7.782       82.381      176.591       60.553        0.124        0.016       45.738        5.993        0.017      334.482        4.482      863.433
11/19/2014  09:19:00        1.691       34.204       -0.780       12.112       20.412       10.270      146.690      416.668      105.466        0.092        0.033       34.246        5.719        0.028      334.547        4.590      863.430
11/19/2014  09:20:00      -27.723       10.369       10.479       25.695       25.643       16.018      660.235      657.563      256.586        0.128        0.079       29.599       11.877        0.161      334.625        4.721      863.451
11/19/2014  09:21:00      -61.669        5.838       -2.696        9.995       17.355       10.510       99.904      301.209      110.458        0.218        0.026       61.945        5.788        0.009      334.590        4.662      863.459
11/19/2014  09:22:00       -3.786      -10.934       16.925       14.255       26.300       14.911      203.217      691.708      222.333        0.077        0.056       11.571        9.728        0.707      334.910        5.193      863.472
11/19/2014  09:23:00       -9.569      -27.262       -5.204        9.729       11.847        7.465       94.659      140.357       55.719        0.058        0.015       28.892        5.082        0.031      334.619        4.710      863.474
11/19/2014  09:24:00        1.018       12.768       -0.540        8.508       15.124       14.887       72.394      228.745      221.613        0.034        0.026       12.809        9.511        0.551      334.793        5.001      863.483
11/19/2014  09:25:00       -3.147       39.816        1.488       11.571       16.177       15.199      133.894      261.708      231.021        0.111        0.031       39.940       11.133        0.078      334.757        4.940      863.478
11/19/2014  09:26:00      -20.791       52.046      -13.633       13.222       12.995       11.389      174.834      168.876      129.703        0.190        0.024       56.045        5.079        0.008      334.722        4.881      863.440
11/19/2014  09:27:00      -22.760       20.066        2.519       24.070       24.804       17.757      579.357      615.228      315.306        0.122        0.075       30.342       15.601        0.264      335.015        5.368      863.401
11/19/2014  09:28:00      -49.665       38.164        1.898       48.393       19.970       22.127     2341.851      398.788      489.625        0.358        0.162       62.635       25.589        0.167      334.895        5.169      863.365
11/19/2014  09:29:00      -42.105       25.464        2.759       19.569       14.586       18.995      382.941      212.742      360.824        0.169        0.048       49.206       14.850        0.091      334.990        5.326      863.317
11/19/2014  09:30:00       -7.247       22.545       14.305       31.612       31.898       21.104      999.321     1017.477      445.385        0.161        0.123       23.681       25.637        1.172      335.057        5.438      863.279
11/19/2014  09:31:00      -10.467       72.628        4.549       31.454       26.253       28.333      989.348      689.224      802.767        0.394        0.124       73.379       23.765        0.105      334.914        5.200      863.250
11/19/2014  09:32:00       -5.442       64.643       -1.160       11.605       35.646       19.127      134.676     1270.634      365.854        0.299        0.089       64.872       19.509        0.090      334.875        5.136      863.234
11/19/2014  09:33:00       -6.206       34.971        0.932       24.703       26.746       18.435      610.261      715.359      339.831        0.146        0.083       35.517        8.205        0.053      335.019        5.375      863.261
11/19/2014  09:34:00       25.690       51.507       -4.389       18.213       28.338       16.799      331.720      803.070      282.218        0.237        0.071       57.559       17.782        0.095      334.773        4.966      863.305
11/19/2014  09:35:00       29.780       37.376        4.122       20.951       15.395       12.044      438.950      237.010      145.070        0.156        0.041       47.789        7.703        0.026      334.834        5.068      863.363
11/19/2014  09:36:00       16.228       -0.958       33.032       34.167       41.654       29.566     1167.368     1735.027      874.130        0.257        0.189       16.257       27.138        2.787      335.075        5.469      863.400
11/19/2014  09:37:00       79.550      -94.043        1.364       40.296       48.674       30.409     1623.752     2369.121      924.735        1.004        0.246      123.176       22.685        0.034      335.044        5.417      863.390
11/19/2014  09:38:00       39.242      -10.181       21.233       56.005       34.339       20.826     3136.545     1179.144      433.717        0.342        0.237       40.541       18.082        0.199      334.986        5.321      863.366
11/19/2014  09:39:00       28.811       19.085       33.149       31.585       28.525       22.656      997.629      813.691      513.312        0.231        0.116       34.559       18.141        0.276      334.980        5.311      863.317
11/19/2014  09:40:00        5.345       26.543       30.773       17.360       21.275       16.072      301.371      452.610      258.295        0.135        0.051       27.076       11.254        0.173      335.102        5.514      863.273
11/19/2014  09:41:00       59.782       41.360        4.545       20.136       18.002       21.225      405.460      324.063      450.512        0.324        0.059       72.695        9.896        0.019      334.958        5.274      863.255
11/19/2014  09:42:00       62.676       42.118       26.769       24.194       17.894       23.661      585.341      320.198      559.866        0.394        0.073       75.513       13.619        0.033      334.901        5.180      863.236
11/19/2014  09:43:00       18.544        7.949       19.130       21.850       18.485       14.994      477.426      341.700      224.833        0.091        0.052       20.176       13.508        0.448      335.108        5.523      863.220
11/19/2014  09:44:00       -2.017       14.145       22.779       12.459       12.103        9.958      155.230      146.474       99.155        0.056        0.020       14.288        8.829        0.382      335.230        5.726      863.208
11/19/2014  09:45:00        4.629        9.380       15.577        8.530        7.060        6.668       72.762       49.847       44.459        0.026        0.008       10.460        2.421        0.054      335.216        5.703      863.190
11/19/2014  09:46:00      -24.783       24.321        6.605       19.103       26.144       15.759      364.907      683.485      248.345        0.127        0.065       34.723       14.459        0.173      335.431        6.059      863.193
11/19/2014  09:47:00       -0.103       -1.327       20.922       19.875       15.978       17.012      395.021      255.289      289.414        0.069        0.047        1.331       14.485      118.379      335.396        6.002      863.197
11/19/2014  09:48:00       19.761       26.493       13.252       15.855       23.631       17.448      251.383      558.446      304.419        0.119        0.056       33.051        7.661        0.054      335.180        5.644      863.205
11/19/2014  09:49:00       28.775       29.257       41.874       27.209       27.383       22.202      740.341      749.815      492.917        0.271        0.099       41.036       19.887        0.235      335.145        5.585      863.209
11/19/2014  09:50:00       28.401       38.444       38.121       21.727       18.558       13.320      472.054      344.404      177.431        0.237        0.050       47.797        8.112        0.029      335.138        5.574      863.209
11/19/2014  09:51:00       36.332       65.302       64.118       26.140       29.343       15.571      683.282      861.034      242.471        0.574        0.089       74.728       13.704        0.034      335.302        5.844      863.213
11/19/2014  09:52:00       35.081       62.538       55.448       36.516       32.981       27.907     1333.414     1087.733      778.822        0.571        0.160       71.705       10.507        0.021      335.211        5.694      863.200
11/19/2014  09:53:00       58.211       41.578       58.527       48.038       31.052       27.890     2307.618      964.240      777.872        0.630        0.202       71.535       20.768        0.084      335.186        5.652      863.180
11/19/2014  09:54:00       52.803       12.587       32.760       36.649       42.015       33.924     1343.125     1765.279     1150.819        0.414        0.213       54.283       28.214        0.270      335.086        5.487      863.158
11/19/2014  09:55:00       37.084       56.250       45.188       29.347       28.796       18.888      861.236      829.217      356.753        0.431        0.102       67.374        6.320        0.009      335.117        5.539      863.125
11/19/2014  09:56:00       90.392       46.448        9.835       40.568       39.546       24.972     1645.722     1563.863      623.595        0.713        0.192      101.628        9.732        0.009      335.118        5.541      863.138
11/19/2014  09:57:00      102.863       77.186        0.411       40.803       35.114       32.451     1664.907     1233.014     1053.065        1.024        0.198      128.602       22.400        0.030      334.995        5.336      863.150
11/19/2014  09:58:00       36.370       55.646        2.722       35.274       36.266       30.319     1244.287     1315.248      919.224        0.395        0.174       66.477       23.168        0.121      335.090        5.494      863.180
11/19/2014  09:59:00       22.138       59.361       -6.634       21.257       24.613       20.939      451.881      605.815      438.427        0.278        0.075       63.355       14.211        0.050      335.061        5.445      863.192
11/19/2014  10:00:00      -10.238       94.912      -13.606       22.101       18.344       13.830      488.470      336.513      191.265        0.516        0.051       95.463        7.176        0.006      335.027        5.389      863.198
11/19/2014  10:01:00       -9.118      101.930      -24.136       12.858       25.997        8.784      165.330      675.858       77.163        0.599        0.046      102.337        5.400        0.003      334.948        5.255      863.202
11/19/2014  10:02:00        0.019       67.593      -10.627        9.653       28.681       15.511       93.172      822.573      240.605        0.292        0.058       67.593        9.794        0.021      335.038        5.406      863.212
11/19/2014  10:03:00       19.587       44.625       -4.073       22.746       26.674       16.407      517.370      711.513      269.174        0.194        0.075       48.735       16.565        0.116      335.070        5.461      863.247
11/19/2014  10:04:00       21.143       74.959       -0.732       25.720       39.185       24.718      661.521     1535.468      610.988        0.444        0.140       77.884       24.568        0.100      335.206        5.684      863.245
11/19/2014  10:05:00       12.099       78.381      -12.698       26.380       16.654       15.011      695.925      277.341      225.327        0.382        0.060       79.309       11.258        0.020      335.025        5.385      863.252
11/19/2014  10:06:00      -18.267       62.616      -12.135       14.123       20.935       14.848      199.467      438.295      220.470        0.263        0.043       65.226       11.496        0.031      335.032        5.398      863.245
11/19/2014  10:07:00       34.119       29.174        6.387       28.358       16.606       17.715      804.185      275.771      313.824        0.172        0.070       44.891       11.744        0.068      335.183        5.646      863.237
11/19/2014  10:08:00       71.147       32.882        8.914       36.108       23.279       20.829     1303.785      541.931      433.829        0.425        0.114       78.378       12.127        0.024      335.245        5.750      863.222
11/19/2014  10:09:00       67.095       41.928       36.874       37.522       29.476       25.956     1407.894      868.829      673.714        0.528        0.148       79.118       20.019        0.064      335.406        6.019      863.207
11/19/2014  10:10:00       50.436       52.882        5.325       37.855       37.535       28.994     1432.965     1408.857      840.634        0.452        0.184       73.078       16.328        0.050      335.265        5.784      863.191
11/19/2014  10:11:00       41.245       95.595       92.764       57.260       37.777       28.824     3278.742     1427.136      830.813        1.249        0.277      104.113       22.499        0.047      335.345        5.916      863.197
11/19/2014  10:12:00       86.546       82.248       45.433       39.815       24.414       36.232     1585.217      596.043     1312.734        0.991        0.175      119.394       20.497        0.029      335.188        5.656      863.220
11/19/2014  10:13:00       47.889       86.021       79.206       52.356       53.143       37.517     2741.154     2824.139     1407.541        1.147        0.349       98.453       36.084        0.134      335.337        5.903      863.201
11/19/2014  10:14:00      108.839       35.015       40.095       47.449       41.793       38.305     2251.393     1746.671     1467.266        1.007        0.273      114.332       25.027        0.048      335.256        5.769      863.197
11/19/2014  10:15:00       16.167       46.897       64.481       36.959       64.989       41.262     1365.935     4223.607     1702.574        0.695        0.365       49.605       47.508        0.917      335.488        6.155      863.163
11/19/2014  10:16:00       46.037       42.144       52.058       48.988       33.742       33.176     2399.820     1138.496     1100.662        0.562        0.232       62.414       24.978        0.160      335.432        6.062      863.139
11/19/2014  10:17:00       95.921       69.175       51.142       39.998       44.574       38.167     1599.808     1986.813     1456.712        1.082        0.252      118.263       26.490        0.050      335.284        5.815      863.104
11/19/2014  10:18:00       56.151       59.137       49.208       42.043       32.900       24.217     1767.621     1082.402      586.444        0.625        0.172       81.548       22.462        0.076      335.257        5.771      863.076
11/19/2014  10:19:00       61.427       49.150       34.111       82.694       46.821       39.349     6838.350     2192.193     1548.336        0.896        0.529       78.670       34.711        0.195      335.345        5.917      863.072
11/19/2014  10:20:00      121.284       60.534       18.609       30.269       31.090       30.138      916.189      966.588      908.294        1.076        0.140      135.551       18.746        0.019      335.206        5.686      863.075
11/19/2014  10:21:00       94.781       65.295       23.812       30.706       29.118       28.962      942.856      847.830      838.793        0.822        0.131      115.095       15.263        0.018      335.264        5.781      863.087
11/19/2014  10:22:00      118.620       67.617        8.505       34.748       34.787       26.561     1207.453     1210.109      705.462        1.092        0.156      136.538       12.069        0.008      335.200        5.675      863.091
11/19/2014  10:23:00      118.743       99.774        9.771       57.708       49.860       38.399     3330.214     2485.977     1474.521        1.572        0.365      155.096       24.499        0.025      335.222        5.710      863.064
11/19/2014  10:24:00      115.220       76.681       16.031       53.482       32.434       35.522     2860.308     1051.943     1261.781        1.229        0.259      138.404       22.012        0.025      335.238        5.739      863.014
11/19/2014  10:25:00       94.863       56.072        8.462       48.897       27.333       30.075     2390.917      747.117      904.516        0.813        0.202      110.196       23.758        0.046      335.249        5.757      862.962
11/19/2014  10:26:00       59.297       16.993       -0.605       36.262       27.884       17.725     1314.901      777.508      314.165        0.311        0.120       61.684       19.422        0.099      335.252        5.760      862.941
11/19/2014  10:27:00       60.627       38.776        4.469       46.258       26.523       17.957     2139.825      703.471      322.462        0.418        0.158       71.967       12.665        0.031      335.316        5.868      862.922
11/19/2014  10:28:00       38.531       57.628       -4.769       35.622       17.214       15.260     1268.935      296.312      232.865        0.331        0.090       69.323        7.432        0.011      335.322        5.877      862.884
11/19/2014  10:29:00        1.883       92.581      -21.984       24.280       32.255       13.063      589.533     1040.398      170.631        0.543        0.090       92.601        7.367        0.006      335.300        5.841      862.818
11/19/2014  10:30:00       13.219      117.253      -23.453       24.493       30.106       10.784      599.905      906.357      116.297        0.805        0.081      117.996       11.798        0.010      335.288        5.820      862.743
11/19/2014  10:31:00       24.743       47.968       -5.257       22.061       22.476       14.153      486.685      505.169      200.312        0.207        0.060       53.973       11.598        0.046      335.418        6.038      862.698
11/19/2014  10:32:00       34.924       51.680       -4.087       33.235       25.710       16.540     1104.576      660.986      273.583        0.297        0.102       62.374       13.227        0.045      335.491        6.160      862.683
11/19/2014  10:33:00      -11.990       27.247      -10.136       14.349       48.428       15.099      205.906     2345.265      227.992        0.188        0.139       29.768       14.074        0.224      335.582        6.311      862.711
11/19/2014  10:34:00      -34.987        0.306        4.722       31.834       26.098       20.943     1013.399      681.122      438.626        0.169        0.107       34.988       19.024        0.296      335.762        6.612      862.746
11/19/2014  10:35:00       -4.806       68.607       -1.065       22.378       24.668       20.870      500.797      608.502      435.547        0.314        0.077       68.775       16.598        0.058      335.551        6.259      862.755
11/19/2014  10:36:00      -12.030       52.436       -3.319       12.454       19.770       18.875      155.100      390.866      356.283        0.190        0.045       53.798       11.807        0.048      335.452        6.093      862.724
11/19/2014  10:37:00        5.335       74.834       -7.611       29.041       50.795       21.205      843.362     2580.114      449.649        0.478        0.194       75.024       23.762        0.100      335.531        6.228      862.688
11/19/2014  10:38:00       -4.093       59.507       -4.286       20.110       27.576       16.390      404.424      760.428      268.621        0.250        0.072       59.648       14.405        0.058      335.637        6.403      862.664
11/19/2014  10:39:00        2.855       55.759       -5.806       17.087       43.228       15.400      291.950     1868.684      237.158        0.277        0.120       55.832       21.412        0.147      335.498        6.172      862.635
11/19/2014  10:40:00      -73.587       40.518       -9.288       31.320       24.088       24.256      980.930      580.232      588.338        0.465        0.107       84.004       21.585        0.066      335.769        6.623      862.606
11/19/2014  10:41:00      -89.249       71.465      -26.957       16.674       16.663       15.002      278.020      277.664      225.056        0.729        0.039      114.336        7.674        0.005      335.521        6.210      862.606
11/19/2014  10:42:00      -40.426       48.286      -23.837       29.141       26.693       16.385      849.221      712.506      268.465        0.318        0.092       62.975       19.225        0.093      335.545        6.250      862.636
11/19/2014  10:43:00       32.997       51.158       -2.460       25.074       23.040       20.669      628.706      530.822      427.202        0.265        0.079       60.876       17.632        0.084      335.624        6.383      862.664
11/19/2014  10:44:00       33.532       48.394        5.271       22.831       20.857       15.579      521.247      435.003      242.705        0.235        0.060       58.876        9.636        0.027      335.549        6.256      862.679
11/19/2014  10:45:00       45.775       17.970       -3.535       12.725       13.049       12.284      161.926      170.278      150.887        0.146        0.024       49.176        6.277        0.016      335.507        6.188      862.680
11/19/2014  10:46:00       41.606       34.596       -9.716       16.212       16.009       14.960      262.842      256.286      223.788        0.188        0.037       54.110       11.031        0.042      335.579        6.307      862.676
11/19/2014  10:47:00        5.322       61.035      -15.697       16.720       24.679       10.159      279.551      609.035      103.213        0.250        0.050       61.267        9.762        0.025      335.642        6.411      862.658
11/19/2014  10:48:00        7.739       63.052      -11.623       17.376       23.678       22.771      301.909      560.650      518.519        0.278        0.069       63.525        9.234        0.021      335.844        6.748      862.636
11/19/2014  10:49:00       -5.024       54.078        9.061       27.601       23.389       16.557      761.789      547.057      274.130        0.231        0.079       54.311        9.472        0.030      335.920        6.875      862.631
11/19/2014  10:50:00        9.249       13.178       10.613       21.485       19.731       16.395      461.590      389.332      268.812        0.075        0.056       16.100        9.115        0.320      336.062        7.112      862.604
11/19/2014  10:51:00       -6.611       33.713        8.314       19.319       22.196       17.425      373.214      492.656      303.621        0.121        0.058       34.355        6.710        0.038      335.978        6.972      862.597
11/19/2014  10:52:00        6.382       16.577      -15.852        9.150       14.941        6.727       83.714      223.232       45.249        0.046        0.018       17.763        5.154        0.084      335.744        6.582      862.602
11/19/2014  10:53:00       -4.293       14.448      -10.026       13.495       12.135       10.250      182.123      147.247      105.052        0.038        0.022       15.072        9.698        0.414      335.765        6.616      862.587
11/19/2014  10:54:00       32.715       33.490       29.437       16.480       16.915       16.235      271.589      286.111      263.565        0.194        0.041       46.817       10.598        0.051      335.800        6.676      862.554
11/19/2014  10:55:00        8.581        4.842        5.310       18.035       13.278       13.738      325.271      176.299      188.719        0.041        0.035        9.852       11.637        1.395      336.085        7.150      862.530
11/19/2014  10:56:00      -14.451       28.750       13.434       21.290       17.655       20.152      453.246      311.700      406.122        0.119        0.059       32.177       12.208        0.144      336.063        7.113      862.502
11/19/2014  10:57:00       30.669       37.054        4.135       18.598       34.689       19.661      345.881     1203.309      386.541        0.213        0.097       48.100       21.222        0.195      335.821        6.711      862.491
11/19/2014  10:58:00       -3.919       63.725      -10.152       20.595       25.678       11.353      424.140      659.335      128.899        0.270        0.061       63.846       12.123        0.036      335.785        6.651      862.464
11/19/2014  10:59:00        9.677       57.630      -15.984       18.696       23.130       14.229      349.537      534.982      202.462        0.238        0.054       58.437       14.899        0.065      335.873        6.796      862.440
11/19/2014  11:00:00       14.397        7.180       10.455       38.160       23.433       19.414     1456.152      549.106      376.914        0.137        0.119       16.088       13.683        0.723      336.210        7.358      862.419
11/19/2014  11:01:00       59.581       29.760       16.315       34.312       18.478       24.545     1177.296      341.432      602.434        0.341        0.106       66.600       10.716        0.026      336.042        7.077      862.399
11/19/2014  11:02:00       61.049       38.781       -1.294       26.491       25.609       16.688      701.760      655.827      278.486        0.343        0.082       72.325        8.768        0.015      335.909        6.856      862.392
11/19/2014  11:03:00       32.967       28.841        0.131       25.317       38.120       15.865      640.972     1453.152      251.709        0.213        0.117       43.802       13.336        0.093      335.925        6.882      862.378
11/19/2014  11:04:00       17.921       39.977       -8.293       11.661       11.070       12.479      135.987      122.535      155.737        0.120        0.021       43.810       10.038        0.052      335.912        6.860      862.361
11/19/2014  11:05:00       48.453       28.333        8.274       22.642       24.503       19.809      512.652      600.420      392.377        0.236        0.075       56.129       11.497        0.042      336.002        7.010      862.344
11/19/2014  11:06:00       35.040      -18.125       16.540       35.267       49.409       21.482     1243.742     2441.224      461.479        0.299        0.207       39.450       14.918        0.143      336.146        7.251      862.339
11/19/2014  11:07:00       27.750       27.502       22.802       31.989       29.865       21.458     1023.297      891.907      460.438        0.221        0.119       39.070       22.341        0.327      336.181        7.311      862.327
11/19/2014  11:08:00       48.513       36.303        7.301       16.722       23.702       19.852      279.613      561.805      394.106        0.248        0.062       60.593        9.293        0.024      336.029        7.056      862.309
11/19/2014  11:09:00       52.267       31.222       18.267       37.377       23.384       24.226     1397.077      546.827      586.893        0.329        0.127       60.882       21.156        0.121      336.133        7.231      862.300
11/19/2014  11:10:00       -6.015       31.608       56.383       19.245       45.193       29.096      370.359     2042.416      846.589        0.374        0.163       32.175       26.760        0.692      336.323        7.546      862.293
11/19/2014  11:11:00        1.663       21.941       45.847       25.037       25.170       15.317      626.874      633.511      234.621        0.204        0.075       22.003        5.460        0.062      336.284        7.482      862.292
11/19/2014  11:12:00       10.341       12.566       27.133       22.483       18.164       18.666      505.494      329.936      348.402        0.109        0.059       16.274       13.124        0.650      336.232        7.395      862.266
11/19/2014  11:13:00       23.243       11.889       18.097       21.352       16.057       19.751      455.925      257.829      390.087        0.106        0.055       26.108       15.777        0.365      336.182        7.314      862.242
11/19/2014  11:14:00       67.582       77.242       47.707       20.677       20.533       19.005      427.540      421.612      361.209        0.701        0.061      102.634       12.438        0.015      335.986        6.985      862.232
11/19/2014  11:15:00       52.059       53.704       23.916       29.099       27.649       21.169      846.726      764.480      448.148        0.411        0.103       74.794        7.090        0.009      336.088        7.154      862.217
11/19/2014  11:16:00       41.083       77.838       70.834       50.382       34.142       22.143     2538.338     1165.647      490.308        0.848        0.210       88.015       15.079        0.029      336.199        7.340      862.198
11/19/2014  11:17:00       81.294       75.180       45.921       43.628       30.693       36.429     1903.392      942.082     1327.070        0.927        0.209      110.728       17.920        0.026      336.141        7.243      862.179
11/19/2014  11:18:00       49.818       89.310       85.064       50.896       41.793       36.916     2590.451     1746.614     1362.811        1.170        0.285      102.265       25.860        0.064      336.384        7.648      862.160
11/19/2014  11:19:00       78.000       61.787       57.854       69.353       69.156       55.307     4809.795     4782.559     3058.832        1.295        0.633       99.507       44.453        0.200      336.314        7.530      862.135
11/19/2014  11:20:00      128.560       62.824       46.176       66.683       62.690       54.686     4446.685     3930.043     2990.522        1.698        0.568      143.089       39.347        0.076      336.050        7.091      862.103
11/19/2014  11:21:00      177.743       83.433       25.804       46.747       33.585       41.737     2185.305     1127.931     1742.017        2.214        0.253      196.351       32.325        0.027      335.946        6.917      862.076
11/19/2014  11:22:00      112.022       72.346       34.474       52.403       37.599       34.499     2746.089     1413.687     1190.213        1.216        0.267      133.353       30.698        0.053      336.004        7.015      862.048
11/19/2014  11:23:00      116.240       59.504       36.396       49.813       36.947       32.766     2481.290     1365.056     1073.611        1.165        0.246      130.585       21.283        0.027      336.055        7.099      862.014
11/19/2014  11:24:00       90.319       33.172       21.571       49.198       35.661       33.478     2420.417     1271.720     1120.803        0.727        0.241       96.218       33.478        0.121      336.084        7.148      861.990
11/19/2014  11:25:00       62.931       25.159       49.491       63.761       43.381       31.159     4065.433     1881.876      970.865        0.698        0.346       67.773       34.712        0.262      336.137        7.235      861.954
11/19/2014  11:26:00      143.531       92.710       17.507       51.070       33.704       25.747     2608.136     1135.947      662.897        1.695        0.220      170.870       17.477        0.010      335.977        6.969      861.926
11/19/2014  11:27:00      157.558       89.192       25.753       45.662       33.257       34.058     2085.051     1106.048     1159.915        1.890        0.218      181.052       19.013        0.011      336.012        7.027      861.905
11/19/2014  11:28:00       50.939       85.994       74.450       71.173       52.100       47.520     5065.590     2714.462     2258.142        1.278        0.502       99.949       46.957        0.221      336.160        7.276      861.892
11/19/2014  11:29:00       82.509       53.348       61.486       58.689       67.802       54.565     3444.382     4597.173     2977.373        1.222        0.551       98.253       55.305        0.317      336.056        7.101      861.894
11/19/2014  11:30:00        3.740       13.333       18.398       34.785       37.396       25.635     1209.994     1398.470      657.134        0.190        0.163       13.847       21.728        2.462      336.154        7.264      861.894
11/19/2014  11:31:00       55.230       33.855       53.238       53.384       57.872       42.631     2849.880     3349.181     1817.412        0.752        0.401       64.780       42.346        0.427      336.239        7.407      861.903
11/19/2014  11:32:00      121.245       86.252       39.209       46.478       28.751       36.247     2160.233      826.610     1313.868        1.399        0.215      148.794       29.223        0.039      335.980        6.975      861.917
11/19/2014  11:33:00       27.407      -26.356       22.439       30.341       64.882       36.403      920.588     4209.681     1325.165        0.420        0.323       38.024       33.237        0.764      336.275        7.468      861.922
11/19/2014  11:34:00       62.708       12.291       52.010       49.069       91.845       49.176     2407.719     8435.575     2418.290        1.002        0.663       63.901       58.085        0.826      336.311        7.527      861.916
11/19/2014  11:35:00       86.753       83.695       57.119       57.031       61.541       71.912     3252.530     3787.315     5171.280        1.500        0.611      120.544       56.234        0.218      336.143        7.246      861.910
11/19/2014  11:36:00       27.654      -43.386       21.072       41.932       46.031       34.967     1758.333     2118.864     1222.687        0.409        0.255       51.450       31.127        0.366      336.470        7.792      861.908
11/19/2014  11:37:00       28.559        1.028       45.382       41.257       69.129       45.592     1702.142     4778.765     2078.636        0.572        0.428       28.577       52.201        3.337      336.390        7.660      861.890
11/19/2014  11:38:00       56.031      -36.376        4.719       49.443       43.245       30.396     2444.611     1870.140      923.900        0.486        0.262       66.803       27.214        0.166      336.333        7.563      861.847
11/19/2014  11:39:00       -1.636       23.330       46.435       26.034       33.962       19.950      677.744     1153.401      398.013        0.247        0.111       23.387       18.724        0.641      336.672        8.132      861.793
11/19/2014  11:40:00       18.672       -8.076       15.411       18.894       19.710       21.509      356.968      388.486      462.642        0.093        0.060       20.344       19.916        0.958      336.493        7.831      861.757
11/19/2014  11:41:00       54.797       42.063       14.073       40.065       25.751       24.594     1605.232      663.102      604.848        0.392        0.144       69.080       15.196        0.048      336.379        7.641      861.719
11/19/2014  11:42:00       63.052       26.865       13.354       52.138       36.714       22.727     2718.357     1347.883      516.530        0.473        0.229       68.536       21.007        0.094      336.462        7.781      861.710
11/19/2014  11:43:00       15.257        3.856       29.674       24.367       37.193       21.767      593.741     1383.320      473.805        0.179        0.123       15.736       20.860        1.757      336.760        8.279      861.704
11/19/2014  11:44:00       22.015      -59.982       13.838       32.644       43.081       28.195     1065.598     1855.948      794.970        0.399        0.186       63.894       25.458        0.159      336.664        8.118      861.705
11/19/2014  11:45:00       24.450      -29.137       16.458       22.458       40.437       30.235      504.344     1635.167      914.139        0.239        0.153       38.037       21.435        0.318      336.692        8.164      861.700
11/19/2014  11:46:00        7.954       35.586       35.785       24.348       28.218       26.102      592.803      796.234      681.327        0.234        0.104       36.465       20.489        0.316      336.711        8.197      861.687
11/19/2014  11:47:00       49.808       17.556       53.110       64.576       37.297       34.072     4170.119     1391.066     1160.929        0.616        0.336       52.811       36.448        0.476      336.424        7.717      861.670
11/19/2014  11:48:00       61.764       25.395       24.547       54.092       40.071       36.276     2925.933     1605.650     1315.959        0.545        0.292       66.781       27.654        0.171      336.502        7.848      861.646
11/19/2014  11:49:00       60.797       58.180       32.483       46.370       35.769       24.624     2150.213     1279.392      606.329        0.609        0.202       84.150       21.487        0.065      336.588        7.991      861.624
11/19/2014  11:50:00        6.550       25.262       35.634       28.794       31.922       23.262      829.069     1019.041      541.138        0.217        0.119       26.097       18.419        0.498      336.773        8.298      861.594
11/19/2014  11:51:00        8.574       26.210       46.755       37.757       35.145       36.368     1425.621     1235.204     1322.641        0.346        0.199       27.577       32.737        1.409      336.793        8.334      861.557
11/19/2014  11:52:00       11.786       69.730       91.660       29.529       45.190       18.173      871.944     2042.153      330.268        0.832        0.162       70.719       23.066        0.106      336.545        7.919      861.544
11/19/2014  11:53:00       56.677       73.698       60.201       56.465       38.477       32.242     3188.289     1480.500     1039.560        0.899        0.285       92.971       33.192        0.127      336.413        7.698      861.538
11/19/2014  11:54:00       92.445       74.318       31.729       31.230       31.080       43.516      975.310      965.995     1893.668        0.945        0.192      118.614       29.883        0.063      336.289        7.489      861.540
11/19/2014  11:55:00       30.572      -42.984       35.699       44.743       62.512       36.063     2001.903     3907.701     1300.564        0.563        0.361       52.747       31.417        0.355      336.642        8.082      861.517
11/19/2014  11:56:00       58.865       13.607       45.831       60.009       64.547       38.670     3601.031     4166.323     1495.377        0.750        0.463       60.418       23.974        0.157      336.646        8.087      861.483
11/19/2014  11:57:00      150.035       87.201       35.318       40.097       36.728       37.440     1607.764     1348.916     1401.746        1.786        0.218      173.536       21.595        0.015      336.285        7.482      861.434
11/19/2014  11:58:00       95.113       54.809       44.606       60.342       43.216       34.030     3641.105     1867.624     1158.062        1.035        0.333      109.775       30.380        0.077      336.351        7.593      861.399
11/19/2014  11:59:00       66.288       47.140       31.559       34.901       25.472       37.166     1218.051      648.838     1381.338        0.543        0.162       81.340       17.032        0.044      336.350        7.592      861.393
11/19/2014  12:00:00       37.569       15.303       35.549       42.712       33.945       31.260     1824.338     1152.261      977.188        0.343        0.198       40.567       25.217        0.386      336.530        7.894      861.394
11/19/2014  12:01:00       52.294      -48.201        9.192       38.506       67.594       38.432     1482.687     4568.970     1476.987        0.633        0.376       71.119       46.967        0.436      336.481        7.810      861.397
11/19/2014  12:02:00       70.614       -3.837       14.014       32.826       24.803       29.238     1077.526      615.203      854.865        0.387        0.127       70.719       16.121        0.052      336.415        7.702      861.390
11/19/2014  12:03:00       40.627        5.479       10.508       20.057       33.316       26.524      402.285     1109.977      703.526        0.200        0.111       40.995       15.585        0.145      336.542        7.914      861.375
11/19/2014  12:04:00        9.507      -19.750       17.507       18.434       25.990       20.434      339.814      675.481      417.560        0.111        0.072       21.919       15.356        0.491      336.783        8.317      861.352
11/19/2014  12:05:00       57.842      -32.879        6.768       40.743       47.131       23.196     1660.017     2221.308      538.039        0.445        0.221       66.534       23.656        0.126      336.661        8.112      861.338
11/19/2014  12:06:00       72.045      -97.896      -11.536       38.947       59.978       28.211     1516.840     3597.328      795.835        1.041        0.296      121.548       23.737        0.038      336.481        7.811      861.315
11/19/2014  12:07:00       68.965      -39.714       38.720       35.552       57.377       31.014     1263.967     3292.094      961.870        0.667        0.276       79.583       29.919        0.141      336.592        7.997      861.296
11/19/2014  12:08:00       79.029        5.118       31.117       44.336       26.236       25.723     1965.656      688.311      661.656        0.528        0.166       79.195       16.311        0.042      336.460        7.778      861.275
11/19/2014  12:09:00       15.937       21.019       38.343       31.537       27.049       20.126      994.572      731.632      405.060        0.215        0.107       26.378       17.267        0.429      336.667        8.122      861.277
11/19/2014  12:10:00        2.186       50.431        7.523       21.258       21.354       31.327      451.921      455.991      981.362        0.225        0.094       50.479       21.827        0.187      336.563        7.951      861.300
11/19/2014  12:11:00       -6.657        8.731      -16.950       13.140       20.642        7.370      172.647      426.087       54.311        0.053        0.033       10.979        8.202        0.558      336.533        7.898      861.321
11/19/2014  12:12:00        4.026        1.031       11.218        9.554       10.833       14.010       91.270      117.362      196.293        0.027        0.020        4.156        9.374        5.087      336.864        8.453      861.337
11/19/2014  12:13:00       14.692       25.622       20.550       25.414       32.504       30.629      645.859     1056.483      938.120        0.197        0.132       29.536       24.781        0.704      336.790        8.329      861.349
11/19/2014  12:14:00       30.968       53.867       -2.206       22.888       32.965       24.166      523.872     1086.674      583.998        0.303        0.110       62.134       17.843        0.082      336.596        8.005      861.353
11/19/2014  12:15:00       28.270       89.183      -12.456       26.150       35.666       18.963      683.826     1272.089      359.602        0.561        0.116       93.556       23.432        0.063      336.534        7.901      861.331
11/19/2014  12:16:00       -1.840       83.335      -20.665       22.841       28.396       10.968      521.703      806.347      120.293        0.441        0.072       83.356       11.000        0.017      336.448        7.757      861.293
11/19/2014  12:17:00        8.486       61.631       -8.884       15.428       22.225       17.101      238.029      493.969      292.434        0.249        0.051       62.212       11.571        0.035      336.534        7.899      861.281
11/19/2014  12:18:00       18.156       55.886      -11.100       15.295       28.587       21.346      233.947      817.234      455.644        0.254        0.075       58.761       15.550        0.070      336.550        7.928      861.282
11/19/2014  12:19:00       30.833       48.949       -4.348       14.104       22.013       17.599      198.936      484.594      309.708        0.218        0.050       57.851       13.370        0.053      336.622        8.048      861.276
11/19/2014  12:20:00       37.652       37.835        3.243       18.831       16.660       14.834      354.607      277.543      220.034        0.186        0.043       53.377       11.749        0.048      336.618        8.042      861.254
11/19/2014  12:21:00       45.145       25.971       -2.456       21.403       17.525       11.722      458.099      307.124      137.394        0.181        0.045       52.082       11.974        0.053      336.620        8.044      861.238
11/19/2014  12:22:00        3.713       19.638       -7.497       16.070       15.631       12.508      258.234      244.332      156.448        0.056        0.033       19.985        9.256        0.214      336.783        8.317      861.234
11/19/2014  12:23:00      -30.234       44.493      -11.195       31.321       26.161       18.398      981.033      684.400      338.503        0.251        0.100       53.793       21.460        0.159      336.790        8.328      861.240
11/19/2014  12:24:00        0.356       33.952       18.764       16.520       39.040       25.660      272.900     1524.101      658.441        0.198        0.123       33.954       23.342        0.473      337.111        8.864      861.228
11/19/2014  12:25:00      -22.505       57.903       -1.738       21.461       24.013       22.542      460.591      576.622      508.141        0.270        0.077       62.123       18.309        0.087      336.918        8.543      861.224
11/19/2014  12:26:00        3.363       48.137       -3.072       13.714       19.511       15.126      188.087      380.660      228.795        0.157        0.040       48.254       11.791        0.060      336.911        8.530      861.219
11/19/2014  12:27:00       28.120       39.881      -14.297       10.372       11.133       12.486      107.578      123.942      155.911        0.149        0.019       48.798        6.621        0.018      336.747        8.258      861.188
11/19/2014  12:28:00       -4.356       32.674        4.624       11.451       21.583       15.952      131.133      465.831      254.482        0.098        0.043       32.963       16.839        0.261      336.935        8.572      861.165
11/19/2014  12:29:00       -9.324       74.252      -16.270       13.623       18.956       12.615      185.596      359.324      159.142        0.328        0.035       74.835        5.312        0.005      336.713        8.202      861.132
11/19/2014  12:30:00       11.296       84.036       -9.865       17.740       23.807       16.948      314.699      566.767      287.243        0.423        0.058       84.791        4.152        0.002      336.800        8.345      861.085
11/19/2014  12:31:00       30.948       37.959       -7.145       22.443       14.005       18.828      503.667      196.131      354.510        0.175        0.053       48.976        8.931        0.033      336.851        8.431      861.038
11/19/2014  12:32:00       52.679       40.217       -3.977       24.317       22.041       23.293      591.310      485.798      542.583        0.301        0.081       66.276       16.176        0.060      336.875        8.473      861.021
11/19/2014  12:33:00       49.724       46.362       47.168       35.369       33.850       29.698     1250.992     1145.853      881.970        0.506        0.164       67.985       19.192        0.080      337.060        8.779      861.007
11/19/2014  12:34:00      132.179      103.127       46.530       81.561       51.487       53.636     6652.249     2650.871     2876.771        2.122        0.609      167.650       53.047        0.100      336.793        8.331      860.989
11/19/2014  12:35:00       62.140       59.255       50.924       69.839       39.165       42.234     4877.487     1533.891     1783.683        0.908        0.410       85.863       49.799        0.336      336.899        8.510      860.975
11/19/2014  12:36:00       58.896       82.687       55.091       53.936       33.668       44.649     2909.098     1133.527     1993.538        0.969        0.302      101.518       25.776        0.064      336.954        8.602      860.964
11/19/2014  12:37:00       49.912       87.454       86.919       46.240       41.979       48.785     2138.158     1762.204     2379.929        1.199        0.314      100.695       41.930        0.173      337.043        8.750      860.942
11/19/2014  12:38:00       91.498       50.752        4.914       52.031       39.980       34.988     2707.248     1598.364     1224.130        0.825        0.276      104.631       24.091        0.053      336.961        8.614      860.944
11/19/2014  12:39:00       45.277       31.262       13.229       27.912       26.888       27.023      779.059      722.976      730.241        0.272        0.112       55.021       16.525        0.090      336.995        8.670      860.933
11/19/2014  12:40:00       31.066       55.699       -4.156       31.874       36.387       25.622     1015.956     1324.005      656.487        0.354        0.150       63.776       20.215        0.100      336.940        8.579      860.882
11/19/2014  12:41:00       36.156       40.766      -12.137       18.796       34.238       14.217      353.292     1172.238      202.117        0.242        0.086       54.490       10.550        0.037      336.855        8.436      860.866
11/19/2014  12:42:00       47.324       30.173       18.486       21.899       23.967       31.603      479.569      574.399      998.749        0.277        0.103       56.125       22.375        0.159      337.018        8.708      860.875
11/19/2014  12:43:00        8.335      -17.750       34.072       27.671       61.199       34.112      765.698     3745.288     1163.607        0.361        0.284       19.610       34.963        3.179      337.340        9.248      860.869
11/19/2014  12:44:00       47.779       66.084       55.608       49.428       51.025       42.474     2443.117     2603.573     1804.040        0.830        0.343       81.547       37.688        0.214      337.180        8.979      860.852
11/19/2014  12:45:00      123.930       49.740       27.746       42.430       50.844       37.097     1800.273     2585.132     1376.205        1.218        0.288      133.539       23.141        0.030      336.958        8.608      860.830
11/19/2014  12:46:00       26.684       75.507      -10.883       24.431       37.811       23.893      596.881     1429.661      570.854        0.456        0.130       80.083       22.622        0.080      337.034        8.735      860.810
11/19/2014  12:47:00       38.069       37.368       10.071       19.467       17.178       19.210      378.981      295.090      369.041        0.199        0.052       53.344       11.727        0.048      337.060        8.781      860.786
11/19/2014  12:48:00       34.997        6.476       14.510       25.583       25.563       21.027      654.511      653.448      442.139        0.161        0.088       35.591       13.630        0.147      337.237        9.074      860.778
11/19/2014  12:49:00       19.569        5.545       10.505       29.439       22.677       20.286      866.668      514.226      411.532        0.116        0.090       20.339       18.149        0.796      337.406        9.358      860.778
11/19/2014  12:50:00       62.024       74.779       88.994       51.908       45.944       44.011     2694.456     2110.848     1936.927        1.205        0.337       97.154       34.876        0.129      337.224        9.054      860.754
11/19/2014  12:51:00      140.956       82.021       40.186       75.991       58.134       58.573     5774.642     3379.611     3430.766        2.040        0.629      163.083       52.613        0.104      337.180        8.978      860.702
11/19/2014  12:52:00       41.354       50.302       55.072       49.329       49.519       43.227     2433.369     2452.107     1868.574        0.701        0.338       65.119       42.915        0.434      337.249        9.094      860.718
11/19/2014  12:53:00       66.958      100.357       85.961       62.631       59.443       59.600     3922.593     3533.522     3552.114        1.647        0.550      120.644       54.143        0.201      337.098        8.842      860.754
11/19/2014  12:54:00       63.366       50.854       54.810       52.530       45.872       37.503     2759.357     2104.270     1406.472        0.794        0.314       81.249       31.766        0.153      337.235        9.073      860.776
11/19/2014  12:55:00       51.010       26.528       47.410       43.389       34.993       36.751     1882.582     1224.489     1350.643        0.500        0.223       57.495       24.337        0.179      337.213        9.037      860.803
11/19/2014  12:56:00        7.103       20.663       31.690       25.359       40.020       37.227      643.057     1601.580     1385.883        0.256        0.182       21.849       29.815        1.862      337.490        9.498      860.804
11/19/2014  12:57:00       63.803       53.869       13.152       35.731       30.185       28.955     1276.712      911.147      838.365        0.509        0.151       83.503       16.612        0.040      337.183        8.985      860.762
11/19/2014  12:58:00       67.905       58.432        6.078       68.243       31.102       26.018     4657.161      967.342      676.916        0.718        0.315       89.584       15.412        0.030      337.195        9.005      860.710
11/19/2014  12:59:00       37.004       31.302       38.685       52.383       46.489       43.131     2743.941     2161.240     1860.298        0.530        0.338       48.468       35.999        0.552      337.573        9.638      860.694
11/19/2014  13:00:00       45.887       46.845       34.366       72.614       32.362       27.557     5272.736     1047.321      759.395        0.628        0.354       65.575       22.911        0.122      337.615        9.709      860.684
11/19/2014  13:01:00      122.116       78.298       14.891       47.304       37.170       34.601     2237.666     1381.588     1197.217        1.304        0.241      145.061       17.208        0.014      337.206        9.023      860.683
11/19/2014  13:02:00      111.284       51.099       15.340       41.280       41.267       30.241     1704.017     1702.938      914.499        0.978        0.216      122.455        9.781        0.006      337.236        9.075      860.675
11/19/2014  13:03:00       74.551       47.400       31.008       59.883       48.944       44.047     3585.938     2395.562     1940.129        0.834        0.396       88.343       37.937        0.184      337.355        9.275      860.671
11/19/2014  13:04:00      103.213       77.681       38.924       51.185       26.593       32.736     2619.869      707.208     1071.636        1.130        0.220      129.179       27.563        0.046      337.344        9.255      860.660
11/19/2014  13:05:00       27.777       85.682       -7.460       28.218       24.198       24.417      796.256      585.552      596.186        0.507        0.099       90.073       16.697        0.034      337.181        8.979      860.621
11/19/2014  13:06:00       11.574      107.484      -24.707       25.164       30.223       17.271      633.213      913.424      298.293        0.707        0.092      108.106       10.684        0.010      337.136        8.907      860.602
11/19/2014  13:07:00       19.056      115.788      -19.730       20.430       24.938       13.908      417.367      621.914      193.426        0.770        0.062      117.345       10.920        0.009      337.140        8.914      860.587
11/19/2014  13:08:00       18.103       97.427      -15.365       22.404       26.153       16.722      501.953      683.975      279.636        0.576        0.073       99.094       11.158        0.013      337.219        9.045      860.564
11/19/2014  13:09:00       67.611       80.367        1.078       45.170       45.616       35.571     2040.350     2080.789     1265.299        0.821        0.269      105.024       29.210        0.077      337.317        9.209      860.553
11/19/2014  13:10:00       43.854       79.825      -10.720       40.400       37.784       29.585     1632.137     1427.659      875.262        0.617        0.197       91.078       20.122        0.049      337.277        9.144      860.547
11/19/2014  13:11:00       20.772       58.627       -8.929       35.656       55.559       23.713     1271.332     3086.767      562.293        0.443        0.246       62.198       17.017        0.075      337.345        9.256      860.523
11/19/2014  13:12:00       63.188       42.071        5.823       30.237       20.492       19.017      914.270      419.941      361.629        0.375        0.085       75.913        8.298        0.012      337.363        9.286      860.527
11/19/2014  13:13:00       77.936       32.688       37.613       51.063       33.409       35.163     2607.391     1116.174     1236.446        0.676        0.248       84.513       26.257        0.097      337.395        9.341      860.532
11/19/2014  13:14:00       50.458       46.469       41.422       73.199       44.569       38.100     5358.067     1986.416     1451.595        0.761        0.440       68.596       33.676        0.241      337.515        9.542      860.523
11/19/2014  13:15:00      108.622       58.224       23.408       50.739       31.558       32.655     2574.452      995.880     1066.319        1.019        0.232      123.243       19.918        0.026      337.274        9.138      860.517
11/19/2014  13:16:00       67.136       42.490       17.050       27.973       19.631       23.808      782.476      385.376      566.821        0.417        0.087       79.452       10.563        0.018      337.263        9.121      860.496
11/19/2014  13:17:00       44.095       40.689       -1.135       23.283       15.209       18.012      542.089      231.321      324.437        0.235        0.055       60.000        6.925        0.013      337.288        9.163      860.478
11/19/2014  13:18:00       33.950       25.955       -7.557       24.964       15.443       13.930      623.215      238.496      194.049        0.147        0.053       42.735       10.124        0.056      337.272        9.135      860.471
11/19/2014  13:19:00       35.758       25.094       10.215       44.455       23.751       16.619     1976.219      564.101      276.204        0.241        0.141       43.684       12.742        0.085      337.386        9.326      860.475
11/19/2014  13:20:00       61.615       62.118       50.214       40.748       28.590       24.959     1660.385      817.391      622.973        0.664        0.155       87.493       20.436        0.055      337.407        9.360      860.480
11/19/2014  13:21:00       82.327       48.996       22.994       28.623       17.027       27.479      819.272      289.920      755.122        0.579        0.093       95.804       21.088        0.048      337.311        9.198      860.489
11/19/2014  13:22:00       25.503       27.644       -1.761       28.337       14.810       13.962      802.967      219.347      194.950        0.132        0.061       37.611        7.702        0.042      337.276        9.140      860.484
11/19/2014  13:23:00       72.004       39.602        8.841       38.061       28.099       23.820     1448.643      789.566      567.394        0.482        0.140       82.176       21.387        0.068      337.470        9.465      860.483
11/19/2014  13:24:00       90.371       34.110       14.075       25.653       32.722       30.754      658.053     1070.703      945.825        0.610        0.134       96.594       17.205        0.032      337.418        9.378      860.481
11/19/2014  13:25:00       48.608       29.972       33.222       43.332       41.140       31.072     1877.688     1692.511      965.495        0.445        0.227       57.105       26.210        0.211      337.501        9.518      860.467
11/19/2014  13:26:00       88.027       70.381       54.645       62.220       57.297       58.227     3871.312     3282.926     3390.352        1.311        0.527      112.704       54.224        0.231      337.431        9.400      860.442
11/19/2014  13:27:00       72.602       64.214       20.200       37.649       26.407       27.389     1417.425      697.326      750.155        0.633        0.143       96.925       16.452        0.029      337.424        9.390      860.406
11/19/2014  13:28:00       77.682       70.403        0.307       23.462       17.495       14.054      550.471      306.091      197.525        0.602        0.053      104.838       14.391        0.019      337.297        9.176      860.348
11/19/2014  13:29:00       23.124       18.476       16.037       18.708       20.265       17.062      350.002      410.656      291.100        0.109        0.053       29.598       10.740        0.132      337.513        9.538      860.320
11/19/2014  13:30:00       23.998       28.415       17.089       16.937       28.136       22.588      286.862      791.626      510.214        0.163        0.079       37.193       10.972        0.087      337.499        9.512      860.314
11/19/2014  13:31:00       76.439       41.834       26.963       30.368       24.867       23.714      922.232      618.350      562.356        0.521        0.105       87.138       16.861        0.037      337.471        9.467      860.317
11/19/2014  13:32:00       85.622       36.124       13.606       37.939       20.804       23.879     1439.341      432.824      570.228        0.563        0.122       92.930       19.410        0.044      337.415        9.375      860.313
11/19/2014  13:33:00       47.225       40.333        9.449       18.996       22.013       20.575      360.866      484.583      423.318        0.261        0.063       62.105       13.290        0.046      337.416        9.376      860.309
11/19/2014  13:34:00       56.601       34.657        6.567       24.369       22.770       22.292      593.861      518.493      496.931        0.303        0.080       66.368       13.744        0.043      337.414        9.370      860.298
11/19/2014  13:35:00       31.033       24.786       -0.034       21.941       18.241       13.636      481.395      332.733      185.931        0.129        0.050       39.716       12.002        0.091      337.467        9.461      860.298
11/19/2014  13:36:00       -0.830       38.482       -4.659       21.264       18.097       12.666      452.166      327.505      160.436        0.122        0.047       38.491        8.583        0.050      337.461        9.450      860.295
11/19/2014  13:37:00        4.210       46.592       -6.512       18.453       21.643       12.955      340.509      468.410      167.821        0.160        0.049       46.782        2.773        0.004      337.513        9.537      860.308
11/19/2014  13:38:00       10.308       58.922      -12.027       16.508       16.856        9.147      272.529      284.133       83.665        0.218        0.032       59.816       10.013        0.028      337.440        9.416      860.318
11/19/2014  13:39:00       20.994       79.436      -10.203       22.970       25.726       12.399      527.633      661.822      153.731        0.410        0.067       82.163        9.169        0.012      337.569        9.631      860.303
11/19/2014  13:40:00       -5.288       67.453       -7.833       25.143       34.161       13.982      632.167     1166.991      195.497        0.332        0.100       67.660       13.606        0.040      337.524        9.556      860.284
11/19/2014  13:41:00        4.318       48.047        0.511       16.942       18.482       17.075      287.030      341.583      291.541        0.162        0.046       48.241       12.700        0.069      337.599        9.682      860.264
11/19/2014  13:42:00        2.656       79.772      -10.349       17.195       29.697        9.435      295.656      881.890       89.023        0.387        0.063       79.816       11.485        0.021      337.552        9.603      860.251
11/19/2014  13:43:00      -27.140       34.739       -4.915       21.084       32.151       20.427      444.526     1033.713      417.250        0.193        0.095       44.084       14.535        0.109      337.876       10.145      860.234
11/19/2014  13:44:00      -44.310        1.650       -6.286       31.117       26.645       17.941      968.282      709.947      321.897        0.200        0.100       44.341       11.115        0.063      337.942       10.257      860.226
11/19/2014  13:45:00       -3.599      -13.552        1.547       15.423       16.647       10.922      237.869      277.123      119.293        0.042        0.032       14.022        5.148        0.135      337.934       10.244      860.221
11/19/2014  13:46:00        9.759      -12.694        3.100       23.801       17.385       19.606      566.508      302.237      384.386        0.076        0.063       16.012       13.453        0.706      338.078       10.485      860.220
11/19/2014  13:47:00      -33.061      -29.529        6.872       39.657       30.408       23.246     1572.682      924.624      540.393        0.252        0.152       44.328       21.450        0.234      337.922       10.224      860.218
11/19/2014  13:48:00      -18.599      -28.920       14.671       36.136       33.542       23.271     1305.783     1125.092      541.524        0.218        0.149       34.384       22.437        0.426      338.096       10.516      860.218
11/19/2014  13:49:00      -16.429      -39.266       21.073       36.754       37.056       23.854     1350.887     1373.163      568.992        0.277        0.165       42.564       15.593        0.134      338.083       10.494      860.208
11/19/2014  13:50:00      -46.900       -5.696       13.814       43.874       49.377       27.421     1924.888     2438.055      751.931        0.377        0.256       47.244       18.082        0.146      338.118       10.552      860.197
11/19/2014  13:51:00      -15.557       11.972       18.077       19.773       18.266       13.435      390.964      333.652      180.494        0.081        0.045       19.630        3.648        0.035      338.590       11.345      860.179
11/19/2014  13:52:00      -28.874       75.104        0.102       23.727       36.113       20.645      562.977     1304.163      426.204        0.438        0.115       80.463       12.055        0.022      337.998       10.351      860.160
11/19/2014  13:53:00       -2.615       66.484      -20.118       40.711       26.930       15.403     1657.369      725.232      237.246        0.373        0.131       66.535       16.842        0.064      337.837       10.081      860.158
11/19/2014  13:54:00       12.680       14.198      -10.045       13.883       25.475       15.020      192.748      648.957      225.607        0.077        0.053       19.035        9.161        0.232      337.950       10.270      860.169
11/19/2014  13:55:00      -11.941      -35.388        7.987       41.568       19.487       18.805     1727.927      379.753      353.615        0.196        0.123       37.348       11.452        0.094      338.005       10.363      860.179
11/19/2014  13:56:00      -91.214      -51.527       -9.279       21.684       14.782       13.576      470.186      218.508      184.319        0.597        0.044      104.762        8.116        0.006      337.927       10.233      860.189
11/19/2014  13:57:00      -71.314       11.559       -8.492       33.768       47.989       18.778     1140.246     2302.896      352.619        0.454        0.190       72.244       20.511        0.081      338.090       10.506      860.191
11/19/2014  13:58:00      -75.306       51.584      -16.440       17.147       16.087       14.514      294.036      258.784      210.665        0.468        0.038       91.279        7.367        0.007      338.023       10.393      860.209
11/19/2014  13:59:00      -47.237       25.277      -14.435       13.175       17.954        8.970      173.591      322.341       80.457        0.183        0.029       53.574        7.995        0.022      337.955       10.279      860.231
11/19/2014  14:00:00      -38.177      -13.304       -4.221       17.484       23.971       13.866      305.692      574.606      192.260        0.136        0.054       40.429       14.464        0.128      338.068       10.468      860.236
11/19/2014  14:01:00        6.617       -6.500        8.983       15.394       11.807       14.927      236.965      139.412      222.827        0.038        0.030        9.276        4.932        0.283      338.217       10.718      860.227
11/19/2014  14:02:00       -4.528      -22.374       15.500       32.464       30.885       19.229     1053.902      953.859      369.759        0.157        0.119       22.828       18.266        0.640      338.373       10.982      860.221
11/19/2014  14:03:00      -52.991      -34.934        0.902       28.747       15.483       18.351      826.388      239.730      336.751        0.272        0.070       63.469       12.951        0.042      338.127       10.568      860.214
11/19/2014  14:04:00      -19.380      -47.120        1.504       24.281       29.246       17.390      589.584      855.344      302.406        0.217        0.087       50.950       18.804        0.136      338.179       10.654      860.199
11/19/2014  14:05:00      -43.104      -48.865       -5.190       37.975       27.252       17.611     1442.081      742.683      310.152        0.338        0.125       65.160       14.266        0.048      338.165       10.630      860.182
11/19/2014  14:06:00      -94.000      -65.528       -3.513       35.407       23.693       14.456     1253.689      561.375      208.987        0.758        0.101      114.586        7.093        0.004      338.044       10.428      860.167
11/19/2014  14:07:00      -90.285      -40.122       -4.963       30.777       29.284       16.948      947.220      857.581      287.220        0.594        0.105       98.799       14.793        0.022      338.110       10.539      860.154
11/19/2014  14:08:00      -92.866      -57.335       -5.357       24.101       24.482       16.811      580.866      599.362      282.616        0.670        0.073      109.139       11.690        0.011      338.103       10.526      860.133
11/19/2014  14:09:00      -81.477      -71.381       -8.699       30.812       18.845       15.370      949.363      355.127      236.242        0.667        0.077      108.322       16.793        0.024      338.081       10.490      860.120
11/19/2014  14:10:00      -74.009      -52.984      -12.048       14.989       10.075        9.585      224.672      101.497       91.868        0.442        0.021       91.020        6.647        0.005      338.045       10.429      860.108
11/19/2014  14:11:00      -34.065      -36.403       -3.419       18.544       22.166       13.115      343.872      491.344      172.010        0.175        0.050       49.856       12.015        0.058      338.109       10.538      860.085
11/19/2014  14:12:00      -11.582        8.265        5.310       11.748        8.556       18.673      138.012       73.211      348.676        0.040        0.028       14.229       12.501        0.772      338.238       10.753      860.043
11/19/2014  14:13:00       13.195        8.579       15.691       17.653        8.670       12.052      311.613       75.164      145.240        0.051        0.027       15.739        3.311        0.044      338.290       10.842      860.016
11/19/2014  14:14:00       -6.975       69.314      -10.586       33.114       29.426       13.890     1096.557      865.890      192.945        0.356        0.108       69.664       12.696        0.033      338.259       10.789      860.004
11/19/2014  14:15:00       26.690       55.000       -5.438       30.480       41.496       23.089      929.019     1721.902      533.104        0.347        0.159       61.134       25.739        0.177      338.259       10.790      860.000
11/19/2014  14:16:00       94.554       53.327       10.104       35.009       37.784       31.160     1225.627     1427.607      970.954        0.775        0.181      108.555       17.202        0.025      338.234       10.748      859.990
11/19/2014  14:17:00       88.876       72.912       -0.280       36.682       27.384       21.281     1345.596      749.910      452.868        0.788        0.127      114.957       12.321        0.011      338.187       10.668      859.975
11/19/2014  14:18:00      118.991       74.397       34.207       70.205       47.482       39.600     4928.776     2254.502     1568.142        1.481        0.438      140.334       34.037        0.059      338.236       10.749      859.961
11/19/2014  14:19:00      130.756       78.954        5.225       60.264       52.402       37.462     3631.736     2745.940     1403.389        1.557        0.389      152.744       25.245        0.027      338.182       10.658      859.979
11/19/2014  14:20:00       73.706       51.274        5.593       43.826       38.384       25.542     1920.714     1473.322      652.416        0.607        0.202       89.787       20.389        0.052      338.264       10.796      860.009
11/19/2014  14:21:00       30.947       64.657       68.729       51.104       52.974       43.543     2611.610     2806.242     1896.035        0.859        0.366       71.681       33.196        0.214      338.294       10.847      860.045
11/19/2014  14:22:00       94.980       74.849       41.666       39.305       24.451       30.191     1544.865      597.843      911.524        0.971        0.153      120.928       25.217        0.043      338.209       10.705      860.077
11/19/2014  14:23:00       12.640       28.386       41.051       36.063       33.829       31.148     1300.557     1144.415      970.169        0.303        0.171       31.073       30.568        0.968      338.376       10.986      860.085
11/19/2014  14:24:00       83.826       79.146       29.342       48.617       26.540       42.237     2363.629      704.394     1783.962        0.950        0.243      115.287       34.841        0.091      338.281       10.825      860.107
11/19/2014  14:25:00       42.228       43.384        9.184       36.864       26.804       16.623     1358.941      718.441      276.324        0.305        0.118       60.542       19.075        0.099      338.202       10.692      860.162
11/19/2014  14:26:00      -21.857        1.017       -2.060       19.927       21.917        6.811      397.076      480.336       46.384        0.070        0.046       21.881        4.910        0.050      338.315       10.883      860.216
11/19/2014  14:27:00      -76.327       -8.163        6.798       43.526       46.041       22.104     1894.513     2119.769      488.606        0.522        0.225       76.762       19.798        0.067      338.516       11.219      860.239
11/19/2014  14:28:00      -19.245       85.975      -19.719       17.029       17.468       13.663      289.989      305.128      186.675        0.447        0.039       88.103        9.169        0.011      338.214       10.712      860.240
11/19/2014  14:29:00       37.734       64.412       -0.882       34.290       30.198       20.761     1175.790      911.910      431.035        0.405        0.126       74.651       12.000        0.026      338.299       10.856      860.237
11/19/2014  14:30:00       79.535       63.955       24.150       46.123       33.653       37.433     2127.294     1132.499     1401.206        0.783        0.233      102.059       22.236        0.047      338.298       10.853      860.230
11/19/2014  14:31:00       74.455      128.897       98.725       62.998       52.342       48.789     3968.788     2739.645     2380.325        2.049        0.454      148.856       47.739        0.103      338.260       10.789      860.234
11/19/2014  14:32:00      103.800       72.621       54.640       48.532       34.509       38.214     2355.333     1190.858     1460.284        1.202        0.250      126.681       27.475        0.047      338.222       10.726      860.251
11/19/2014  14:33:00        8.594       36.818       43.964       39.302       37.925       34.161     1544.667     1438.322     1166.980        0.376        0.207       37.808       23.038        0.371      338.433       11.082      860.249
11/19/2014  14:34:00        1.441       24.374       35.460       15.047       32.119       18.064      226.410     1031.645      326.299        0.172        0.079       24.416       18.072        0.548      338.418       11.056      860.229
11/19/2014  14:35:00       72.202       58.999       31.538       28.079       20.766       22.699      788.413      431.234      515.255        0.571        0.087       93.241       16.688        0.032      338.308       10.872      860.202
11/19/2014  14:36:00       59.217       31.731       13.967       32.125       20.692       25.605     1032.033      428.156      655.629        0.341        0.106       67.183       17.296        0.066      338.367       10.970      860.172
11/19/2014  14:37:00       63.825        4.800       12.396       24.751       22.463       19.337      612.616      504.565      373.925        0.287        0.075       64.005       11.873        0.034      338.281       10.827      860.158
11/19/2014  14:38:00       36.438       21.209        8.882       21.860       17.171       11.894      477.873      294.832      141.474        0.139        0.046       42.161        6.724        0.025      338.274       10.815      860.140
11/19/2014  14:39:00       14.028       -2.021       -1.987        7.726       12.711        6.488       59.694      161.581       42.088        0.023        0.013       14.173        3.143        0.049      338.304       10.866      860.149
11/19/2014  14:40:00        0.173      -13.472        4.883       11.946       12.952       13.960      142.716      167.761      194.871        0.036        0.025       13.473       10.479        0.605      338.409       11.039      860.158
11/19/2014  14:41:00       40.722      -13.003       12.475       33.652       36.384       30.902     1132.485     1323.785      954.916        0.270        0.171       42.747       27.443        0.412      338.461       11.128      860.155
11/19/2014  14:42:00       24.459       43.516       57.049       26.209       22.188       14.217      686.935      492.300      202.124        0.356        0.069       49.919       10.284        0.042      338.467       11.139      860.144
11/19/2014  14:43:00       18.000       53.299       62.290       27.168       29.653       19.849      738.110      879.308      393.995        0.453        0.101       56.257       19.789        0.124      338.515       11.218      860.114
11/19/2014  14:44:00      -11.803        1.365       45.571       20.405       45.374       28.807      416.381     2058.831      829.825        0.276        0.165       11.882       26.087        4.820      338.635       11.419      860.087
11/19/2014  14:45:00        6.503      -10.043       30.626       20.216       25.350       20.127      408.699      642.648      405.106        0.127        0.073       11.964       13.759        1.322      338.688       11.509      860.118
11/19/2014  14:46:00       18.522      -42.128       -8.143       34.388       31.585       18.955     1182.519      997.586      359.274        0.236        0.127       46.020       22.896        0.248      338.642       11.431      860.167
11/19/2014  14:47:00      -40.598      -39.593       -0.866       30.417       21.217       18.324      925.219      450.166      335.774        0.246        0.086       56.708        9.791        0.030      338.613       11.382      860.194
11/19/2014  14:48:00       -8.727      -13.700        3.640       18.100       11.941       16.278      327.628      142.582      264.982        0.051        0.037       16.243        5.253        0.105      338.753       11.619      860.192
11/19/2014  14:49:00       -9.460      -14.290        8.813       47.282       43.330       18.718     2235.632     1877.467      350.359        0.242        0.223       17.137       21.784        1.616      338.805       11.705      860.164
11/19/2014  14:50:00       31.809       26.952       18.398       20.317       19.772       23.431      412.785      390.937      549.000        0.171        0.068       41.692       16.187        0.151      338.760       11.629      860.129
11/19/2014  14:51:00      -13.972        0.271       19.207       24.437       24.854       22.569      597.154      617.741      509.354        0.114        0.086       13.975       21.384        2.341      338.893       11.853      860.124
11/19/2014  14:52:00      -56.801      -56.270       -1.366       32.432       39.036       22.588     1051.809     1523.830      510.205        0.474        0.154       79.954       16.170        0.041      338.980       12.002      860.149
11/19/2014  14:53:00      -10.415      -22.537       12.051       49.130       27.221       21.930     2413.794      740.993      480.943        0.220        0.182       24.827       16.137        0.422      339.080       12.167      860.165
11/19/2014  14:54:00      -91.488     -108.599        6.008       63.281       71.992       27.171     4004.523     5182.895      738.269        1.506        0.496      141.999       26.138        0.034      338.980       12.000      860.185
11/19/2014  14:55:00     -104.126     -145.299       -4.784       65.472       54.969       34.462     4286.604     3021.541     1187.663        2.023        0.425      178.757       35.644        0.040      338.890       11.845      860.199
11/19/2014  14:56:00      -78.927     -140.206       -3.516       57.466       38.917       34.506     3302.305     1514.567     1190.638        1.595        0.300      160.895       29.173        0.033      338.895       11.857      860.216
11/19/2014  14:57:00      -48.079     -160.381        1.794       29.102       31.730       20.790      846.915     1006.824      432.241        1.516        0.114      167.433       13.502        0.007      338.895       11.857      860.216
11/19/2014  14:58:00      -35.501      -83.839       -0.365       26.598       35.491       17.961      707.437     1259.604      322.583        0.529        0.114       91.045        9.622        0.011      338.959       11.965      860.210
11/19/2014  14:59:00      -53.286     -124.945      -12.227       39.013       40.382       23.113     1522.038     1630.676      534.229        1.114        0.184      135.833       19.089        0.020      338.975       11.993      860.213
11/19/2014  15:00:00     -114.897      -85.736       -9.334       49.788       41.741       19.872     2478.826     1742.344      394.897        1.263        0.231      143.360       21.235        0.022      338.953       11.955      860.225
11/19/2014  15:01:00      -60.102      -65.658        4.139       33.644       30.001       19.956     1131.931      900.088      398.261        0.518        0.122       89.012       14.155        0.025      338.937       11.928      860.218
11/19/2014  15:02:00      -42.340      -60.156       -4.229       33.404       52.106       16.159     1115.839     2715.065      261.126        0.476        0.205       73.562       17.290        0.055      338.968       11.981      860.196
11/19/2014  15:03:00       18.823       20.412       19.899       27.910       20.108       18.778      778.965      404.314      352.595        0.135        0.077       27.766       13.250        0.228      339.054       12.125      860.162
11/19/2014  15:04:00        8.335      -45.136       37.070       56.790       85.949       40.395     3225.063     7387.244     1631.747        0.786        0.612       45.899       45.105        0.966      339.010       12.051      860.138
11/19/2014  15:05:00       65.099       -4.661       47.146       68.816       81.760       49.753     4735.699     6684.621     2475.333        1.019        0.695       65.266       58.931        0.815      338.848       11.778      860.135
11/19/2014  15:06:00       63.696      -51.765       28.104       65.637       63.861       50.630     4308.230     4078.178     2563.436        0.924        0.547       82.078       52.427        0.408      338.871       11.816      860.125
11/19/2014  15:07:00       13.830        2.324       38.698       40.048       57.938       42.365     1603.803     3356.870     1794.798        0.422        0.338       14.023       35.194        6.298      338.894       11.856      860.097
11/19/2014  15:08:00       70.127       -6.954       34.232       39.003       85.652       37.115     1521.265     7336.261     1377.534        0.818        0.512       70.471       49.603        0.495      338.798       11.695      860.056
11/19/2014  15:09:00       93.353       32.545       40.049       70.721       47.438       43.002     5001.479     2250.358     1849.170        1.024        0.455       98.863       33.018        0.112      338.741       11.600      860.044
11/19/2014  15:10:00      109.651       63.130       25.391       43.374       26.562       28.398     1881.290      705.563      806.437        1.002        0.170      126.526       17.130        0.018      338.689       11.511      860.077
11/19/2014  15:11:00       52.350       11.265       15.075       32.298       34.022       13.718     1043.154     1157.530      188.184        0.274        0.119       53.548       10.857        0.041      338.768       11.644      860.141
11/19/2014  15:12:00       -0.257       -3.527        4.307        7.226       10.088        7.480       52.219      101.765       55.949        0.012        0.010        3.536        4.687        1.757      338.802       11.701      860.209
11/19/2014  15:13:00       29.503       16.310       -1.959       19.843       12.599       13.121      393.762      158.747      172.158        0.093        0.036       33.711        8.040        0.057      338.760       11.630      860.277
11/19/2014  15:14:00       26.004       -3.374        5.959       18.529       34.796       16.244      343.330     1210.758      263.861        0.127        0.091       26.222       18.430        0.494      338.798       11.695      860.341
11/19/2014  15:15:00       -5.593      -46.862       -4.737       45.436       16.324       13.143     2064.407      266.480      172.730        0.238        0.125       47.195        8.112        0.030      338.835       11.756      860.377
11/19/2014  15:16:00      -16.187       -4.378        4.806       23.129       24.589       20.791      534.946      604.600      432.252        0.094        0.079       16.769       13.447        0.643      338.897       11.860      860.363
11/19/2014  15:17:00       16.009       25.988       25.329       16.635       22.322       27.707      276.715      498.254      767.704        0.156        0.077       30.523       21.249        0.485      338.875       11.824      860.317
11/19/2014  15:18:00       10.090       14.398       48.516       25.044       28.931       23.437      627.186      836.998      549.304        0.234        0.101       17.582       21.309        1.469      338.934       11.922      860.296
11/19/2014  15:19:00       51.480      -29.524       -0.300       22.719       24.926       21.951      516.135      621.301      481.830        0.257        0.081       59.345       17.488        0.087      338.851       11.784      860.313
11/19/2014  15:20:00       41.958      -31.442        0.214       26.367       47.475       21.240      695.214     2253.896      451.128        0.307        0.170       52.431       24.701        0.222      338.867       11.811      860.345
11/19/2014  15:21:00      -33.177      -23.083        4.242       27.342       17.696       16.787      747.592      313.161      281.812        0.150        0.067       40.417       13.047        0.104      338.936       11.927      860.396
11/19/2014  15:22:00      -11.963        8.192        8.710       24.379       17.364       19.172      594.357      301.515      367.567        0.077        0.063       14.499        9.992        0.475      338.918       11.897      860.437
11/19/2014  15:23:00       -9.910        9.516       23.206       11.029       12.303       14.666      121.641      151.374      215.094        0.061        0.024       13.739        8.154        0.352      339.004       12.042      860.458
11/19/2014  15:24:00       -7.482        1.296       14.003       10.200       11.547        8.374      104.040      133.326       70.125        0.028        0.015        7.593        4.411        0.338      339.023       12.071      860.454
11/19/2014  15:25:00        5.834       13.670       11.253       24.251       21.403       20.536      588.116      458.096      421.743        0.091        0.073       14.863       11.251        0.573      339.001       12.035      860.432
11/19/2014  15:26:00      -15.973       34.001       15.976       26.733       21.190       17.751      714.636      449.025      315.089        0.157        0.074       37.566       13.088        0.121      339.024       12.075      860.414
11/19/2014  15:27:00       -1.487      117.742      -26.453       15.222       33.600       14.369      231.719     1128.963      206.477        0.807        0.078      117.751       14.709        0.016      338.824       11.739      860.406
11/19/2014  15:28:00       16.076       19.598      -12.092       33.265       36.203       21.288     1106.592     1310.648      453.158        0.183        0.144       25.348       20.659        0.664      338.830       11.747      860.405
11/19/2014  15:29:00       51.114       25.334        2.446       23.843       17.885       26.887      568.488      319.880      722.915        0.244        0.081       57.048       17.360        0.093      338.765       11.640      860.420
11/19/2014  15:30:00       10.754       11.828       19.701       19.777       20.846       20.517      391.124      434.548      420.950        0.094        0.062       15.985       18.098        1.282      338.856       11.792      860.431
11/19/2014  15:31:00       11.324       22.779       41.711       34.666       30.887       22.596     1201.715      954.034      510.576        0.253        0.133       25.438       23.604        0.861      338.855       11.789      860.432
11/19/2014  15:32:00       22.500       30.861       27.965       30.183       17.444       26.286      911.039      304.288      690.955        0.207        0.095       38.192       16.103        0.178      338.852       11.786      860.427
11/19/2014  15:33:00        8.282        3.559       15.869       20.497       10.322       14.234      420.117      106.551      202.612        0.053        0.036        9.014        9.026        1.003      338.983       12.004      860.433
11/19/2014  15:34:00       20.211        3.161        8.150       35.266       18.844       12.160     1243.686      355.100      147.856        0.112        0.087       20.457        8.308        0.165      338.882       11.836      860.458
11/19/2014  15:35:00       79.468       21.007       11.529       22.071       15.481       15.853      487.123      239.660      251.323        0.393        0.049       82.198       12.920        0.025      338.826       11.741      860.484
11/19/2014  15:36:00       50.347       15.693        5.010       22.596       25.936       18.986      510.584      672.688      360.450        0.217        0.077       52.736       12.694        0.058      338.820       11.729      860.516
11/19/2014  15:37:00       17.405      -10.974        4.753       14.087       10.290        9.430      198.450      105.890       88.931        0.042        0.020       20.575        6.698        0.106      338.859       11.796      860.554
11/19/2014  15:38:00       -0.038      -22.716       -5.783       20.711       17.753       13.200      428.958      315.159      174.231        0.073        0.046       22.717        7.454        0.108      338.972       11.988      860.593
11/19/2014  15:39:00      -32.827      -14.079       -9.871       30.379       17.054       15.512      922.910      290.855      240.609        0.141        0.073       35.718       14.117        0.156      339.025       12.074      860.613
11/19/2014  15:40:00        2.200      -10.338       -2.053       26.544       20.343       15.396      704.606      413.852      237.035        0.074        0.068       10.570       12.057        1.301      339.189       12.353      860.606
11/19/2014  15:41:00        6.322      -13.743        6.121       24.468       15.016       17.168      598.675      225.494      294.745        0.069        0.056       15.127       17.538        1.344      338.949       11.948      860.604
11/19/2014  15:42:00      -35.134      -52.227      -16.987       36.474       22.844       13.289     1330.335      521.846      176.590        0.314        0.101       62.945       15.095        0.058      339.070       12.151      860.613
11/19/2014  15:43:00     -109.786      -77.480       -3.974       41.277       49.688       26.895     1703.807     2468.856      723.353        1.148        0.245      134.373       23.437        0.030      339.183       12.342      860.609
11/19/2014  15:44:00      -76.550      -44.672        5.816       59.711       35.547       24.310     3565.363     1263.622      590.974        0.665        0.271       88.631       23.635        0.071      339.220       12.403      860.598
11/19/2014  15:45:00     -101.660      -50.469        7.759       59.528       40.004       31.597     3543.629     1600.351      998.396        0.954        0.307      113.498       25.483        0.050      339.246       12.447      860.588
11/19/2014  15:46:00     -119.966      -76.913      -12.873       53.898       30.747       24.870     2904.987      945.402      618.503        1.247        0.223      142.504       24.171        0.029      339.275       12.496      860.568
11/19/2014  15:47:00       -9.186      -44.697        4.268       63.571       29.843       16.419     4041.246      890.625      269.592        0.365        0.260       45.631        9.623        0.044      339.348       12.619      860.538
11/19/2014  15:48:00      -30.497      -25.442       -5.037       48.181       57.379       24.459     2321.396     3292.308      598.238        0.391        0.311       39.716       19.429        0.239      339.379       12.671      860.516
11/19/2014  15:49:00       -3.159      -53.756       -1.479       23.587       31.821       15.900      556.344     1012.575      252.806        0.236        0.091       53.848        9.673        0.032      339.334       12.595      860.525
11/19/2014  15:50:00      -16.509      -34.380       -4.829       24.154       17.182       12.626      583.428      295.220      159.416        0.126        0.052       38.138        7.314        0.037      339.321       12.571      860.539
11/19/2014  15:51:00        4.335       -0.770        7.659       19.120       16.816       14.882      365.558      282.787      221.460        0.047        0.043        4.403       12.410        7.945      339.361       12.641      860.550
11/19/2014  15:52:00       14.752      -10.081       19.045       22.322       27.909       15.006      498.267      778.917      225.183        0.109        0.075       17.868       12.457        0.486      339.320       12.572      860.568
11/19/2014  15:53:00      -16.959        3.688        4.229       27.123       17.181       14.486      735.673      295.202      209.838        0.078        0.062       17.356        7.106        0.168      339.305       12.546      860.577
11/19/2014  15:54:00       -2.070        4.312       -0.958       12.009       26.025       14.385      144.214      677.297      206.921        0.053        0.051        4.783       13.694        8.197      339.221       12.406      860.573
11/19/2014  15:55:00       26.098      -37.425        3.763       25.842       32.165       23.009      667.830     1034.594      529.430        0.216        0.112       45.626       21.008        0.212      339.209       12.386      860.571
11/19/2014  15:56:00        7.971      -52.233       -0.539       66.754       28.015       21.007     4456.163      784.827      441.291        0.424        0.284       52.837       16.864        0.102      339.243       12.444      860.586
11/19/2014  15:57:00     -141.098      -81.238       -8.665       37.028       35.111       21.378     1371.084     1232.803      457.019        1.482        0.153      162.813       15.725        0.009      339.243       12.444      860.604
11/19/2014  15:58:00      -93.079      -52.740      -12.898       46.335       24.879       24.477     2146.949      618.980      599.136        0.749        0.168      106.982       12.046        0.013      339.253       12.459      860.605
11/19/2014  15:59:00      -56.365     -133.110       -2.925       27.929       38.224       21.695      780.017     1461.092      470.686        1.181        0.136      144.552       16.507        0.013      339.278       12.502      860.598
11/19/2014  16:00:00      -31.986     -108.524       -0.182       27.969       19.080       18.239      782.288      364.063      332.661        0.714        0.074      113.139       15.371        0.018      339.274       12.496      860.605
11/19/2014  16:01:00      -59.262      -87.809       -6.210       26.545       22.959       19.498      704.617      527.119      380.185        0.644        0.081      105.936       12.810        0.015      339.320       12.571      860.610
11/19/2014  16:02:00      -73.489      -61.264       -1.091       42.795       39.502       18.823     1831.416     1560.428      354.304        0.645        0.187       95.676        8.521        0.008      339.318       12.567      860.603
11/19/2014  16:03:00      -20.749      -39.747        6.297       19.650       29.588       15.628      386.114      875.456      244.221        0.178        0.075       44.837       14.652        0.107      339.361       12.639      860.575
11/19/2014  16:04:00       16.138       16.196        6.509       29.934       26.645       24.748      896.061      709.940      612.478        0.139        0.111       22.864       20.477        0.802      339.343       12.611      860.536
11/19/2014  16:05:00       89.877       50.040       43.499       77.160       60.543       49.974     5953.662     3665.442     2497.353        1.229        0.606      102.868       49.668        0.233      339.082       12.171      860.480
11/19/2014  16:06:00       77.219       39.654       63.327       58.267       45.424       46.442     3395.034     2063.322     2156.894        0.958        0.381       86.806       37.541        0.187      339.005       12.043      860.432
11/19/2014  16:07:00      110.727       75.432       39.659       43.655       26.486       32.480     1905.768      701.517     1054.925        1.159        0.183      133.979       25.611        0.037      339.003       12.041      860.417
11/19/2014  16:08:00       82.474       45.451       25.615       39.725       35.149       32.526     1578.097     1235.423     1057.950        0.670        0.194       94.169       22.683        0.058      339.008       12.047      860.419
11/19/2014  16:09:00       99.809       43.031       21.251       57.637       35.978       30.184     3321.982     1294.409      911.102        0.890        0.276      108.690       24.461        0.051      338.989       12.017      860.441
11/19/2014  16:10:00       72.074       57.213       27.107       25.567       23.137       24.491      653.660      535.335      599.806        0.550        0.089       92.022       17.006        0.034      338.996       12.028      860.462
11/19/2014  16:11:00       58.591       42.136        3.807       37.683       26.986       30.842     1420.018      728.270      951.250        0.416        0.155       72.168        9.536        0.017      338.979       12.001      860.474
11/19/2014  16:12:00      134.499       74.700       28.393       30.402       26.270       28.420      924.311      690.116      807.685        1.345        0.121      153.851       18.098        0.014      338.981       12.003      860.478
11/19/2014  16:13:00       84.316       29.556       10.922       57.874       29.971       26.232     3349.363      898.249      688.131        0.652        0.247       89.346       25.928        0.084      338.969       11.982      860.472
11/19/2014  16:14:00       85.031       60.023        7.228       50.152       34.351       26.198     2515.199     1179.979      686.347        0.763        0.219      104.082       21.806        0.044      338.965       11.976      860.475
11/19/2014  16:15:00       66.034       42.013       10.111       40.178       23.228       16.429     1614.276      539.523      269.921        0.433        0.121       78.266        7.531        0.009      338.953       11.953      860.495
11/19/2014  16:16:00       75.443       58.762        9.431       36.119       24.081       24.081     1304.566      579.904      579.910        0.585        0.123       95.628        9.254        0.009      338.965       11.975      860.526
11/19/2014  16:17:00       31.784       26.476       12.485       20.776       16.746       22.314      431.650      280.436      497.895        0.154        0.060       41.367        2.391        0.003      338.973       11.987      860.561
11/19/2014  16:18:00       46.252       23.513       28.078       29.102       21.081       30.403      846.927      444.424      924.342        0.285        0.111       51.886       18.718        0.130      338.943       11.938      860.592
11/19/2014  16:19:00       70.968       26.341       45.802       37.320       26.020       28.987     1392.775      677.034      840.241        0.537        0.146       75.699       15.433        0.042      338.975       11.992      860.614
11/19/2014  16:20:00       58.511       20.684       34.676       37.146       29.578       22.920     1379.837      874.856      525.341        0.392        0.139       62.060       21.792        0.123      338.980       12.000      860.642
11/19/2014  16:21:00       66.175       21.245       18.103       41.389       21.916       26.423     1713.060      480.331      698.182        0.402        0.145       69.501       25.052        0.130      338.972       11.986      860.673
11/19/2014  16:22:00       41.588       10.975        8.328       21.359       23.692       17.234      456.225      561.312      297.027        0.162        0.066       43.012       15.245        0.126      338.955       11.958      860.700
11/19/2014  16:23:00       47.858       31.099        7.287       30.752       28.001       20.845      945.706      784.051      434.521        0.274        0.108       57.075       10.187        0.032      338.915       11.891      860.700
11/19/2014  16:24:00       77.113       36.638       21.416       36.995       29.743       32.483     1368.662      884.625     1055.163        0.553        0.165       85.375       12.130        0.020      338.909       11.881      860.683
11/19/2014  16:25:00       88.064       33.149        5.997       44.301       42.390       31.582     1962.599     1796.872      997.453        0.682        0.238       94.097       20.628        0.048      338.893       11.854      860.662
11/19/2014  16:26:00       66.492       46.496        9.733       39.422       30.408       27.557     1554.073      924.643      759.408        0.496        0.162       81.136       19.815        0.060      338.859       11.797      860.650
11/19/2014  16:27:00      106.120       44.646       19.004       41.554       34.856       28.742     1726.711     1214.959      826.074        0.869        0.188      115.129       16.740        0.021      338.861       11.799      860.654
11/19/2014  16:28:00       68.642       27.276        6.441       34.526       24.899       22.207     1192.028      619.937      493.161        0.390        0.115       73.863       16.202        0.048      338.830       11.747      860.668
11/19/2014  16:29:00       43.988       20.611       16.094       31.762       22.193       20.570     1008.817      492.513      423.142        0.227        0.096       48.577       15.215        0.098      338.827       11.742      860.696
11/19/2014  16:30:00       80.858       61.496       39.311       29.858       25.585       28.840      891.508      654.577      831.764        0.712        0.119      101.586       19.522        0.037      338.952       11.953      860.707
11/19/2014  16:31:00       75.324       62.554       39.273       33.897       21.803       30.961     1149.039      475.364      958.569        0.686        0.129       97.912       21.874        0.050      338.998       12.030      860.706
11/19/2014  16:32:00       59.437       50.480       36.115       31.512       25.937       28.743      993.031      672.753      826.135        0.494        0.125       77.980       23.143        0.088      338.967       11.980      860.690
11/19/2014  16:33:00       75.083       31.238       19.023       33.462       28.972       31.684     1119.709      839.373     1003.889        0.497        0.148       81.322       21.647        0.071      338.916       11.891      860.673
11/19/2014  16:34:00       71.883       34.866       35.401       42.347       33.828       35.554     1793.288     1144.364     1264.054        0.592        0.210       79.893       23.588        0.087      338.911       11.883      860.649
11/19/2014  16:35:00       67.054       43.366       58.328       41.535       39.195       28.528     1725.179     1536.274      813.825        0.693        0.204       79.856       21.323        0.071      338.900       11.866      860.619
11/19/2014  16:36:00       89.527       34.073       29.450       42.856       41.201       32.880     1836.665     1697.485     1081.093        0.733        0.231       95.792       25.175        0.069      338.899       11.863      860.583
11/19/2014  16:37:00       76.091       30.994       16.867       38.454       33.190       27.715     1478.679     1101.549      768.133        0.519        0.167       82.161       15.071        0.034      338.871       11.817      860.557
11/19/2014  16:38:00       87.818       58.486       32.652       34.327       29.184       31.723     1178.337      851.709     1006.340        0.762        0.152      105.511       21.474        0.041      338.868       11.811      860.550
11/19/2014  16:39:00      111.122       43.888       34.210       58.813       43.080       31.335     3458.926     1855.876      981.897        1.087        0.315      119.475       15.188        0.016      338.915       11.893      860.545
11/19/2014  16:40:00       27.214       16.998       14.855       40.345       20.891       24.637     1627.759      436.443      606.972        0.196        0.134       32.086       19.013        0.351      338.878       11.827      860.551
11/19/2014  16:41:00       27.426      -12.477       -3.794       36.425       41.686       23.318     1326.795     1737.725      543.728        0.226        0.180       30.131       17.745        0.347      338.906       11.874      860.565
11/19/2014  16:42:00       34.480       12.475       -0.704       18.133       31.132       16.188      328.792      969.188      262.064        0.145        0.078       36.668       14.468        0.156      338.953       11.953      860.573
11/19/2014  16:43:00       11.513        4.035      -12.473       22.032       16.546        7.425      485.399      273.781       55.131        0.056        0.041       12.199        6.530        0.287      338.877       11.824      860.590
11/19/2014  16:44:00       19.175      -20.337       -0.690       30.002       17.999        9.952      900.107      323.968       99.035        0.105        0.066       27.952       10.967        0.154      338.867       11.809      860.607
11/19/2014  16:45:00       73.293      -36.748       -4.278       22.670       36.871       15.011      513.949     1359.487      225.324        0.442        0.105       81.989       15.914        0.038      338.949       11.948      860.605
11/19/2014  16:46:00       48.578      -30.705        4.783       33.790       35.665       18.972     1141.740     1271.996      359.943        0.305        0.139       57.468       22.510        0.153      338.951       11.949      860.591
11/19/2014  16:47:00       22.990      -12.437       19.942       24.468       43.084       20.292      598.667     1856.189      411.771        0.197        0.143       26.139       25.417        0.946      338.931       11.918      860.577
11/19/2014  16:48:00        2.573        1.674       13.980       14.145       23.658        9.407      200.076      559.723       88.490        0.053        0.042        3.070        4.643        2.287      338.907       11.875      860.574
11/19/2014  16:49:00       11.198      -28.350       -0.022       32.691       29.437       14.010     1068.676      866.510      196.269        0.153        0.107       30.481       14.917        0.239      338.937       11.928      860.580
11/19/2014  16:50:00      -65.185      -29.171       -5.072       22.153       11.656        8.650      490.738      135.855       74.824        0.291        0.035       71.414        7.505        0.011      338.867       11.809      860.599
11/19/2014  16:51:00      -65.334      -34.027      -11.452       22.771       28.509       18.353      518.529      812.790      336.843        0.361        0.083       73.663       12.228        0.028      339.015       12.058      860.624
11/19/2014  16:52:00      -14.881       -8.381        7.081       35.511       25.621       21.126     1261.019      656.436      446.302        0.135        0.118       17.079       21.719        1.617      339.063       12.140      860.637
11/19/2014  16:53:00      -69.163      -28.090       -1.066       42.780       35.108       24.543     1830.141     1232.593      602.368        0.462        0.183       74.650       23.464        0.099      338.993       12.022      860.639
11/19/2014  16:54:00      -17.750        4.481       12.365       33.834       25.581       24.436     1144.744      654.380      597.095        0.144        0.120       18.307       19.403        1.123      339.005       12.041      860.630
11/19/2014  16:55:00        9.708        6.227       10.348       35.079       27.898       18.870     1230.569      778.271      356.073        0.130        0.118       11.533       17.474        2.295      339.001       12.035      860.621
11/19/2014  16:56:00      -18.963        4.598        5.176       55.382       26.836       19.521     3067.159      720.163      381.075        0.229        0.208       19.512       21.544        1.219      339.037       12.095      860.607
11/19/2014  16:57:00      -91.806       -7.748      -15.280       24.005       24.541       18.865      576.223      602.280      355.898        0.513        0.077       92.132       11.860        0.017      339.179       12.336      860.585
11/19/2014  16:58:00      -78.044       21.770       -2.919       36.769       30.367       20.270     1351.933      922.127      410.862        0.463        0.134       81.023       16.815        0.043      339.308       12.552      860.555
11/19/2014  16:59:00      -45.054      -10.930       -1.157       37.741       36.842       19.613     1424.366     1357.297      384.683        0.266        0.158       46.361       17.899        0.149      339.007       12.047      860.543
11/19/2014  17:00:00      -49.227       -2.549       -4.826       15.543       29.828       18.226      241.570      889.680      332.183        0.196        0.073       49.293        5.871        0.014      338.816       11.726      860.553
11/19/2014  17:01:00      -76.053       -6.135      -15.181       40.269       34.316       17.895     1621.625     1177.606      320.245        0.459        0.156       76.300       11.981        0.025      338.949       11.947      860.573
11/19/2014  17:02:00      -46.087        5.443        0.708       24.117       50.155       18.499      581.649     2515.555      342.225        0.280        0.172       46.407       13.957        0.090      338.882       11.837      860.588
11/19/2014  17:03:00      -83.220       -2.041      -11.137       42.524       52.679       25.137     1808.306     2775.128      631.865        0.613        0.261       83.245       25.919        0.097      338.969       11.983      860.612
11/19/2014  17:04:00      -68.371       -2.826      -10.758       63.484       22.525       21.597     4030.256      507.388      466.437        0.490        0.250       68.429       24.984        0.133      338.966       11.977      860.648
11/19/2014  17:05:00      -47.718       20.981       -5.657       45.667       40.843       21.752     2085.442     1668.148      473.138        0.349        0.211       52.126       24.105        0.214      338.934       11.923      860.679
11/19/2014  17:06:00      -86.430       56.421       -2.685       41.290       32.165       28.269     1704.889     1034.573      799.137        0.710        0.177      103.215       11.272        0.012      339.090       12.186      860.692
11/19/2014  17:07:00      -70.264       69.468      -21.141       23.050       22.979       17.475      531.288      528.034      305.387        0.579        0.068       98.806       13.962        0.020      338.887       11.844      860.703
11/19/2014  17:08:00      -28.461       53.715       -7.603       23.287       23.688       14.185      542.262      561.112      201.218        0.253        0.065       60.789       11.318        0.035      338.981       12.002      860.712
11/19/2014  17:09:00      -48.565       69.764      -16.432       24.104       28.654       19.596      581.005      821.077      383.992        0.464        0.089       85.004       17.725        0.043      338.918       11.896      860.716
11/19/2014  17:10:00      -68.800       26.703       -8.509       20.749       51.345       17.078      430.535     2636.307      291.659        0.444        0.168       73.800       11.833        0.026      339.022       12.070      860.739
11/19/2014  17:11:00      -70.134       33.834      -11.424       54.685       52.808       30.894     2990.441     2788.680      954.422        0.646        0.337       77.869       28.922        0.138      338.892       11.851      860.775
11/19/2014  17:12:00     -128.908      -27.278       -4.740       58.577       51.255       28.505     3431.257     2627.041      812.519        1.213        0.344      131.763       27.161        0.042      338.904       11.872      860.801
11/19/2014  17:13:00     -137.914      -28.513      -14.324       40.577       49.075       20.424     1646.463     2408.339      417.153        1.225        0.224      140.831       15.977        0.013      338.863       11.805      860.802
11/19/2014  17:14:00      -88.433      -33.768      -10.924       39.806       33.872       15.479     1584.541     1147.298      239.611        0.603        0.149       94.661       21.519        0.052      338.817       11.726      860.778
11/19/2014  17:15:00      -86.604       70.004      -24.878       31.569       47.372       18.947      996.589     2244.119      359.003        0.831        0.180      111.359       16.950        0.023      338.879       11.831      860.748
11/19/2014  17:16:00      -87.603       96.954      -20.448       38.659       51.019       24.994     1494.487     2602.905      624.723        1.111        0.236      130.669       24.583        0.035      338.868       11.812      860.717
11/19/2014  17:17:00     -101.841      164.692      -29.978       51.699       49.074       33.339     2672.802     2408.303     1111.499        2.229        0.310      193.636       32.912        0.029      338.817       11.724      860.701
11/19/2014  17:18:00      -98.635       66.927      -12.300       47.092       60.402       28.480     2217.660     3648.452      811.093        1.052        0.334      119.198       21.246        0.032      338.944       11.939      860.716
11/19/2014  17:19:00      -35.218      -21.507        9.144       64.496       62.596       34.334     4159.751     3918.198     1178.803        0.552        0.463       41.266       35.208        0.728      338.822       11.735      860.731
11/19/2014  17:20:00     -167.792      -95.112      -17.172       85.543       55.075       38.096     7317.601     3033.239     1451.331        2.465        0.590      192.874       24.331        0.016      338.718       11.556      860.734
11/19/2014  17:21:00     -186.104      -80.856      -14.738       38.271       44.559       23.385     1464.632     1985.535      546.836        2.269        0.200      202.910       19.739        0.009      338.656       11.454      860.727
11/19/2014  17:22:00      -83.974      -49.542       14.365       93.086       67.087       33.886     8665.000     4500.627     1148.294        1.201        0.716       97.499       37.406        0.147      338.625       11.402      860.709
11/19/2014  17:23:00     -177.770      -46.705        1.161       78.710       44.025       36.144     6195.304     1938.181     1306.406        2.161        0.472      183.803       36.853        0.040      338.693       11.516      860.671
11/19/2014  17:24:00     -229.800      -55.398      -20.157       66.365       56.910       34.925     4404.270     3238.779     1219.728        3.257        0.443      236.383       36.234        0.023      338.740       11.594      860.624
11/19/2014  17:25:00     -165.386      -85.557      -10.002       58.213       38.350       28.359     3388.807     1470.700      804.252        2.022        0.283      186.206       28.401        0.023      338.747       11.608      860.626
11/19/2014  17:26:00     -159.990     -105.000      -10.043       59.414       44.285       31.354     3529.976     1961.201      983.088        2.160        0.324      191.368       31.241        0.027      338.779       11.662      860.619
11/19/2014  17:27:00     -177.293      -60.300      -12.002       50.893       40.620       27.900     2590.059     1649.978      778.401        2.011        0.251      187.267       26.106        0.019      338.801       11.697      860.610
11/19/2014  17:28:00     -156.839      -23.301      -11.805       46.463       30.896       21.938     2158.829      954.562      481.284        1.444        0.180      158.560       21.853        0.019      338.839       11.764      860.596
11/19/2014  17:29:00     -133.514      -57.166      -14.423       39.781       25.812       21.074     1582.532      666.248      444.113        1.200        0.135      145.237       21.575        0.022      338.763       11.637      860.576
11/19/2014  17:30:00     -136.621      -22.595       -5.344       65.244       37.065       29.686     4256.814     1373.838      881.258        1.286        0.326      138.476       35.666        0.066      338.819       11.729      860.563
11/19/2014  17:31:00     -164.616      -33.626       -9.639       74.192       59.974       33.465     5504.489     3596.880     1119.910        1.927        0.511      168.015       35.213        0.044      338.847       11.773      860.568
11/19/2014  17:32:00     -203.545     -111.257       -2.507       60.141       52.779       40.753     3616.912     2785.625     1660.805        3.094        0.403      231.967       28.399        0.015      338.645       11.434      860.567
11/19/2014  17:33:00     -200.968      -80.854       -9.160       80.996       60.513       35.578     6560.329     3661.861     1265.782        2.925        0.574      216.623       38.272        0.031      338.660       11.458      860.534
11/19/2014  17:34:00     -186.139      -87.608      -15.241       82.305       54.648       33.304     6774.076     2986.418     1109.164        2.671        0.543      205.725       19.637        0.009      338.673       11.480      860.525
11/19/2014  17:35:00     -127.861      -75.901        4.551       90.602       44.125       43.770     8208.785     1946.988     1915.857        1.710        0.604      148.692       50.385        0.115      338.635       11.418      860.542
11/19/2014  17:36:00     -163.786      -32.534       -6.794       66.733       52.217       31.153     4453.270     2726.636      970.531        1.804        0.408      166.986       33.701        0.041      338.688       11.509      860.580
11/19/2014  17:37:00     -140.118      -56.104        5.071       80.440       68.152       40.571     6470.564     4644.674     1646.013        1.778        0.638      150.933       44.065        0.085      338.650       11.445      860.622
11/19/2014  17:38:00     -170.101     -111.668       -5.895       87.842       67.928       36.840     7716.155     4614.238     1357.155        2.756        0.684      203.480       33.108        0.026      338.582       11.328      860.657
11/19/2014  17:39:00     -200.962      -65.632       -6.092       73.100       58.255       40.023     5343.638     3393.671     1601.829        2.753        0.517      211.408       40.458        0.037      338.552       11.279      860.693
11/19/2014  17:40:00     -201.731      -46.768      -12.603      112.166       74.197       54.218    12581.120     5505.226     2939.599        3.203        1.051      207.081       61.422        0.088      338.620       11.394      860.706
11/19/2014  17:41:00     -183.117      -96.916        0.390      100.856       85.012       60.682    10171.963     7227.011     3682.294        3.200        1.054      207.182       57.932        0.078      338.610       11.377      860.701
11/19/2014  17:42:00     -149.273      -77.597        4.720       91.080       98.752       55.172     8295.648     9751.966     3043.968        2.470        1.055      168.237       58.150        0.119      338.576       11.319      860.703
11/19/2014  17:43:00     -207.947      -87.385        1.334      126.248       97.647       56.927    15938.648     9534.993     3240.658        3.979        1.436      225.562       56.213        0.062      338.550       11.276      860.712
11/19/2014  17:44:00     -274.897     -123.621       -7.294       96.486       81.083       49.401     9309.469     6574.374     2440.470        5.461        0.916      301.414       49.842        0.027      338.549       11.273      860.733
11/19/2014  17:45:00     -279.910     -150.835      -17.376       90.584       80.884       49.028     8205.470     6542.273     2403.703        5.927        0.858      317.963       47.708        0.023      338.513       11.213      860.742
11/19/2014  17:46:00     -200.272     -147.333       -5.255      144.860      105.291       64.091    20984.475    11086.271     4107.658        4.900        1.809      248.628       65.299        0.069      338.482       11.161      860.766
11/19/2014  17:47:00     -279.033     -124.509      -12.115      142.851       81.885       61.081    20406.486     6705.084     3730.835        6.217        1.542      305.552       67.203        0.048      338.535       11.249      860.767
11/19/2014  17:48:00     -222.217      -13.970       -9.728      117.487       92.880       46.751    13803.218     8626.709     2185.690        3.714        1.231      222.656       45.477        0.042      338.548       11.272      860.766
11/19/2014  17:49:00     -141.048     -123.443       -4.164      100.727      100.315       62.533    10145.878    10063.162     3910.340        2.963        1.206      187.437       69.930        0.139      338.492       11.177      860.768
11/19/2014  17:50:00     -141.315     -110.654       -8.056      105.731       93.581       50.610    11179.121     8757.393     2561.395        2.738        1.125      179.483       55.890        0.097      338.452       11.111      860.770
11/19/2014  17:51:00     -189.433     -155.549       -8.043      121.477       82.279       64.845    14756.572     6769.880     4204.883        4.293        1.287      245.113       68.790        0.079      338.436       11.082      860.771
11/19/2014  17:52:00     -303.317     -153.989      -15.640      119.124       92.243       63.698    14190.459     8508.744     4057.407        7.135        1.338      340.167       60.262        0.031      338.428       11.069      860.769
11/19/2014  17:53:00     -316.042     -162.293      -10.929       91.705      107.847       51.153     8409.822    11630.902     2616.642        7.449        1.133      355.276       45.103        0.016      338.450       11.106      860.794
11/19/2014  17:54:00      -92.663      -44.453       16.407      107.483       67.559       60.746    11552.516     4564.169     3690.041        1.532        0.990      102.774       70.082        0.465      338.389       11.005      860.790
11/19/2014  17:55:00     -215.792      -63.892       -5.828       99.603       62.366       48.614     9920.682     3889.561     2363.294        3.342        0.809      225.052       57.501        0.065      338.472       11.143      860.774
11/19/2014  17:56:00     -192.333     -102.363        1.133       82.768       72.266       48.230     6850.526     5222.370     2326.177        3.093        0.720      217.877       45.199        0.043      338.409       11.038      860.766
11/19/2014  17:57:00     -210.698      -89.620      -10.088       82.422       53.475       39.672     6793.450     2859.522     1573.864        3.187        0.561      228.966       40.005        0.031      338.391       11.007      860.773
11/19/2014  17:58:00     -186.029      -34.730       -3.347       88.272       52.963       44.441     7791.973     2805.077     1975.028        2.420        0.629      189.243       41.418        0.048      338.389       11.006      860.762
11/19/2014  17:59:00     -136.996      -60.315       -0.013       72.900       66.986       39.336     5314.451     4487.112     1547.292        1.688        0.567      149.686       41.708        0.078      338.423       11.062      860.770
11/19/2014  18:00:00     -151.068      -46.873       -1.029       59.284       74.635       40.784     3514.625     5570.399     1663.325        1.788        0.537      158.172       35.952        0.052      338.399       11.021      860.801
11/19/2014  18:01:00     -224.065      -31.969      -16.530       73.156       70.138       36.130     5351.747     4919.343     1305.396        3.154        0.579      226.334       39.492        0.030      338.441       11.090      860.805
11/19/2014  18:02:00     -186.924      -77.034       -0.392       67.277       72.411       34.486     4526.260     5243.409     1189.306        2.591        0.548      202.175       30.614        0.023      338.368       10.969      860.829
11/19/2014  18:03:00     -205.584      -64.315      -17.647       67.320       65.826       36.741     4531.973     4333.071     1349.881        2.846        0.511      215.410       30.597        0.020      338.317       10.885      860.868
11/19/2014  18:04:00     -210.865      -57.561       -2.147      100.013       73.474       46.071    10002.531     5398.418     2122.578        3.265        0.876      218.580       56.769        0.067      338.293       10.843      860.899
11/19/2014  18:05:00     -240.212      -57.591      -18.842      102.861       95.059       55.406    10580.361     9036.256     3069.832        4.203        1.134      247.019       55.163        0.050      338.366       10.966      860.911
11/19/2014  18:06:00     -165.084      -39.214       -0.246       92.030       66.945       41.266     8469.447     4481.577     1702.922        2.172        0.733      169.678       43.256        0.065      338.371       10.974      860.904
11/19/2014  18:07:00     -226.210      -41.168      -15.287       57.698       68.934       37.082     3329.020     4751.947     1375.078        3.128        0.473      229.926       34.124        0.022      338.391       11.007      860.895
11/19/2014  18:08:00     -213.618      -12.036      -14.331       89.285       78.218       47.416     7971.885     6118.032     2248.270        3.116        0.817      213.957       46.987        0.048      338.454       11.115      860.899
11/19/2014  18:09:00     -137.547      -87.068       -4.958       86.947       85.034       45.366     7559.716     7230.739     2058.092        2.168        0.842      162.789       47.407        0.085      338.346       10.935      860.942
11/19/2014  18:10:00     -166.192      -96.935        8.586      107.915       82.764       59.512    11645.697     6849.800     3541.687        2.956        1.102      192.396       67.703        0.124      338.268       10.803      860.943
11/19/2014  18:11:00     -186.874      -26.932       -4.445       95.040       68.374       48.985     9032.590     4674.958     2399.488        2.588        0.805      188.805       51.379        0.074      338.505       11.200      860.944
11/19/2014  18:12:00     -145.083      -62.024        8.652       81.924       72.493       39.868     6711.622     5255.252     1589.456        1.926        0.678      157.785       39.842        0.064      338.329       10.904      860.953
11/19/2014  18:13:00     -217.904        1.201      -11.771       82.249       63.115       48.892     6764.939     3983.459     2390.417        3.038        0.657      217.907       49.794        0.052      338.568       11.305      860.944
11/19/2014  18:14:00     -205.205      -67.075       -9.615       68.539       69.409       41.158     4697.586     4817.654     1694.013        2.895        0.560      215.889       38.104        0.031      338.382       10.992      860.936
11/19/2014  18:15:00     -216.100      -92.319       -7.776       61.822       53.826       31.324     3821.937     2897.275      981.200        3.149        0.385      234.994       26.031        0.012      338.347       10.934      860.951
11/19/2014  18:16:00     -208.784      -92.220      -12.553       79.560       62.304       42.912     6329.724     3881.762     1841.411        3.215        0.603      228.244       42.443        0.035      338.357       10.949      860.977
11/19/2014  18:17:00     -237.466      -41.461       -7.657      102.723       81.112       50.903    10552.033     6579.149     2591.113        3.894        0.986      241.059       53.020        0.048      338.444       11.096      861.010
11/19/2014  18:18:00     -236.478      -47.734      -21.807       74.345       68.030       40.306     5527.197     4628.134     1624.594        3.523        0.589      241.247       29.861        0.015      338.474       11.147      861.055
11/19/2014  18:19:00     -190.400      -80.851      -17.623       46.957       53.837       28.373     2204.976     2898.431      805.036        2.450        0.295      206.855       20.839        0.010      338.369       10.971      861.091
11/19/2014  18:20:00     -160.549      -53.532       -2.195       90.599       65.218       44.847     8208.157     4253.422     2011.290        2.156        0.724      169.239       47.508        0.079      338.372       10.976      861.098
11/19/2014  18:21:00     -109.959      -36.582      -10.957       75.800       47.321       34.348     5745.664     2239.289     1179.801        1.136        0.458      115.884       38.815        0.112      338.536       11.253      861.093
11/19/2014  18:22:00     -160.641      -67.449        0.246       98.663       59.866       33.346     9734.409     3583.970     1111.973        2.239        0.722      174.226       44.637        0.066      338.314       10.881      861.090
11/19/2014  18:23:00     -159.294      -89.082      -20.601       65.886       56.283       48.157     4340.917     3167.772     2319.067        2.178        0.491      182.511       43.747        0.057      338.332       10.909      861.091
11/19/2014  18:24:00     -134.202      -26.191       -3.101       57.909       70.972       39.689     3353.478     5037.064     1575.180        1.433        0.498      136.734       38.009        0.077      338.476       11.153      861.072
11/19/2014  18:25:00     -215.631       -7.034      -14.751       72.361       54.890       41.024     5236.064     3012.937     1682.995        2.835        0.497      215.746       40.486        0.035      338.446       11.102      861.054
11/19/2014  18:26:00     -249.798      -16.332      -13.301       74.649       60.628       41.671     5572.482     3675.779     1736.492        3.691        0.549      250.331       42.883        0.029      338.362       10.957      861.031
11/19/2014  18:27:00     -178.755      -24.229      -13.499       72.024       45.021       31.164     5187.479     2026.866      971.174        2.045        0.409      180.390       31.088        0.030      338.386       11.001      861.014
11/19/2014  18:28:00     -179.549      -41.446       -8.518       65.436       57.731       37.083     4281.853     3332.879     1375.170        2.151        0.449      184.270       34.071        0.034      338.302       10.860      861.021
11/19/2014  18:29:00     -124.333      -22.109        4.667       87.007       48.077       42.106     7570.248     2311.359     1772.956        1.381        0.583      126.284       47.516        0.142      338.316       10.883      861.036
11/19/2014  18:30:00      -87.757      -53.300      -11.109       67.416       56.024       33.022     4544.934     3138.673     1090.426        0.972        0.439      102.675       36.445        0.126      338.264       10.797      861.043
11/19/2014  18:31:00     -154.281      -43.523      -11.723       64.581       49.973       31.347     4170.754     2497.330      982.651        1.674        0.383      160.303       29.498        0.034      338.317       10.885      861.037
11/19/2014  18:32:00     -189.077      -33.116       -4.007       57.757       40.854       31.930     3335.887     1669.053     1019.543        2.144        0.301      191.955       30.527        0.025      338.245       10.762      861.045
11/19/2014  18:33:00     -199.391      -80.673       -2.013       70.832       65.641       33.506     5017.224     4308.724     1122.637        2.836        0.522      215.093       38.842        0.033      338.274       10.811      861.048
11/19/2014  18:34:00     -175.360      -25.903       -5.075       65.321       53.419       38.056     4266.856     2853.545     1448.272        2.001        0.428      177.262       37.567        0.045      338.349       10.939      861.050
11/19/2014  18:35:00     -158.594      -35.185       -9.214       71.303       58.843       35.320     5084.097     3462.457     1247.470        1.813        0.490      162.450       37.618        0.054      338.300       10.857      861.045
11/19/2014  18:36:00     -197.876      -31.644      -19.871       61.411       48.247       37.796     3771.268     2327.730     1428.531        2.404        0.376      200.390       38.042        0.036      338.325       10.897      861.034
11/19/2014  18:37:00      -85.731      -22.583       -5.423       93.138       51.415       32.510     8674.603     2643.466     1056.880        1.013        0.619       88.655       39.668        0.200      338.293       10.845      861.033
11/19/2014  18:38:00     -164.527      -88.379       -5.955       45.887       39.673       27.748     2105.627     1573.985      769.966        1.968        0.222      186.761       20.790        0.012      338.294       10.847      861.040
11/19/2014  18:39:00     -100.049      -71.684        4.079       67.874       40.765       34.366     4606.857     1661.785     1181.043        1.131        0.372      123.079       35.458        0.083      338.256       10.783      861.065
11/19/2014  18:40:00     -143.753      -94.760       -3.285       70.170       47.990       32.806     4923.796     2303.087     1076.265        1.898        0.415      172.176       32.694        0.036      338.278       10.819      861.092
11/19/2014  18:41:00     -138.228      -94.382       -4.587       46.861       35.877       25.004     2195.926     1287.180      625.217        1.607        0.205      167.376       15.488        0.009      338.284       10.832      861.134
11/19/2014  18:42:00     -122.711      -76.574       -0.077       62.371       50.328       33.474     3890.103     2532.872     1120.523        1.423        0.377      144.643       27.502        0.036      338.265       10.797      861.171
11/19/2014  18:43:00     -102.404      -67.360        5.520       56.953       60.042       30.705     3243.664     3605.017      942.818        1.142        0.390      122.572       28.164        0.053      338.275       10.815      861.192
11/19/2014  18:44:00     -192.034      -85.155       -4.524       57.347       56.859       27.601     3288.729     3232.987      761.840        2.571        0.364      210.067       23.907        0.013      338.260       10.789      861.208
11/19/2014  18:45:00     -136.118     -111.188        2.310       65.798       57.185       39.203     4329.342     3270.108     1536.886        2.001        0.457      175.758       29.368        0.028      338.233       10.742      861.245
11/19/2014  18:46:00     -102.361     -125.184        2.326       75.136       49.295       38.156     5645.444     2429.972     1455.900        1.784        0.477      161.706       43.265        0.072      338.222       10.725      861.299
11/19/2014  18:47:00     -134.720     -106.835       -0.510       76.331       55.861       38.891     5826.347     3120.450     1512.494        2.001        0.523      171.940       37.314        0.047      338.196       10.682      861.341
11/19/2014  18:48:00      -68.252      -44.807        5.648       67.645       44.262       27.692     4575.903     1959.083      766.837        0.700        0.365       81.645       36.044        0.195      338.186       10.667      861.349
11/19/2014  18:49:00     -122.171      -49.968      -10.898       31.921       33.080       20.215     1018.936     1094.306      408.642        1.003        0.126      131.994       15.159        0.013      338.241       10.759      861.349
11/19/2014  18:50:00     -115.557      -14.236       -4.617       52.813       37.081       23.317     2789.238     1374.971      543.704        0.914        0.235      116.431       20.917        0.032      338.182       10.660      861.353
11/19/2014  18:51:00     -132.348      -40.150      -14.175       33.212       25.893       23.830     1103.026      670.438      567.853        1.083        0.117      138.304       20.760        0.023      338.221       10.725      861.359
11/19/2014  18:52:00     -120.715      -33.623       -6.713       35.271       38.934       24.369     1244.009     1515.845      593.861        0.955        0.168      125.310       22.258        0.032      338.230       10.740      861.364
11/19/2014  18:53:00     -131.010      -35.244      -10.802       53.399       41.856       30.439     2851.411     1751.943      926.505        1.203        0.276      135.668       28.636        0.045      338.307       10.869      861.348
11/19/2014  18:54:00     -107.514       16.731       -6.395       63.759       38.427       24.389     4065.149     1476.611      594.841        0.901        0.307      108.808       28.715        0.070      338.540       11.260      861.325
11/19/2014  18:55:00      -95.308       11.654       -7.606       45.788       34.676       25.685     2096.573     1202.395      659.710        0.662        0.198       96.018       24.201        0.064      338.515       11.219      861.321
11/19/2014  18:56:00      -50.362       12.212       -8.700       26.439       37.387       17.719      699.013     1397.763      313.966        0.259        0.121       51.822       16.449        0.101      338.471       11.146      861.340
11/19/2014  18:57:00     -131.313       -3.888       -8.213       64.350       45.076       32.134     4140.918     2031.857     1032.591        1.226        0.360      131.371       32.723        0.062      338.490       11.177      861.377
11/19/2014  18:58:00     -198.143        0.429      -15.286       72.002       66.493       39.318     5184.304     4421.302     1545.942        2.532        0.558      198.143       34.609        0.031      338.525       11.234      861.416
11/19/2014  18:59:00     -172.102      -65.145      -18.472       58.383       60.911       30.906     3408.573     3710.208      955.171        2.114        0.404      184.019       31.803        0.030      338.276       10.816      861.445
11/19/2014  19:00:00     -151.447      -62.404       -9.240       60.808       38.066       26.190     3697.600     1449.012      685.898        1.637        0.292      163.799       28.723        0.031      338.230       10.738      861.472
11/19/2014  19:01:00      -86.778      -61.617       -8.509       46.383       52.869       31.810     2151.337     2795.118     1011.896        0.868        0.298      106.428       29.235        0.075      338.297       10.852      861.500
11/19/2014  19:02:00     -136.806      -51.290      -19.839       65.725       40.470       29.583     4319.713     1637.822      875.183        1.428        0.342      146.104       31.888        0.048      338.311       10.876      861.490
11/19/2014  19:03:00      -62.586      -19.631        2.764       58.990       35.479       26.760     3479.827     1258.766      716.104        0.488        0.273       65.592       28.912        0.194      338.234       10.746      861.460
11/19/2014  19:04:00      -63.013      -26.002       -0.888       31.029       29.060       19.554      962.786      844.480      382.360        0.342        0.109       68.166       14.789        0.047      338.405       11.035      861.446
11/19/2014  19:05:00     -110.211      -40.008       -8.235       32.267       45.728       20.753     1041.143     2091.057      430.686        0.869        0.178      117.248       18.006        0.024      338.307       10.870      861.453
11/19/2014  19:06:00      -34.857      -22.524       12.662       50.404       42.627       19.795     2540.537     1817.051      391.852        0.332        0.237       41.502       18.044        0.189      338.272       10.810      861.462
11/19/2014  19:07:00      -20.960      -37.366        5.859       26.880       19.594       21.255      722.546      383.930      451.764        0.171        0.078       42.844       16.645        0.151      338.286       10.835      861.452
11/19/2014  19:08:00     -103.543      -30.730       -8.847       27.493       32.719       18.491      755.886     1070.523      341.916        0.696        0.108      108.007       14.188        0.017      338.388       11.006      861.454
11/19/2014  19:09:00      -45.470      -45.337        3.730       44.359       29.807       16.914     1967.678      888.457      286.079        0.364        0.157       64.210       12.599        0.038      338.283       10.830      861.437
11/19/2014  19:10:00       28.126       22.954       18.222       20.150       21.856       22.503      406.037      477.667      506.400        0.152        0.070       36.303       17.275        0.226      337.997       10.348      861.421
11/19/2014  19:11:00      -57.153      -13.154       -1.708       69.055       67.901       30.079     4768.585     4610.529      904.737        0.686        0.514       58.647       39.123        0.445      338.230       10.740      861.415
11/19/2014  19:12:00      -19.135      -54.432       -4.089       17.593       28.049       18.142      309.507      786.729      329.126        0.239        0.071       57.697       11.905        0.043      338.279       10.822      861.443
11/19/2014  19:13:00      -40.067        6.543       -3.035       39.549       30.401       20.565     1564.090      924.220      422.899        0.228        0.146       40.598       13.778        0.115      338.131       10.575      861.478
11/19/2014  19:14:00       -7.987       -8.479        0.221       16.332        8.994       14.001      266.746       80.896      196.018        0.034        0.027       11.648       13.277        1.299      338.076       10.484      861.502
11/19/2014  19:15:00      -31.632       -1.513       -2.433       17.179       17.429       12.472      295.114      303.783      155.556        0.088        0.038       31.669        8.414        0.071      338.233       10.747      861.533
11/19/2014  19:16:00      -49.479      -54.265       -0.503       37.978       46.889       24.103     1442.355     2198.562      580.949        0.481        0.211       73.436       22.765        0.096      338.299       10.857      861.535
11/19/2014  19:17:00      -94.923      -23.875       -3.855       51.368       47.951       33.963     2638.715     2299.261     1153.510        0.784        0.305       97.879       28.002        0.082      338.281       10.827      861.535
11/19/2014  19:18:00     -109.833      -36.412       -4.976       52.583       58.547       27.282     2764.998     3427.753      744.318        1.017        0.347      115.712       24.673        0.045      338.298       10.854      861.528
11/19/2014  19:19:00     -140.709      -37.101       -6.010       47.337       46.832       23.672     2240.814     2193.235      560.344        1.310        0.250      145.518       24.529        0.028      338.259       10.788      861.538
11/19/2014  19:20:00      -21.293      -92.596        8.626       28.110       49.813       16.730      790.196     2481.330      279.898        0.633        0.178       95.012       16.104        0.029      338.330       10.908      861.565
11/19/2014  19:21:00      -34.604      -99.330       -2.045       38.608       53.546       25.123     1490.579     2867.179      631.184        0.803        0.249      105.185       21.830        0.043      338.444       11.099      861.583
11/19/2014  19:22:00       34.903      -94.152      -29.216       40.977       41.115       20.489     1679.103     1690.470      419.789        0.736        0.189      100.413       18.492        0.034      338.153       10.610      861.590
11/19/2014  19:23:00       90.988     -114.916      -19.757       57.179       66.813       29.940     3269.445     4463.929      896.394        1.525        0.431      146.576       34.915        0.057      338.115       10.547      861.604
11/19/2014  19:24:00       86.623     -116.108      -46.201       43.174       71.160       29.924     1863.961     5063.677      895.471        1.547        0.391      144.861       30.218        0.044      338.098       10.518      861.625
11/19/2014  19:25:00       77.803      -68.250      -11.467       52.824       61.379       42.598     2790.416     3767.353     1814.550        0.961        0.419      103.496       38.887        0.141      338.056       10.449      861.631
11/19/2014  19:26:00       29.671      -34.615       39.905       42.207       55.770       38.273     1781.450     3110.285     1464.835        0.501        0.318       45.591       37.516        0.677      337.988       10.334      861.622
11/19/2014  19:27:00      105.901     -106.521      -17.316       67.210       86.281       47.863     4517.146     7444.492     2290.914        1.855        0.713      150.205       50.782        0.114      337.911       10.203      861.582
11/19/2014  19:28:00       45.169       -4.041       64.902       51.641       57.812       50.624     2666.814     3342.280     2562.825        0.742        0.429       45.350       35.870        0.626      337.872       10.140      861.542
11/19/2014  19:29:00       88.744      -21.570       51.940       52.892       59.841       45.610     2797.545     3580.909     2080.283        0.975        0.423       91.328       46.043        0.254      337.940       10.254      861.515
11/19/2014  19:30:00       62.100      -56.955       16.040       46.741       46.044       26.453     2184.750     2120.087      699.771        0.618        0.250       84.264       31.474        0.140      338.033       10.410      861.508
11/19/2014  19:31:00       70.435       -5.729        9.985       30.623       17.097       21.242      937.773      292.324      451.225        0.339        0.084       70.667       19.646        0.077      338.132       10.576      861.505
11/19/2014  19:32:00       69.621       35.073       12.849       24.097       23.249       19.840      580.653      540.536      393.630        0.388        0.076       77.957       13.034        0.028      338.045       10.431      861.501
11/19/2014  19:33:00       19.213        2.431        2.454       21.609       17.770       15.024      466.960      315.790      225.707        0.069        0.050       19.366       11.001        0.323      338.088       10.502      861.519
11/19/2014  19:34:00      -34.954      -29.799       -1.295       17.379       12.820       12.666      302.020      164.350      160.425        0.137        0.031       45.932        8.184        0.032      338.108       10.536      861.568
11/19/2014  19:35:00      -38.356      -20.628       -5.165       15.052        9.774        6.577      226.574       95.522       43.252        0.114        0.018       43.550        7.655        0.031      338.223       10.730      861.609
11/19/2014  19:36:00      -37.232      -60.009       -6.682       19.052       17.079        9.251      362.973      291.682       85.584        0.289        0.037       70.621       11.712        0.028      338.280       10.824      861.646
11/19/2014  19:37:00      -50.165      -36.477        3.736       36.983       31.045       25.087     1367.742      963.788      629.373        0.341        0.148       62.025       22.104        0.127      338.223       10.729      861.680
11/19/2014  19:38:00     -104.105      -63.192       -8.273       44.119       16.093       19.723     1946.510      258.986      388.998        0.875        0.130      121.783       19.320        0.025      338.229       10.738      861.706
11/19/2014  19:39:00      -35.365      -59.524        4.372       33.660       20.418       22.586     1133.015      416.910      510.121        0.344        0.103       69.237       19.164        0.077      338.183       10.662      861.715
11/19/2014  19:40:00      -58.667      -43.427        7.307       38.029       15.831       19.705     1446.226      250.622      388.274        0.373        0.104       72.992       22.657        0.096      338.175       10.650      861.724
11/19/2014  19:41:00      -37.381      -42.867        0.096       30.249       13.601       10.500      915.006      184.998      110.247        0.222        0.061       56.876       10.722        0.036      338.096       10.515      861.737
11/19/2014  19:42:00      -35.618      -64.431       -1.150       20.818       21.025       13.740      433.408      442.053      188.775        0.324        0.053       73.620       10.358        0.020      338.195       10.681      861.749
11/19/2014  19:43:00      -27.108      -27.572        1.869       25.796       22.797       15.255      665.415      519.720      232.705        0.146        0.071       38.666       16.190        0.175      338.187       10.668      861.755
11/19/2014  19:44:00       -0.493       -4.845       18.862       20.738       25.592       14.890      430.057      654.956      221.705        0.084        0.065        4.870       15.386        9.981      338.131       10.576      861.743
11/19/2014  19:45:00       -7.980        7.110       24.723       16.062       22.757       14.499      257.991      517.884      210.229        0.086        0.049       10.688       11.890        1.238      338.068       10.468      861.723
11/19/2014  19:46:00       14.044      -38.489        9.466       24.753       26.105       25.277      612.720      681.457      638.949        0.185        0.097       40.971       20.123        0.241      338.193       10.678      861.718
11/19/2014  19:47:00        2.835      -12.433        1.038       19.106       33.972       21.023      365.041     1154.064      441.973        0.106        0.098       12.752       12.287        0.928      338.137       10.582      861.717
11/19/2014  19:48:00      -11.385       36.010       -3.426       25.288       20.321       17.161      639.471      412.937      294.486        0.139        0.067       37.767       14.573        0.149      338.296       10.851      861.721
11/19/2014  19:49:00        0.270       35.496        9.986       23.763       18.350       13.338      564.690      336.707      177.901        0.122        0.054       35.497       17.069        0.231      338.273       10.814      861.727
11/19/2014  19:50:00      -32.195       25.089      -10.149       20.026       30.006       13.342      401.048      900.342      177.998        0.162        0.074       40.816        7.940        0.038      338.522       11.230      861.746
11/19/2014  19:51:00      -20.749       52.540        2.819       16.351       29.212       17.930      267.343      853.315      321.501        0.232        0.072       56.488       15.983        0.080      338.182       10.659      861.760
11/19/2014  19:52:00       -9.110       87.671       -8.324       21.968       18.068       12.965      482.590      326.444      168.104        0.441        0.049       88.143        5.010        0.003      338.142       10.593      861.754
11/19/2014  19:53:00       27.932       83.901      -16.543       13.701       12.288        8.119      187.723      150.989       65.917        0.425        0.020       88.429        5.515        0.004      338.047       10.433      861.738
11/19/2014  19:54:00       15.697       65.126      -17.378       21.453       22.365       13.710      460.237      500.198      187.955        0.297        0.057       66.991        6.353        0.009      337.977       10.316      861.745
11/19/2014  19:55:00       12.625       73.440      -13.129       10.705       11.371        7.268      114.591      129.294       52.817        0.301        0.015       74.517        6.553        0.008      338.057       10.451      861.768
11/19/2014  19:56:00       15.789       51.275      -11.192        8.624       13.044        5.958       74.370      170.155       35.492        0.164        0.014       53.651        4.699        0.008      338.028       10.403      861.800
11/19/2014  19:57:00        4.457       29.128       -8.439        9.249        9.249        4.569       85.539       85.541       20.871        0.057        0.010       29.467        4.560        0.024      337.976       10.314      861.826
11/19/2014  19:58:00        5.527       29.643       -4.684        9.493        8.736        5.746       90.126       76.325       33.020        0.057        0.010       30.154        3.653        0.015      337.987       10.331      861.853
11/19/2014  19:59:00       14.715       18.947        7.326        7.115        8.609        9.502       50.628       74.116       90.279        0.042        0.011       23.990        7.926        0.109      337.931       10.238      861.848
11/19/2014  20:00:00       27.515       17.224        4.264        9.418        5.784        4.354       88.691       33.457       18.955        0.061        0.007       32.462        4.357        0.018      337.909       10.203      861.833
11/19/2014  20:01:00       22.738       16.794       -5.622        7.498        9.913        5.035       56.218       98.268       25.350        0.051        0.009       28.268        2.742        0.009      337.937       10.248      861.828
11/19/2014  20:02:00       13.494       51.522       -9.566       12.168        9.919        3.472      148.048       98.378       12.055        0.159        0.013       53.260        4.594        0.007      337.986       10.329      861.826
11/19/2014  20:03:00      -16.042       47.944      -13.188       14.349       13.714        8.506      205.884      188.076       72.354        0.160        0.023       50.557        7.869        0.024      338.035       10.413      861.834
11/19/2014  20:04:00      -72.898       22.870       -2.100       46.005       34.658       23.210     2116.452     1201.181      538.693        0.485        0.193       76.401       23.308        0.093      338.401       11.027      861.846
11/19/2014  20:05:00      -96.740       19.289       -7.299       38.000       27.664       21.859     1444.028      765.271      477.805        0.624        0.134       98.645       22.100        0.050      338.603       11.366      861.870
11/19/2014  20:06:00     -108.673      -29.524       -8.550       33.070       36.368       16.743     1093.626     1322.630      280.324        0.773        0.135      112.612       15.505        0.019      338.462       11.128      861.903
11/19/2014  20:07:00     -130.474      -43.735       -2.477       49.000       28.019       23.412     2401.031      785.055      548.138        1.134        0.187      137.609       26.425        0.037      338.252       10.778      861.935
11/19/2014  20:08:00      -94.822      -61.750       10.918       77.933       56.757       36.772     6073.608     3221.408     1352.154        1.178        0.532      113.156       44.112        0.152      338.325       10.900      861.935
11/19/2014  20:09:00     -143.765      -79.709       -9.336       97.496       85.287       63.596     9505.376     7273.865     4044.415        2.396        1.041      164.383       55.930        0.116      338.406       11.033      861.908
11/19/2014  20:10:00     -213.224       -1.803      -18.128       73.685       71.775       35.468     5429.544     5151.650     1257.979        2.882        0.592      213.231       35.696        0.028      338.709       11.543      861.916
11/19/2014  20:11:00      -98.865      -18.904        6.022       94.251       73.825       43.510     8883.333     5450.081     1893.123        1.319        0.811      100.656       49.564        0.242      338.550       11.276      861.882
11/19/2014  20:12:00     -182.531      -41.034       -5.128       81.059       74.822       42.422     6570.615     5598.394     1799.633        2.450        0.698      187.087       43.481        0.054      338.502       11.194      861.902
11/19/2014  20:13:00     -293.740      -86.030       -5.133      127.372      110.890       55.339    16223.522    12296.671     3062.405        6.264        1.579      306.079       54.954        0.032      338.567       11.302      861.920
11/19/2014  20:14:00     -124.983      -60.371        4.905       96.499       91.597       49.607     9312.126     8389.965     2460.850        1.972        1.008      138.800       56.189        0.164      338.521       11.228      861.943
11/19/2014  20:15:00     -146.819      -19.596       12.878       72.758      105.327       45.575     5293.687    11093.708     2077.087        2.028        0.923      148.121       36.933        0.062      338.695       11.521      861.968
11/19/2014  20:16:00     -151.578      -70.752       -1.180       89.223       61.654       42.185     7960.801     3801.190     1779.534        2.076        0.677      167.278       50.153        0.090      338.590       11.343      861.974
11/19/2014  20:17:00     -138.111      -26.210       -7.451       86.940       56.956       39.566     7558.502     3244.029     1565.455        1.609        0.618      140.576       46.380        0.109      338.669       11.477      861.989
11/19/2014  20:18:00     -121.143      -24.848       10.985      115.783       74.110       63.634    13405.670     5492.287     4049.285        1.918        1.147      123.665       61.948        0.251      338.609       11.375      861.997
11/19/2014  20:19:00     -239.025     -139.630       -2.178      129.212       91.805       49.657    16695.815     8428.175     2465.830        5.211        1.379      276.820       59.764        0.047      338.524       11.232      862.002
11/19/2014  20:20:00     -244.833     -139.745       -9.893      112.536       64.745       54.896    12664.401     4191.978     3013.571        4.972        0.993      281.908       55.644        0.039      338.462       11.127      861.999
11/19/2014  20:21:00     -253.741     -148.223       -8.318       81.118       77.816       46.034     6580.109     6055.365     2119.162        5.059        0.738      293.861       36.644        0.016      338.438       11.086      862.004
11/19/2014  20:22:00     -215.108     -102.683        6.760       82.953       57.661       44.960     6881.267     3324.801     2021.370        3.454        0.611      238.360       46.798        0.039      338.383       10.993      862.016
11/19/2014  20:23:00     -139.799      -25.203        2.839      103.495       62.567       43.513    10711.160     3914.594     1893.368        1.835        0.826      142.052       49.187        0.120      338.378       10.986      862.024
11/19/2014  20:24:00     -150.523      -34.211        3.589       74.760       70.832       40.732     5589.020     5017.240     1659.121        1.805        0.613      154.362       41.754        0.073      338.422       11.061      862.032
11/19/2014  20:25:00     -222.563      -46.493       10.273      187.908      149.965       77.842    35309.592    22489.428     6059.304        5.782        3.193      227.367       89.162        0.154      338.440       11.089      862.015
11/19/2014  20:26:00     -166.562      -45.877       16.132      127.347      112.033       76.832    16217.229    12551.413     5903.191        3.238        1.734      172.764       77.144        0.199      338.652       11.447      862.004
11/19/2014  20:27:00     -175.027      -31.126       -6.536      142.672       60.617       51.772    20355.426     3674.393     2680.334        2.917        1.336      177.773       59.147        0.111      338.555       11.284      862.011
11/19/2014  20:28:00     -191.278      -29.192       -7.006      111.073       99.085       54.694    12337.244     9817.763     2991.435        3.131        1.257      193.493       52.153        0.073      338.547       11.270      861.985
11/19/2014  20:29:00     -236.938      -83.023        0.779      105.996       89.546       48.053    11235.091     8018.485     2309.135        4.229        1.078      251.063       53.827        0.046      338.501       11.191      861.948
11/19/2014  20:30:00     -274.480     -107.472        3.820      136.040       97.496       65.236    18506.757     9505.503     4255.763        5.958        1.613      294.770       69.468        0.056      338.521       11.227      861.924
11/19/2014  20:31:00     -272.237      -81.425       -2.099      109.180       92.659       52.763    11920.207     8585.623     2783.882        5.201        1.164      284.153       58.894        0.043      338.562       11.295      861.935
11/19/2014  20:32:00     -302.181      -10.343      -14.566      149.648      118.561       63.542    22394.588    14056.812     4037.559        6.605        2.024      302.358       75.971        0.063      338.733       11.584      861.960
11/19/2014  20:33:00     -296.774     -102.365        6.829      142.048      107.647       65.389    20177.501    11587.904     4275.763        6.731        1.802      313.932       65.471        0.043      338.560       11.291      861.955
11/19/2014  20:34:00     -272.124      -24.783      -15.684      124.024      107.214       55.466    15381.890    11494.858     3076.453        5.243        1.498      273.250       50.488        0.034      338.629       11.407      861.982
11/19/2014  20:35:00     -360.300      -92.420      -35.854      135.776      109.642       50.010    18435.032    12021.373     2500.990        8.629        1.648      371.965       54.396        0.021      338.532       11.242      861.967
11/19/2014  20:36:00     -444.037     -169.669      -27.224      132.062      133.308       74.170    17440.359    17770.935     5501.170       13.370        2.036      475.348       58.511        0.015      338.448       11.103      861.951
11/19/2014  20:37:00     -401.218      -99.896      -46.043      125.212      113.303       63.604    15677.936    12837.649     4045.466       10.281        1.628      413.467       49.523        0.014      338.447       11.101      861.975
11/19/2014  20:38:00     -320.944      -99.168        5.292      208.198      129.543       87.586    43346.338    16781.408     7671.326        9.032        3.390      335.915       98.714        0.086      338.386       10.999      861.969
11/19/2014  20:39:00     -418.528      -59.142       -8.167      167.548      106.644       80.702    28072.380    11372.917     6512.855       11.234        2.298      422.686       82.423        0.038      338.420       11.056      861.981
11/19/2014  20:40:00     -402.749      -41.034      -17.078      146.058      130.825       69.766    21332.975    17115.160     4867.282       10.374        2.166      404.834       72.484        0.032      338.421       11.057      861.969
11/19/2014  20:41:00     -291.267      -32.199      -31.617      147.568      102.624       69.719    21776.215    10531.621     4860.714        6.201        1.858      293.041       69.092        0.056      338.534       11.250      861.967
11/19/2014  20:42:00     -287.502      -54.250       -9.231      117.696      115.084       56.152    13852.289    13244.234     3153.082        5.796        1.512      292.576       56.280        0.037      338.389       11.005      861.957
11/19/2014  20:43:00     -277.900      -94.395      -11.688      117.874       95.044       66.241    13894.391     9033.326     4387.865        5.679        1.366      293.494       61.069        0.043      338.421       11.058      861.917
11/19/2014  20:44:00     -314.092      -91.695      -13.881      128.511       95.673       55.629    16514.973     9153.266     3094.541        6.800        1.438      327.203       53.212        0.026      338.363       10.960      861.896
11/19/2014  20:45:00     -282.639      -80.869       -5.256      108.713       93.055       56.249    11818.468     8659.168     3163.897        5.504        1.182      293.981       54.469        0.034      338.327       10.900      861.897
11/19/2014  20:46:00     -294.390      -32.361      -12.254      108.252       96.467       56.632    11718.440     9305.951     3207.236        5.604        1.212      296.163       58.115        0.039      338.451       11.109      861.888
11/19/2014  20:47:00     -319.229      -71.283       -9.558      140.874       92.689       68.074    19845.382     8591.233     4634.105        7.007        1.654      327.091       66.199        0.041      338.392       11.009      861.893
11/19/2014  20:48:00     -389.592      -77.553      -14.383      121.393       90.694       66.966    14736.187     8225.398     4484.422        9.272        1.372      397.236       64.126        0.026      338.290       10.840      861.897
11/19/2014  20:49:00     -284.662      -69.345       -3.472      113.896       95.911       54.793    12972.347     9198.986     3002.323        5.551        1.259      292.986       50.676        0.030      338.315       10.879      861.897
11/19/2014  20:50:00     -370.233      -26.692      -14.816      136.755      107.464       70.944    18702.056    11548.551     5033.018        8.664        1.764      371.194       74.518        0.040      338.308       10.866      861.916
11/19/2014  20:51:00     -343.158      -16.613      -10.674      152.390       82.784       57.618    23222.655     6853.124     3319.800        7.576        1.670      343.560       60.873        0.031      338.328       10.903      861.916
11/19/2014  20:52:00     -259.883      -57.795      -11.581      102.090       84.696       47.216    10422.432     7173.484     2229.385        4.542        0.991      266.231       47.190        0.031      338.259       10.786      861.893
11/19/2014  20:53:00     -252.142      -29.868      -10.913      109.481       92.732       50.781    11986.158     8599.181     2578.753        4.387        1.158      253.905       51.323        0.041      338.304       10.862      861.884
11/19/2014  20:54:00     -133.403      -67.410        1.655       84.569       86.753       47.659     7151.980     7526.107     2271.339        1.964        0.847      149.468       43.196        0.084      338.222       10.727      861.851
11/19/2014  20:55:00     -126.995      -77.857       -3.483       93.365      102.435       45.438     8717.075    10492.910     2064.629        2.173        1.064      148.961       45.635        0.094      338.234       10.745      861.823
11/19/2014  20:56:00     -234.877      -51.726      -23.683       83.135       67.009       38.518     6911.466     4490.215     1483.652        3.564        0.644      240.505       33.517        0.019      338.183       10.656      861.811
11/19/2014  20:57:00     -316.682      -79.157      -17.119      112.421       93.648       49.987    12638.456     8770.033     2498.723        6.537        1.195      326.425       44.492        0.019      338.178       10.649      861.801
11/19/2014  20:58:00     -268.244      -80.325        3.073      131.508       95.487       49.534    17294.267     9117.739     2453.589        5.364        1.443      280.012       62.639        0.050      338.079       10.485      861.784
11/19/2014  20:59:00     -378.656     -121.440      -11.119      146.223      107.807       55.674    21381.212    11622.455     3099.645        9.717        1.805      397.653       68.103        0.029      338.105       10.529      861.781
11/19/2014  21:00:00     -328.770      -44.459      -14.340      121.068       91.276       59.623    14657.557     8331.238     3554.905        6.840        1.327      331.763       63.215        0.036      338.057       10.448      861.803
11/19/2014  21:01:00     -246.644      -14.074        5.737      162.397      108.571       71.627    26372.829    11787.584     5130.424        5.217        2.165      247.046       76.391        0.096      338.150       10.604      861.817
11/19/2014  21:02:00     -271.400      -45.543      -14.731      129.491       88.664       56.078    16767.839     7861.298     3144.728        5.186        1.389      275.195       52.421        0.036      338.141       10.589      861.856
11/19/2014  21:03:00     -251.028      -98.400        8.927      137.450      148.994       63.729    18892.437    22199.272     4061.406        5.896        2.258      269.625       67.270        0.062      338.133       10.576      861.906
11/19/2014  21:04:00     -203.978     -152.122       18.435      152.215      132.644       63.035    23169.526    17594.325     3973.416        5.490        2.237      254.457       67.130        0.070      338.126       10.563      861.941
11/19/2014  21:05:00     -114.491     -151.739        8.039      125.560      139.263       57.984    15765.193    19394.313     3362.091        3.735        1.926      190.086       66.534        0.123      338.166       10.631      861.984
11/19/2014  21:06:00      -65.411      -84.692       12.585      104.544       78.895       37.885    10929.468     6224.365     1435.271        1.510        0.929      107.011       48.541        0.206      338.115       10.546      862.027
11/19/2014  21:07:00      -90.787     -157.211        8.763       86.264       59.808       31.714     7441.421     3577.015     1005.749        2.253        0.601      181.542       33.257        0.034      338.139       10.586      862.045
11/19/2014  21:08:00      -19.228      -82.873       -6.143       59.351       85.989       47.500     3522.498     7394.173     2256.206        1.022        0.659       85.075       41.576        0.239      338.148       10.602      862.054
11/19/2014  21:09:00       -9.786      -27.658       13.036       56.111       54.772       27.107     3148.461     3000.002      734.804        0.396        0.344       29.338       23.308        0.631      338.275       10.815      862.089
11/19/2014  21:10:00      -15.464      -26.659       13.345       42.834       49.843       26.403     1834.750     2484.290      697.111        0.307        0.251       30.820       23.858        0.599      338.140       10.589      862.119
11/19/2014  21:11:00       29.781      -47.149       26.335       46.947       91.149       59.036     2204.012     8308.129     3485.234        0.890        0.700       55.766       67.350        1.459      338.056       10.449      862.113
11/19/2014  21:12:00       46.190      -59.643       16.497       61.745       88.029       55.352     3812.497     7749.066     3063.799        1.029        0.731       75.438       66.524        0.778      338.126       10.566      862.141
11/19/2014  21:13:00       13.687      -44.265       20.522       43.021       74.596       55.884     1850.789     5564.600     3123.026        0.655        0.527       46.332       48.607        1.101      338.068       10.469      862.143
11/19/2014  21:14:00       29.850       -9.949       73.356       44.595       98.259       53.129     1988.706     9654.789     2822.696        1.042        0.723       31.465       59.891        3.623      337.945       10.261      862.133
11/19/2014  21:15:00       37.139       -7.627       68.524       56.887       73.734       42.735     3236.145     5436.689     1826.317        0.831        0.525       37.914       41.904        1.222      337.963       10.293      862.148
11/19/2014  21:16:00       53.945      -26.969       22.174       47.318       58.159       47.112     2238.988     3382.475     2219.582        0.598        0.392       60.311       44.714        0.550      338.035       10.412      862.179
11/19/2014  21:17:00      -14.607       17.548       18.592       21.923       34.830       28.205      480.613     1213.126      795.505        0.168        0.124       22.832       12.013        0.277      338.058       10.451      862.212
11/19/2014  21:18:00      -50.308       14.034      -16.032       53.983       22.136       20.698     2914.154      490.004      428.421        0.341        0.192       52.229       18.749        0.129      338.281       10.826      862.261
11/19/2014  21:19:00      -21.038       10.005       26.409       28.486       25.272       19.563      811.479      638.699      382.707        0.154        0.092       23.296       17.562        0.568      338.202       10.693      862.271
11/19/2014  21:20:00       -5.828      -11.472        5.771       26.870       20.280       18.404      721.991      411.268      338.715        0.084        0.074       12.868       20.667        2.580      338.007       10.365      862.278
11/19/2014  21:21:00       32.525       42.858       17.535       29.720       25.928       22.238      883.288      672.255      494.533        0.263        0.103       53.803       16.342        0.092      337.931       10.238      862.294
11/19/2014  21:22:00      -29.024        8.259       -9.332       55.973       20.238       20.703     3133.018      409.592      428.620        0.248        0.199       30.176       15.071        0.249      338.165       10.632      862.322
11/19/2014  21:23:00      -40.917       97.817       -3.380       60.200       25.774       41.460     3624.032      664.295     1718.946        0.863        0.300      106.030       43.930        0.172      338.107       10.533      862.306
11/19/2014  21:24:00      -31.508      -27.725       -9.309       59.081       49.124       22.853     3490.615     2413.118      522.275        0.414        0.321       41.969       30.997        0.545      338.143       10.593      862.289
11/19/2014  21:25:00      -57.857     -171.807        3.664       64.980       89.068       35.942     4222.341     7933.124     1291.809        2.316        0.672      181.287       36.542        0.041      338.150       10.604      862.240
11/19/2014  21:26:00     -106.579     -143.749       -6.784       70.336       58.147       43.362     4947.164     3381.091     1880.231        2.114        0.510      178.950       38.423        0.046      338.057       10.448      862.213
11/19/2014  21:27:00     -151.720      -57.121        7.097       95.966       56.805       41.216     9209.461     3226.830     1698.749        2.023        0.707      162.116       48.022        0.088      338.015       10.378      862.212
11/19/2014  21:28:00      -95.188      -83.508        1.765       83.721       61.660       35.260     7009.147     3801.910     1243.254        1.404        0.603      126.627       35.066        0.077      338.064       10.460      862.202
11/19/2014  21:29:00     -133.812     -163.233       -3.970      106.346       63.594       43.748    11309.557     4044.150     1913.910        3.091        0.863      211.071       35.625        0.028      338.100       10.519      862.184
11/19/2014  21:30:00      -20.102     -190.556       17.401       42.165       96.508       37.183     1777.900     9313.784     1382.557        2.474        0.624      191.613       30.863        0.026      338.176       10.646      862.174
11/19/2014  21:31:00      -26.436      -89.566       -3.263      145.200       99.391       55.925    21083.107     9878.575     3127.567        2.140        1.704       93.385       64.433        0.476      338.123       10.560      862.186
11/19/2014  21:32:00      -45.982      -82.512       -3.664       64.955       51.867       49.653     4219.217     2690.165     2465.414        0.915        0.469       94.459       36.056        0.146      338.087       10.501      862.194
11/19/2014  21:33:00      -58.778      -59.060      -14.281       36.353       31.404       31.937     1321.516      986.241     1019.941        0.524        0.166       83.324        8.448        0.010      338.063       10.459      862.228
11/19/2014  21:34:00       35.625        6.760       13.942       33.596       29.586       17.606     1128.671      875.303      309.963        0.191        0.116       36.260       16.889        0.217      337.982       10.324      862.251
11/19/2014  21:35:00       15.569       55.436       59.621       37.094       30.826       31.016     1375.934      950.253      961.975        0.508        0.164       57.580       30.053        0.272      337.873       10.141      862.261
11/19/2014  21:36:00      113.964       69.829       48.700       72.054       43.579       36.704     5191.725     1899.162     1347.148        1.434        0.422      133.656       34.413        0.066      337.837       10.080      862.257
11/19/2014  21:37:00       54.152       73.754       63.858       43.517       32.137       29.229     1893.716     1032.763      854.354        0.811        0.189       91.499       22.787        0.062      337.778        9.981      862.289
11/19/2014  21:38:00        6.772       40.361       56.693       36.192       46.760       25.661     1309.827     2186.451      658.463        0.452        0.208       40.925       19.079        0.217      337.753        9.940      862.326
11/19/2014  21:39:00       56.343       65.659       70.575       54.299       45.581       33.394     2948.370     2077.598     1115.153        0.930        0.307       86.520       31.924        0.136      337.693        9.841      862.357
11/19/2014  21:40:00      119.540       67.601       44.384       36.000       25.607       29.081     1296.035      655.710      845.704        1.181        0.140      137.331       16.675        0.015      337.609        9.699      862.381
11/19/2014  21:41:00       83.079       62.382       21.873       37.538       22.526       25.345     1409.100      507.419      642.348        0.691        0.128      103.893       20.461        0.039      337.549        9.597      862.366
11/19/2014  21:42:00       72.168       56.529       25.154       32.881       21.439       25.752     1081.176      459.646      663.187        0.562        0.110       91.672       19.477        0.045      337.493        9.504      862.336
11/19/2014  21:43:00       94.032       58.979       35.407       25.868       26.488       28.962      669.144      701.623      838.786        0.789        0.110      110.998       13.317        0.014      337.528        9.563      862.300
11/19/2014  21:44:00       59.346       14.319       21.812       29.440       21.850       18.317      866.690      477.429      335.500        0.294        0.084       61.049       18.814        0.095      337.480        9.482      862.286
11/19/2014  21:45:00       79.878       24.133       33.815       36.592       31.699       29.757     1338.950     1004.836      885.495        0.567        0.161       83.444       22.290        0.071      337.492        9.503      862.282
11/19/2014  21:46:00       41.176       51.521       56.353       31.543       23.331       26.769      994.949      544.332      716.588        0.489        0.113       65.954       15.837        0.058      337.501        9.517      862.278
11/19/2014  21:47:00       39.076       46.775       61.229       44.706       42.113       29.605     1998.612     1773.464      876.428        0.606        0.232       60.950       34.527        0.321      337.475        9.472      862.277
11/19/2014  21:48:00       18.118       15.627       34.728       27.263       30.035       21.214      743.275      902.104      450.025        0.194        0.105       23.927       18.654        0.608      337.502        9.518      862.278
11/19/2014  21:49:00       15.695       -9.124       14.036       13.667       34.542       15.861      186.787     1193.180      251.569        0.108        0.082       18.154       16.905        0.867      337.518        9.545      862.266
11/19/2014  21:50:00       -3.891       19.058        7.069       20.267       17.403       13.898      410.764      302.872      193.165        0.067        0.045       19.451       10.860        0.312      337.507        9.526      862.276
11/19/2014  21:51:00       23.759       55.276       -1.793       30.188       20.982       17.596      911.316      440.232      309.609        0.264        0.083       60.166       11.668        0.038      337.611        9.702      862.271
11/19/2014  21:52:00       49.357       37.124        5.215       23.866       27.477       18.993      569.568      754.971      360.745        0.276        0.084       61.760       16.299        0.070      337.460        9.449      862.228
11/19/2014  21:53:00       36.695       16.282       -7.723       34.994       28.156       15.996     1224.610      792.741      255.877        0.197        0.114       40.145       12.825        0.102      337.386        9.325      862.216
11/19/2014  21:54:00      -31.415       10.470       -8.631       19.215       21.454        9.663      369.205      460.295       93.382        0.105        0.046       33.114        7.886        0.057      337.469        9.463      862.233
11/19/2014  21:55:00      -76.795       20.957       -3.602       48.620       39.176       24.503     2363.951     1534.793      600.407        0.542        0.225       79.603       22.384        0.079      337.713        9.873      862.254
11/19/2014  21:56:00     -125.606       61.810      -19.666       41.198       33.755       23.332     1697.289     1139.383      544.403        1.168        0.169      139.990       14.125        0.010      337.748        9.932      862.272
11/19/2014  21:57:00     -135.647       62.783      -17.927       41.783       44.195       28.215     1745.860     1953.163      796.084        1.358        0.225      149.472       29.726        0.040      337.730        9.902      862.284
11/19/2014  21:58:00     -129.456       62.382      -19.377       42.242       57.783       24.983     1784.417     3338.837      624.159        1.339        0.287      143.702       24.295        0.029      337.831       10.072      862.300
11/19/2014  21:59:00     -141.500       81.460      -25.952       30.232       66.641       25.442      913.958     4441.036      647.289        1.667        0.300      163.273       26.681        0.027      337.768        9.966      862.291
11/19/2014  22:00:00     -157.913       25.509      -13.945       68.968       86.749       42.716     4756.578     7525.463     1824.647        1.994        0.705      159.960       39.034        0.060      337.739        9.916      862.277
11/19/2014  22:01:00     -189.917      -51.290       -9.224       71.392       64.145       32.991     5096.838     4114.642     1088.377        2.454        0.515      196.721       32.418        0.027      337.902       10.188      862.257
11/19/2014  22:02:00     -247.171      -70.902      -13.265       74.801       73.191       39.895     5595.174     5356.921     1591.584        3.942        0.627      257.139       39.133        0.023      337.787        9.992      862.262
11/19/2014  22:03:00     -155.134     -104.559        3.549      122.979       62.842       46.454    15123.907     3949.163     2157.993        2.812        1.062      187.081       58.549        0.098      337.818       10.047      862.250
11/19/2014  22:04:00     -244.272     -131.535       -9.339      163.071       84.610       58.648    26592.170     7158.831     3439.550        5.712        1.860      277.436       81.766        0.087      337.914       10.207      862.220
11/19/2014  22:05:00     -241.145      -67.334        0.608      139.216      110.420       54.172    19381.147    12192.651     2934.583        4.859        1.725      250.370       53.482        0.046      337.886       10.161      862.237
11/19/2014  22:06:00     -276.947     -138.432      -10.273      108.933      120.404       59.688    11866.328    14497.068     3562.624        6.294        1.496      309.618       61.850        0.040      337.931       10.235      862.232
11/19/2014  22:07:00     -262.255     -125.123      -13.566      156.448      139.078       56.846    24476.085    19342.742     3231.475        6.582        2.353      290.575       69.784        0.058      337.965       10.294      862.228
11/19/2014  22:08:00     -245.633     -171.898      -16.297      112.933       97.071       64.270    12753.881     9422.732     4130.571        5.822        1.315      299.808       64.027        0.046      337.991       10.337      862.212
11/19/2014  22:09:00     -263.666      -95.833      -14.010      119.181       93.763       54.383    14204.108     8791.536     2957.535        5.242        1.298      280.542       45.425        0.026      337.978       10.316      862.209
11/19/2014  22:10:00     -268.524     -126.334       -2.377      110.759       90.172       58.090    12267.521     8130.998     3374.466        5.592        1.189      296.758       47.062        0.025      338.029       10.399      862.212
11/19/2014  22:11:00     -288.475     -120.694      -15.419      100.186       91.986       58.344    10037.142     8461.471     3404.052        5.996        1.095      312.706       50.808        0.026      338.058       10.448      862.212
11/19/2014  22:12:00     -282.021     -122.943      -17.454      123.042      103.752       54.067    15139.417    10764.455     2923.243        6.189        1.441      307.654       52.449        0.029      338.044       10.425      862.227
11/19/2014  22:13:00     -240.365      -54.670       -4.383      147.917      118.663       66.523    21879.520    14081.019     4425.353        5.058        2.019      246.504       68.407        0.077      338.099       10.517      862.196
11/19/2014  22:14:00     -316.038       -6.801      -12.290      153.077      117.313       71.394    23432.490    13762.362     5097.130        7.118        2.115      316.111       77.837        0.061      338.120       10.552      862.208
11/19/2014  22:15:00     -262.894      -34.488      -16.637      114.518       94.180       56.049    13114.448     8869.961     3141.450        4.785        1.256      265.147       53.027        0.040      338.129       10.568      862.212
11/19/2014  22:16:00     -172.721     -100.691       16.333      136.055      123.902       75.512    18510.988    15351.757     5702.089        3.989        1.978      199.929       85.838        0.184      338.013       10.374      862.203
11/19/2014  22:17:00     -185.231     -116.502       11.754      167.127      113.602       69.788    27931.562    12905.460     4870.382        4.686        2.285      218.822       74.588        0.116      337.971       10.303      862.199
11/19/2014  22:18:00     -304.105     -155.160      -10.066      135.888      130.452       62.203    18465.440    17017.767     3869.176        7.800        1.968      341.401       55.168        0.026      338.039       10.415      862.204
11/19/2014  22:19:00     -221.700     -126.285       17.088      162.204      139.325       85.199    26310.220    19411.411     7258.843        5.917        2.649      255.145       83.864        0.108      338.037       10.414      862.195
11/19/2014  22:20:00     -283.879     -146.526      -25.911      132.133      128.877       66.116    17459.104    16609.262     4371.352        7.058        1.922      319.464       60.724        0.036      338.089       10.500      862.180
11/19/2014  22:21:00     -211.618      -46.975      -26.194      120.971      114.067       64.216    14633.931    13011.342     4123.674        3.972        1.588      216.769       64.545        0.089      338.109       10.536      862.190
11/19/2014  22:22:00     -310.974       10.264      -11.138      168.435      110.108       70.642    28370.473    12123.757     4990.274        7.120        2.274      311.143       84.908        0.074      338.117       10.546      862.158
11/19/2014  22:23:00     -190.286     -161.000        5.699      131.911      136.767       72.033    17400.631    18705.157     5188.755        5.172        2.065      249.259       76.458        0.094      338.045       10.427      862.147
11/19/2014  22:24:00     -172.184      -92.090       -0.075      107.549       75.154       52.556    11566.766     5648.139     2762.138        2.905        0.999      195.263       52.664        0.073      338.010       10.368      862.146
11/19/2014  22:25:00     -249.754     -130.663       -7.871      205.760      148.966       77.513    42337.097    22190.894     6008.335        7.501        3.527      281.869       94.026        0.111      338.036       10.411      862.135
11/19/2014  22:26:00     -271.425      -81.879        2.455      214.597      151.690       81.211    46051.686    23009.835     6595.225        7.800        3.783      283.506       94.737        0.112      338.075       10.478      862.091
11/19/2014  22:27:00     -397.236     -158.802       -6.871      228.472      215.250      101.557    52199.618    46332.357    10313.788       14.593        5.442      427.802      108.815        0.065      338.064       10.458      862.127
11/19/2014  22:28:00     -248.377     -124.803        7.297      235.299      161.212      109.027    55365.399    25989.417    11886.862        8.526        4.662      277.969      118.483        0.182      338.064       10.459      862.137
11/19/2014  22:29:00     -301.409     -156.952      -22.911      213.665      139.790       80.987    45652.754    19541.138     6558.885        9.387        3.588      339.826       87.246        0.066      338.090       10.502      862.144
11/19/2014  22:30:00     -337.779     -130.742      -20.749      194.857      167.806       90.102    37969.065    28158.930     8118.338       10.292        3.712      362.199       95.586        0.070      338.128       10.565      862.152
11/19/2014  22:31:00     -272.699     -174.980        5.505      168.225      176.820       85.166    28299.491    31265.409     7253.241        8.590        3.341      324.011       94.039        0.084      338.057       10.448      862.131
11/19/2014  22:32:00     -338.779     -143.400      -11.458      175.964      158.253       78.095    30963.174    25044.165     6098.892        9.877        3.105      367.879       87.156        0.056      338.094       10.509      862.149
11/19/2014  22:33:00     -425.475     -131.731      -34.343      208.375      166.206       84.758    43420.229    27624.515     7183.972       13.888        3.911      445.401      103.615        0.054      338.091       10.504      862.139
11/19/2014  22:34:00     -337.798     -101.032      -25.812      251.715      152.109       97.807    63360.572    23137.249     9566.288       11.050        4.803      352.584      129.946        0.136      338.099       10.517      862.135
11/19/2014  22:35:00     -188.862      -83.138       -0.768      114.164      121.473       61.558    13033.312    14755.611     3789.443        3.707        1.579      206.351       55.032        0.071      338.098       10.517      862.149
11/19/2014  22:36:00     -273.203     -150.360      -18.912      114.536       91.266       53.543    13118.591     8329.407     2866.852        6.096        1.216      311.846       53.757        0.030      338.074       10.475      862.157
11/19/2014  22:37:00     -278.653     -193.105      -22.264      179.601      174.598       94.563    32256.346    30484.599     8942.149        9.354        3.584      339.024       98.165        0.084      338.058       10.447      862.139
11/19/2014  22:38:00     -246.095      -99.589       -5.198      163.477      104.764       60.060    26724.783    10975.550     3607.147        5.590        2.065      265.482       61.125        0.053      338.031       10.403      862.171
11/19/2014  22:39:00     -248.779     -105.779       -7.691      217.621      196.762       83.220    47359.001    38715.105     6925.644        8.305        4.650      270.333       81.516        0.091      338.094       10.510      862.214
11/19/2014  22:40:00     -311.076     -170.537      -31.786      151.925      150.323       63.437    23081.341    22596.913     4024.202        8.827        2.485      354.755       73.103        0.042      338.096       10.513      862.183
11/19/2014  22:41:00     -168.946      -81.125        7.166      135.143      114.513       57.348    18263.654    13113.200     3288.810        3.491        1.733      187.414       54.811        0.086      338.004       10.359      862.152
11/19/2014  22:42:00     -241.456     -225.909        2.018      209.091      176.500      112.683    43718.935    31152.293    12697.493        9.844        4.378      330.660      114.426        0.120      338.073       10.474      862.093
11/19/2014  22:43:00     -156.598      -71.872       -5.615      119.190       90.361       51.544    14206.270     8165.061     2656.794        2.737        1.251      172.304       55.884        0.105      338.029       10.402      862.105
11/19/2014  22:44:00     -304.154      -95.734      -20.711      169.720      127.078       65.787    28804.807    16148.825     4327.964        7.568        2.464      318.865       82.909        0.068      338.069       10.468      862.120
11/19/2014  22:45:00     -394.631     -101.051      -12.163      159.661      173.885       74.595    25491.656    30235.952     5564.479       11.368        3.065      407.364       74.560        0.033      338.094       10.509      862.169
11/19/2014  22:46:00     -274.675      -91.197       -8.619      179.940      114.898       68.258    32378.250    13201.486     4659.195        6.703        2.512      289.419       74.064        0.065      338.047       10.429      862.149
11/19/2014  22:47:00     -266.839      -29.012       -9.182      187.206       93.917       65.076    35046.129     8820.445     4234.927        6.011        2.405      268.411       85.234        0.101      338.103       10.524      862.062
11/19/2014  22:48:00     -229.195     -137.058       -0.192      164.442      114.943       78.206    27041.214    13211.959     6116.114        5.883        2.318      267.049       87.254        0.107      338.048       10.433      862.050
11/19/2014  22:49:00     -239.295      -29.600        3.285      152.245      177.063       65.615    23178.668    31351.177     4305.367        5.848        2.942      241.118       74.025        0.094      338.111       10.537      862.062
11/19/2014  22:50:00     -329.090      -76.328      -13.663      197.956      144.110       81.560    39186.715    20767.630     6652.083        9.045        3.330      337.826       92.675        0.075      338.013       10.373      862.038
11/19/2014  22:51:00     -318.964     -113.961        1.070      159.466      188.899       85.288    25429.438    35682.918     7273.978        9.154        3.419      338.711       81.945        0.059      338.113       10.541      862.094
11/19/2014  22:52:00     -352.996      -51.438      -15.336      147.837      150.544       80.343    21855.772    22663.469     6454.957        8.922        2.549      356.724       61.540        0.030      338.147       10.599      862.105
11/19/2014  22:53:00     -419.516     -138.585      -20.730      224.591      192.381       89.397    50440.945    37010.465     7991.750       14.552        4.772      441.813       94.427        0.046      338.107       10.531      862.155
11/19/2014  22:54:00     -319.039      -32.187        0.508      174.936      135.651       74.932    30602.735    18401.083     5614.847        7.871        2.731      320.659       74.699        0.054      338.183       10.659      862.199
11/19/2014  22:55:00     -276.452     -109.251        1.378      174.665      132.793       85.687    30507.690    17633.851     7342.290        7.191        2.774      297.257      100.766        0.115      338.207       10.698      862.175
11/19/2014  22:56:00     -322.719     -138.777      -17.117       98.909       99.629       59.285     9783.077     9925.940     3514.677        7.346        1.161      351.293       45.303        0.017      338.214       10.710      862.129
11/19/2014  22:57:00     -414.097     -107.698      -14.399      177.540      133.108       70.344    31520.286    17717.656     4948.288       11.872        2.709      427.873       67.392        0.025      338.166       10.627      862.150
11/19/2014  22:58:00     -316.385     -143.614      -11.200      175.929      119.785       73.647    30950.973    14348.426     5423.854        8.578        2.536      347.454       86.926        0.063      338.100       10.518      862.131
11/19/2014  22:59:00     -311.858     -116.088      -19.152      166.535      150.394       70.103    27734.025    22618.502     4914.426        8.317        2.763      332.764       77.449        0.054      338.115       10.543      862.169
11/19/2014  23:00:00     -400.033     -313.611      -25.213      203.544      165.485      108.626    41430.133    27385.427    11799.641       16.980        4.031      508.309      120.070        0.056      338.083       10.490      862.156
11/19/2014  23:01:00     -366.317     -189.333       -1.745      193.988      166.926       89.631    37631.466    27864.149     8033.769       12.177        3.676      412.353       93.858        0.052      338.075       10.477      862.229
11/19/2014  23:02:00     -162.504     -215.323        3.130      118.418      109.847       64.206    14022.769    12066.299     4122.353        5.149        1.511      269.762       64.187        0.057      338.131       10.571      862.229
11/19/2014  23:03:00     -219.996     -205.501        2.164      140.065      112.048       64.574    19618.231    12554.648     4169.825        6.348        1.817      301.046       67.118        0.050      338.152       10.606      862.206
11/19/2014  23:04:00     -289.493     -195.637       -6.137      170.298      116.486       67.109    29001.568    13569.096     4503.633        8.459        2.354      349.400       69.266        0.039      338.104       10.524      862.223
11/19/2014  23:05:00     -399.975     -230.567      -15.247      216.668      176.507       78.700    46945.026    31154.738     6193.765       14.882        4.215      461.672       90.213        0.038      338.216       10.713      862.167
11/19/2014  23:06:00     -364.512      -90.278      -23.004      217.341      144.312       93.649    47237.096    20826.031     8770.063       10.918        3.842      375.525       90.738        0.058      338.309       10.869      862.195
11/19/2014  23:07:00     -196.520     -161.352       -0.051      234.465      160.878       84.212    54973.794    25881.806     7091.622        7.628        4.397      254.272       74.477        0.086      338.236       10.748      862.219
11/19/2014  23:08:00     -348.720     -193.859       -7.366      181.850      139.851       80.484    33069.477    19558.293     6477.722       10.916        2.955      398.982       88.680        0.049      338.275       10.814      862.242
11/19/2014  23:09:00     -278.257     -109.760      -12.894      112.329      117.050       53.367    12617.767    13700.671     2847.990        5.940        1.458      299.122       49.538        0.027      338.230       10.736      862.215
11/19/2014  23:10:00     -346.461     -207.191       -5.953      154.479      140.337       70.576    23863.677    19694.478     4980.971       10.576        2.427      403.688       62.877        0.024      338.200       10.687      862.259
11/19/2014  23:11:00     -322.415     -257.229       -3.286      195.049      141.133       87.349    38043.934    19918.632     7629.769       11.785        3.280      412.454       88.627        0.046      338.128       10.566      862.299
11/19/2014  23:12:00     -277.275     -200.707       -3.162      181.932      154.095       76.302    33099.220    23745.410     5822.021        8.991        3.133      342.293       70.015        0.042      338.080       10.485      862.327
11/19/2014  23:13:00     -208.434     -120.900      -14.794      115.531       82.803       49.003    13347.500     6856.314     2401.274        4.044        1.130      240.959       51.721        0.046      338.101       10.521      862.319
11/19/2014  23:14:00     -255.260     -133.640       -9.169      120.326       97.377       51.554    14478.429     9482.233     2657.795        5.485        1.331      288.127       53.191        0.034      338.088       10.499      862.284
11/19/2014  23:15:00     -197.120     -167.463      -17.005      107.537       85.738       50.179    11564.238     7350.952     2517.974        4.431        1.072      258.651       53.106        0.042      338.127       10.564      862.270
11/19/2014  23:16:00     -136.243     -161.458        4.144       96.987       71.022       47.194     9406.488     5044.160     2227.261        3.066        0.834      211.261       45.990        0.047      338.084       10.491      862.304
11/19/2014  23:17:00     -129.945     -134.653       -2.006       80.833       66.644       42.833     6533.951     4441.463     1834.667        2.391        0.641      187.128       42.391        0.051      338.116       10.547      862.333
11/19/2014  23:18:00     -147.655      -92.380        6.081       80.341       62.192       33.588     6454.732     3867.846     1128.180        2.091        0.573      174.173       36.050        0.043      338.030       10.403      862.386
11/19/2014  23:19:00     -187.069      -97.886       -5.003       73.553       73.654       39.213     5410.097     5424.915     1537.637        2.848        0.619      211.132       30.752        0.021      337.980       10.320      862.421
11/19/2014  23:20:00     -103.213     -114.534       -3.785       75.036       64.582       41.065     5630.330     4170.797     1686.294        1.763        0.574      154.178       35.438        0.053      338.001       10.355      862.430
11/19/2014  23:21:00     -152.448      -62.620       -2.221       99.149       67.155       37.163     9830.436     4509.789     1381.063        2.144        0.786      164.808       43.042        0.068      338.085       10.495      862.436
11/19/2014  23:22:00      -51.702      -20.771       11.926       53.961       82.709       34.581     2911.775     6840.832     1195.862        0.710        0.547       55.719       34.501        0.383      338.002       10.359      862.364
11/19/2014  23:23:00      -91.846     -101.948        3.587       96.877      110.278       47.137     9385.211    12161.314     2221.870        2.130        1.188      137.219       44.919        0.107      338.142       10.591      862.400
11/19/2014  23:24:00     -118.645     -100.287        7.313       64.087       97.520       33.282     4107.192     9510.106     1107.663        1.945        0.736      155.351       24.167        0.024      338.044       10.427      862.438
11/19/2014  23:25:00     -175.585     -114.062      -12.859       82.928       77.484       39.446     6877.127     6003.775     1555.953        2.922        0.722      209.380       31.608        0.023      338.010       10.368      862.455
11/19/2014  23:26:00     -114.686      -53.631        3.250      171.895      128.814       73.904    29547.992    16593.039     5461.770        3.381        2.580      126.606       61.095        0.233      337.991       10.337      862.440
11/19/2014  23:27:00     -128.162      -92.628        4.707      142.957       88.500       60.974    20436.613     7832.279     3717.842        2.850        1.599      158.131       71.925        0.207      338.082       10.489      862.392
11/19/2014  23:28:00     -244.871     -147.588      -22.425      209.522       85.985       62.612    43899.463     7393.460     3920.280        6.872        2.761      285.909       96.373        0.114      338.229       10.735      862.376
11/19/2014  23:29:00      -95.622      -62.679        4.026       77.310       47.657       33.359     5976.776     2271.195     1112.830        1.122        0.468      114.334       30.182        0.070      338.092       10.508      862.390
11/19/2014  23:30:00      -77.588      -94.475        2.018       73.948       59.000       40.667     5468.237     3481.054     1653.832        1.277        0.530      122.252       43.074        0.124      338.118       10.553      862.363
11/19/2014  23:31:00     -128.691      -50.722      -13.832       57.308       75.673       29.358     3284.201     5726.370      861.907        1.460        0.494      138.326       31.343        0.051      338.114       10.545      862.376
11/19/2014  23:32:00      -41.548      -98.033       -5.168       43.147       44.346       22.784     1861.626     1966.555      519.098        0.785        0.217      106.474       14.706        0.019      338.112       10.542      862.357
11/19/2014  23:33:00      -84.718     -104.472      -10.431       64.446       47.318       38.120     4153.298     2239.000     1453.107        1.302        0.392      134.504       24.966        0.034      338.004       10.360      862.392
11/19/2014  23:34:00     -135.339      -54.461        3.748       90.715       59.045       40.450     8229.173     3486.254     1636.226        1.732        0.668      145.886       31.965        0.048      337.838       10.083      862.420
11/19/2014  23:35:00      -72.183      -97.645        4.466       55.053       57.268       35.021     3030.832     3279.572     1226.450        1.115        0.377      121.428       27.392        0.051      337.716        9.877      862.404
11/19/2014  23:36:00       33.442     -192.007      -32.602       72.090       58.726       46.646     5197.002     3448.785     2175.813        2.493        0.541      194.898       37.197        0.036      337.619        9.713      862.445
11/19/2014  23:37:00      100.541      -84.927       24.059       84.448      169.999      102.251     7131.542    28899.652    10455.196        3.218        2.324      131.610      120.311        0.836      337.502        9.518      862.413
11/19/2014  23:38:00      127.120      -94.792       21.333       92.958      149.816       74.179     8641.198    22444.699     5502.594        3.109        1.829      158.572       82.160        0.268      337.436        9.407      862.328
11/19/2014  23:39:00      -26.049     -137.647       -2.956      116.511       82.875       60.452    13574.708     6868.212     3654.471        2.186        1.205      140.090       32.861        0.055      337.651        9.768      862.304
11/19/2014  23:40:00     -178.757     -144.206       -6.748      101.708      107.319       48.368    10344.435    11517.366     2339.483        3.849        1.210      229.673       57.320        0.062      337.671        9.801      862.334
11/19/2014  23:41:00     -168.101     -166.760        0.295       89.492       76.665       57.345     8008.874     5877.565     3288.441        3.662        0.859      236.784       57.044        0.058      337.409        9.360      862.343
11/19/2014  23:42:00      -67.103      -53.980        6.910       46.870       48.074       28.101     2196.788     2311.157      789.689        0.638        0.265       86.120       20.168        0.055      337.359        9.281      862.369
11/19/2014  23:43:00      -10.788     -166.530       -1.502       93.660       59.061       43.459     8772.243     3488.180     1888.653        2.100        0.707      166.879       27.662        0.027      337.453        9.435      862.408
11/19/2014  23:44:00       27.370      -92.504       14.516       71.350       95.500       61.305     5090.867     9120.326     3758.317        1.374        0.898       96.468       65.031        0.454      337.422        9.385      862.432
11/19/2014  23:45:00      -69.262       -7.381        4.176       51.834       29.115       20.412     2686.713      847.690      416.644        0.441        0.198       69.654       24.329        0.122      337.501        9.516      862.457
11/19/2014  23:46:00      -65.498      -62.555        7.168       55.307       68.413       31.374     3058.819     4680.279      984.347        0.849        0.436       90.571       42.631        0.222      337.416        9.375      862.484
11/19/2014  23:47:00      -73.453      -59.964        3.905       35.658       21.554       19.461     1271.483      464.567      378.732        0.556        0.106       94.822       17.485        0.034      337.330        9.231      862.464
11/19/2014  23:48:00      -13.145      -28.707       -4.025       28.856       24.756       21.402      832.649      612.874      458.043        0.146        0.095       31.574       13.644        0.187      337.282        9.151      862.464
11/19/2014  23:49:00        9.897      -38.273       -3.002       24.548       20.650       17.884      602.627      426.429      319.838        0.146        0.067       39.532        7.826        0.039      337.274        9.139      862.469
11/19/2014  23:50:00      -13.883      -11.963       -0.365       20.030       23.174       23.032      401.214      537.023      530.481        0.090        0.073       18.326       15.588        0.724      337.170        8.964      862.463
11/19/2014  23:51:00       17.022        4.476       -5.924       33.609       58.210       18.769     1129.568     3388.413      352.289        0.261        0.244       17.601       16.390        0.867      337.231        9.066      862.460
11/19/2014  23:52:00       14.372       39.966       35.258       30.253       29.413       21.742      915.258      865.140      472.734        0.265        0.113       42.471       17.239        0.165      337.051        8.763      862.433
11/19/2014  23:53:00       51.182      -83.861        5.428       79.282       61.700       40.399     6285.628     3806.885     1632.043        1.070        0.586       98.246       39.279        0.160      337.341        9.249      862.451
11/19/2014  23:54:00       22.299       35.035       85.671       65.655       89.725       68.933     4310.600     8050.517     4751.715        1.309        0.856       41.529       77.038        3.441      337.177        8.975      862.433
11/19/2014  23:55:00        5.896     -105.315        3.542       45.227       85.370       60.059     2045.483     7287.968     3607.078        1.204        0.647      105.480       62.015        0.346      337.283        9.151      862.428
11/19/2014  23:56:00      -10.399      -42.275        0.535       45.353       64.382       38.296     2056.890     4145.024     1466.596        0.478        0.383       43.535       37.847        0.756      337.437        9.410      862.441
11/19/2014  23:57:00      -10.414      -49.557       -9.349       37.730       64.602       38.607     1423.538     4173.378     1490.492        0.487        0.354       50.639       41.530        0.673      337.324        9.221      862.407
11/19/2014  23:58:00      -23.603       41.115       70.868       24.146       33.835       31.785      583.051     1144.815     1010.287        0.500        0.137       47.408       24.746        0.272      337.376        9.307      862.376
11/19/2014  23:59:00      -12.296      -26.834       22.693       24.674       25.114       31.218      608.807      630.708      974.553        0.180        0.111       29.517       22.854        0.599      337.437        9.409      862.380
